<?xml version="1.0" encoding="utf-8"?>
<gpx xmlns:xsi="http://www.w3.org/2001/XMLSchema-instance" xmlns:xsd="http://www.w3.org/2001/XMLSchema" version="1.1" creator="Shapelink.com" xmlns="http://www.topografix.com/GPX/1/1" xmlns:gpxtpx="http://www.garmin.com/xmlschemas/TrackPointExtension/v1">
  <metadata>
    <name>Vandring 16.37 km, 2013-10-12</name>
    <desc></desc>
    <author><name>Kim Kronberg</name></author> 
    <time>2013-10-12T11:14:11Z</time>
  </metadata>
  <trk>
    <name>Vandring 16.37 km, 2013-10-12</name>
    <trkseg>
      <trkpt lat="60.4874892" lon="22.2101932">
        <ele>25.1317</ele>
        <time>2013-10-12T11:14:11Z</time>
      </trkpt>
      <trkpt lat="60.4875114" lon="22.2101877">
        <ele>24.651</ele>
        <time>2013-10-12T11:14:13Z</time>
      </trkpt>
      <trkpt lat="60.4876057" lon="22.2102382">
        <ele>20.8057</ele>
        <time>2013-10-12T11:14:20Z</time>
      </trkpt>
      <trkpt lat="60.4876975" lon="22.2102514">
        <ele>20.8057</ele>
        <time>2013-10-12T11:14:26Z</time>
      </trkpt>
      <trkpt lat="60.4878037" lon="22.2102721">
        <ele>19.8444</ele>
        <time>2013-10-12T11:14:33Z</time>
      </trkpt>
      <trkpt lat="60.4878255" lon="22.2102882">
        <ele>18.4023</ele>
        <time>2013-10-12T11:14:35Z</time>
      </trkpt>
      <trkpt lat="60.4879491" lon="22.2103275">
        <ele>17.4412</ele>
        <time>2013-10-12T11:14:44Z</time>
      </trkpt>
      <trkpt lat="60.4880492" lon="22.2103404">
        <ele>17.4412</ele>
        <time>2013-10-12T11:14:51Z</time>
      </trkpt>
      <trkpt lat="60.4881098" lon="22.210341">
        <ele>19.3638</ele>
        <time>2013-10-12T11:14:55Z</time>
      </trkpt>
      <trkpt lat="60.4881946" lon="22.210316">
        <ele>21.2864</ele>
        <time>2013-10-12T11:15:01Z</time>
      </trkpt>
      <trkpt lat="60.4882931" lon="22.2102471">
        <ele>23.6896</ele>
        <time>2013-10-12T11:15:07Z</time>
      </trkpt>
      <trkpt lat="60.4883425" lon="22.2102128">
        <ele>26.0929</ele>
        <time>2013-10-12T11:15:10Z</time>
      </trkpt>
      <trkpt lat="60.4884303" lon="22.2101567">
        <ele>29.4575</ele>
        <time>2013-10-12T11:15:16Z</time>
      </trkpt>
      <trkpt lat="60.4884433" lon="22.2101436">
        <ele>29.9381</ele>
        <time>2013-10-12T11:15:17Z</time>
      </trkpt>
      <trkpt lat="60.4885412" lon="22.2100642">
        <ele>30.8995</ele>
        <time>2013-10-12T11:15:24Z</time>
      </trkpt>
      <trkpt lat="60.4886142" lon="22.2100525">
        <ele>30.4188</ele>
        <time>2013-10-12T11:15:29Z</time>
      </trkpt>
      <trkpt lat="60.4887061" lon="22.2100748">
        <ele>30.8995</ele>
        <time>2013-10-12T11:15:36Z</time>
      </trkpt>
      <trkpt lat="60.4888134" lon="22.2101163">
        <ele>31.3801</ele>
        <time>2013-10-12T11:15:43Z</time>
      </trkpt>
      <trkpt lat="60.4889131" lon="22.2101425">
        <ele>29.9381</ele>
        <time>2013-10-12T11:15:50Z</time>
      </trkpt>
      <trkpt lat="60.4889496" lon="22.2101579">
        <ele>29.4575</ele>
        <time>2013-10-12T11:15:53Z</time>
      </trkpt>
      <trkpt lat="60.489038" lon="22.2102035">
        <ele>25.1317</ele>
        <time>2013-10-12T11:16:01Z</time>
      </trkpt>
      <trkpt lat="60.4891154" lon="22.2102974">
        <ele>23.6896</ele>
        <time>2013-10-12T11:16:06Z</time>
      </trkpt>
      <trkpt lat="60.4891294" lon="22.2103135">
        <ele>22.7283</ele>
        <time>2013-10-12T11:16:07Z</time>
      </trkpt>
      <trkpt lat="60.4891795" lon="22.2103955">
        <ele>22.2476</ele>
        <time>2013-10-12T11:16:11Z</time>
      </trkpt>
      <trkpt lat="60.489242" lon="22.210467">
        <ele>23.6896</ele>
        <time>2013-10-12T11:16:16Z</time>
      </trkpt>
      <trkpt lat="60.4893244" lon="22.2106269">
        <ele>23.6896</ele>
        <time>2013-10-12T11:16:23Z</time>
      </trkpt>
      <trkpt lat="60.4893634" lon="22.2107317">
        <ele>23.209</ele>
        <time>2013-10-12T11:16:27Z</time>
      </trkpt>
      <trkpt lat="60.4894291" lon="22.2108896">
        <ele>21.2864</ele>
        <time>2013-10-12T11:16:34Z</time>
      </trkpt>
      <trkpt lat="60.4895002" lon="22.2109869">
        <ele>20.8057</ele>
        <time>2013-10-12T11:16:40Z</time>
      </trkpt>
      <trkpt lat="60.4895653" lon="22.2110367">
        <ele>24.1703</ele>
        <time>2013-10-12T11:16:45Z</time>
      </trkpt>
      <trkpt lat="60.4896385" lon="22.2111056">
        <ele>24.1703</ele>
        <time>2013-10-12T11:16:50Z</time>
      </trkpt>
      <trkpt lat="60.4897522" lon="22.2111423">
        <ele>25.1317</ele>
        <time>2013-10-12T11:16:57Z</time>
      </trkpt>
      <trkpt lat="60.4898308" lon="22.2111361">
        <ele>26.5736</ele>
        <time>2013-10-12T11:17:01Z</time>
      </trkpt>
      <trkpt lat="60.4899462" lon="22.2111162">
        <ele>28.0155</ele>
        <time>2013-10-12T11:17:08Z</time>
      </trkpt>
      <trkpt lat="60.4900458" lon="22.2110962">
        <ele>28.4962</ele>
        <time>2013-10-12T11:17:14Z</time>
      </trkpt>
      <trkpt lat="60.4901062" lon="22.2111459">
        <ele>28.4962</ele>
        <time>2013-10-12T11:17:18Z</time>
      </trkpt>
      <trkpt lat="60.49017" lon="22.2112858">
        <ele>26.5736</ele>
        <time>2013-10-12T11:17:25Z</time>
      </trkpt>
      <trkpt lat="60.4901817" lon="22.2113147">
        <ele>26.5736</ele>
        <time>2013-10-12T11:17:30Z</time>
      </trkpt>
      <trkpt lat="60.4901906" lon="22.2113091">
        <ele>26.0929</ele>
        <time>2013-10-12T11:17:31Z</time>
      </trkpt>
      <trkpt lat="60.4902741" lon="22.2112854">
        <ele>26.0929</ele>
        <time>2013-10-12T11:17:36Z</time>
      </trkpt>
      <trkpt lat="60.4902879" lon="22.2112919">
        <ele>26.0929</ele>
        <time>2013-10-12T11:17:37Z</time>
      </trkpt>
      <trkpt lat="60.49036" lon="22.2114734">
        <ele>24.1703</ele>
        <time>2013-10-12T11:17:44Z</time>
      </trkpt>
      <trkpt lat="60.4904055" lon="22.2116111">
        <ele>21.767</ele>
        <time>2013-10-12T11:17:49Z</time>
      </trkpt>
      <trkpt lat="60.4904575" lon="22.2117819">
        <ele>20.325</ele>
        <time>2013-10-12T11:17:55Z</time>
      </trkpt>
      <trkpt lat="60.4904891" lon="22.2118467">
        <ele>20.325</ele>
        <time>2013-10-12T11:17:59Z</time>
      </trkpt>
      <trkpt lat="60.4905616" lon="22.2118721">
        <ele>21.2864</ele>
        <time>2013-10-12T11:18:04Z</time>
      </trkpt>
      <trkpt lat="60.4905879" lon="22.2118846">
        <ele>21.767</ele>
        <time>2013-10-12T11:18:06Z</time>
      </trkpt>
      <trkpt lat="60.4906769" lon="22.2119467">
        <ele>24.1703</ele>
        <time>2013-10-12T11:18:12Z</time>
      </trkpt>
      <trkpt lat="60.4907579" lon="22.2120048">
        <ele>26.0929</ele>
        <time>2013-10-12T11:18:17Z</time>
      </trkpt>
      <trkpt lat="60.4908251" lon="22.2120704">
        <ele>26.5736</ele>
        <time>2013-10-12T11:18:22Z</time>
      </trkpt>
      <trkpt lat="60.4908714" lon="22.2121344">
        <ele>28.9769</ele>
        <time>2013-10-12T11:18:26Z</time>
      </trkpt>
      <trkpt lat="60.49094" lon="22.2122447">
        <ele>32.8223</ele>
        <time>2013-10-12T11:18:32Z</time>
      </trkpt>
      <trkpt lat="60.4909825" lon="22.212301">
        <ele>34.2642</ele>
        <time>2013-10-12T11:18:36Z</time>
      </trkpt>
      <trkpt lat="60.4910234" lon="22.2123846">
        <ele>35.7061</ele>
        <time>2013-10-12T11:18:40Z</time>
      </trkpt>
      <trkpt lat="60.4911291" lon="22.2124845">
        <ele>35.7061</ele>
        <time>2013-10-12T11:18:47Z</time>
      </trkpt>
      <trkpt lat="60.4911968" lon="22.2125905">
        <ele>37.1481</ele>
        <time>2013-10-12T11:18:52Z</time>
      </trkpt>
      <trkpt lat="60.4912759" lon="22.2127124">
        <ele>36.6675</ele>
        <time>2013-10-12T11:18:58Z</time>
      </trkpt>
      <trkpt lat="60.4913617" lon="22.2128854">
        <ele>34.7449</ele>
        <time>2013-10-12T11:19:06Z</time>
      </trkpt>
      <trkpt lat="60.4914401" lon="22.2130269">
        <ele>33.7834</ele>
        <time>2013-10-12T11:19:13Z</time>
      </trkpt>
      <trkpt lat="60.4915168" lon="22.2131036">
        <ele>34.2642</ele>
        <time>2013-10-12T11:19:19Z</time>
      </trkpt>
      <trkpt lat="60.4915997" lon="22.2130715">
        <ele>35.2255</ele>
        <time>2013-10-12T11:19:24Z</time>
      </trkpt>
      <trkpt lat="60.4916816" lon="22.2130129">
        <ele>36.1868</ele>
        <time>2013-10-12T11:19:30Z</time>
      </trkpt>
      <trkpt lat="60.4917152" lon="22.2129549">
        <ele>37.6287</ele>
        <time>2013-10-12T11:19:33Z</time>
      </trkpt>
      <trkpt lat="60.4918012" lon="22.2128642">
        <ele>39.5513</ele>
        <time>2013-10-12T11:19:40Z</time>
      </trkpt>
      <trkpt lat="60.4918721" lon="22.2127938">
        <ele>40.5128</ele>
        <time>2013-10-12T11:19:46Z</time>
      </trkpt>
      <trkpt lat="60.4919707" lon="22.2126529">
        <ele>39.0707</ele>
        <time>2013-10-12T11:19:54Z</time>
      </trkpt>
      <trkpt lat="60.4920528" lon="22.2125912">
        <ele>36.1868</ele>
        <time>2013-10-12T11:19:59Z</time>
      </trkpt>
      <trkpt lat="60.4921224" lon="22.2124928">
        <ele>32.8223</ele>
        <time>2013-10-12T11:20:05Z</time>
      </trkpt>
      <trkpt lat="60.4921748" lon="22.2124928">
        <ele>31.3801</ele>
        <time>2013-10-12T11:20:09Z</time>
      </trkpt>
      <trkpt lat="60.4922041" lon="22.2124685">
        <ele>31.3801</ele>
        <time>2013-10-12T11:20:11Z</time>
      </trkpt>
      <trkpt lat="60.4922425" lon="22.2124914">
        <ele>31.8607</ele>
        <time>2013-10-12T11:20:15Z</time>
      </trkpt>
      <trkpt lat="60.4923628" lon="22.2125892">
        <ele>33.3029</ele>
        <time>2013-10-12T11:20:23Z</time>
      </trkpt>
      <trkpt lat="60.4924124" lon="22.2126666">
        <ele>30.4188</ele>
        <time>2013-10-12T11:20:30Z</time>
      </trkpt>
      <trkpt lat="60.4924849" lon="22.2127535">
        <ele>28.9769</ele>
        <time>2013-10-12T11:20:35Z</time>
      </trkpt>
      <trkpt lat="60.4925325" lon="22.2127922">
        <ele>28.0155</ele>
        <time>2013-10-12T11:20:39Z</time>
      </trkpt>
      <trkpt lat="60.4926062" lon="22.2128187">
        <ele>28.0155</ele>
        <time>2013-10-12T11:20:44Z</time>
      </trkpt>
      <trkpt lat="60.492631" lon="22.2128226">
        <ele>28.0155</ele>
        <time>2013-10-12T11:20:46Z</time>
      </trkpt>
      <trkpt lat="60.4926673" lon="22.2128257">
        <ele>26.0929</ele>
        <time>2013-10-12T11:20:49Z</time>
      </trkpt>
      <trkpt lat="60.4927293" lon="22.2128175">
        <ele>25.6123</ele>
        <time>2013-10-12T11:20:53Z</time>
      </trkpt>
      <trkpt lat="60.4928507" lon="22.2127395">
        <ele>28.4962</ele>
        <time>2013-10-12T11:21:00Z</time>
      </trkpt>
      <trkpt lat="60.4929482" lon="22.2126741">
        <ele>30.4188</ele>
        <time>2013-10-12T11:21:05Z</time>
      </trkpt>
      <trkpt lat="60.4930139" lon="22.2126037">
        <ele>32.8223</ele>
        <time>2013-10-12T11:21:09Z</time>
      </trkpt>
      <trkpt lat="60.4930801" lon="22.2125706">
        <ele>32.8223</ele>
        <time>2013-10-12T11:21:14Z</time>
      </trkpt>
      <trkpt lat="60.4931698" lon="22.2125206">
        <ele>34.2642</ele>
        <time>2013-10-12T11:21:21Z</time>
      </trkpt>
      <trkpt lat="60.4932517" lon="22.2124989">
        <ele>33.7834</ele>
        <time>2013-10-12T11:21:26Z</time>
      </trkpt>
      <trkpt lat="60.4932868" lon="22.2124799">
        <ele>32.3416</ele>
        <time>2013-10-12T11:21:31Z</time>
      </trkpt>
      <trkpt lat="60.4933148" lon="22.2124068">
        <ele>26.0929</ele>
        <time>2013-10-12T11:21:37Z</time>
      </trkpt>
      <trkpt lat="60.4933759" lon="22.2124508">
        <ele>25.1317</ele>
        <time>2013-10-12T11:21:40Z</time>
      </trkpt>
      <trkpt lat="60.49351" lon="22.2121093">
        <ele>21.767</ele>
        <time>2013-10-12T11:21:46Z</time>
      </trkpt>
      <trkpt lat="60.4935622" lon="22.2121445">
        <ele>14.557</ele>
        <time>2013-10-12T11:21:50Z</time>
      </trkpt>
      <trkpt lat="60.4936085" lon="22.2122131">
        <ele>19.8444</ele>
        <time>2013-10-12T11:21:53Z</time>
      </trkpt>
      <trkpt lat="60.4937334" lon="22.2122964">
        <ele>36.1868</ele>
        <time>2013-10-12T11:24:46Z</time>
      </trkpt>
      <trkpt lat="60.4937396" lon="22.2122906">
        <ele>36.1868</ele>
        <time>2013-10-12T11:24:47Z</time>
      </trkpt>
      <trkpt lat="60.4937876" lon="22.2122504">
        <ele>35.7061</ele>
        <time>2013-10-12T11:24:52Z</time>
      </trkpt>
      <trkpt lat="60.4938456" lon="22.2122334">
        <ele>27.5349</ele>
        <time>2013-10-12T11:24:58Z</time>
      </trkpt>
      <trkpt lat="60.4939007" lon="22.212228">
        <ele>22.2476</ele>
        <time>2013-10-12T11:25:04Z</time>
      </trkpt>
      <trkpt lat="60.4939514" lon="22.2123006">
        <ele>23.6896</ele>
        <time>2013-10-12T11:25:10Z</time>
      </trkpt>
      <trkpt lat="60.494011" lon="22.2122616">
        <ele>28.9769</ele>
        <time>2013-10-12T11:25:15Z</time>
      </trkpt>
      <trkpt lat="60.4940835" lon="22.2121777">
        <ele>33.3029</ele>
        <time>2013-10-12T11:25:21Z</time>
      </trkpt>
      <trkpt lat="60.4941409" lon="22.2121343">
        <ele>35.2255</ele>
        <time>2013-10-12T11:25:26Z</time>
      </trkpt>
      <trkpt lat="60.4942007" lon="22.2121089">
        <ele>34.7449</ele>
        <time>2013-10-12T11:25:31Z</time>
      </trkpt>
      <trkpt lat="60.4943011" lon="22.2120634">
        <ele>32.3416</ele>
        <time>2013-10-12T11:25:39Z</time>
      </trkpt>
      <trkpt lat="60.4943771" lon="22.2120172">
        <ele>30.8995</ele>
        <time>2013-10-12T11:25:45Z</time>
      </trkpt>
      <trkpt lat="60.4944565" lon="22.2119815">
        <ele>30.4188</ele>
        <time>2013-10-12T11:25:51Z</time>
      </trkpt>
      <trkpt lat="60.4945369" lon="22.212026">
        <ele>34.2642</ele>
        <time>2013-10-12T11:25:57Z</time>
      </trkpt>
      <trkpt lat="60.4946161" lon="22.2120261">
        <ele>34.2642</ele>
        <time>2013-10-12T11:26:02Z</time>
      </trkpt>
      <trkpt lat="60.494714" lon="22.2120171">
        <ele>30.4188</ele>
        <time>2013-10-12T11:26:09Z</time>
      </trkpt>
      <trkpt lat="60.4948104" lon="22.2120248">
        <ele>25.1317</ele>
        <time>2013-10-12T11:26:17Z</time>
      </trkpt>
      <trkpt lat="60.4948397" lon="22.2120612">
        <ele>24.1703</ele>
        <time>2013-10-12T11:26:20Z</time>
      </trkpt>
      <trkpt lat="60.4948828" lon="22.2120238">
        <ele>25.1317</ele>
        <time>2013-10-12T11:26:24Z</time>
      </trkpt>
      <trkpt lat="60.4949085" lon="22.2119977">
        <ele>28.0155</ele>
        <time>2013-10-12T11:26:26Z</time>
      </trkpt>
      <trkpt lat="60.4949756" lon="22.2120344">
        <ele>43.8773</ele>
        <time>2013-10-12T11:27:42Z</time>
      </trkpt>
      <trkpt lat="60.4949699" lon="22.2120416">
        <ele>43.8773</ele>
        <time>2013-10-12T11:27:43Z</time>
      </trkpt>
      <trkpt lat="60.4949568" lon="22.2120692">
        <ele>42.916</ele>
        <time>2013-10-12T11:27:46Z</time>
      </trkpt>
      <trkpt lat="60.494947" lon="22.2121012">
        <ele>43.3966</ele>
        <time>2013-10-12T11:27:48Z</time>
      </trkpt>
      <trkpt lat="60.4949108" lon="22.212196">
        <ele>41.9547</ele>
        <time>2013-10-12T11:27:52Z</time>
      </trkpt>
      <trkpt lat="60.4948285" lon="22.2123396">
        <ele>41.474</ele>
        <time>2013-10-12T11:28:00Z</time>
      </trkpt>
      <trkpt lat="60.4947545" lon="22.2123598">
        <ele>38.5901</ele>
        <time>2013-10-12T11:28:05Z</time>
      </trkpt>
      <trkpt lat="60.4947574" lon="22.212483">
        <ele>38.5901</ele>
        <time>2013-10-12T11:28:11Z</time>
      </trkpt>
      <trkpt lat="60.4947778" lon="22.2125358">
        <ele>38.1094</ele>
        <time>2013-10-12T11:28:13Z</time>
      </trkpt>
      <trkpt lat="60.4948098" lon="22.2127052">
        <ele>36.1868</ele>
        <time>2013-10-12T11:28:18Z</time>
      </trkpt>
      <trkpt lat="60.4948529" lon="22.2129021">
        <ele>33.3029</ele>
        <time>2013-10-12T11:28:24Z</time>
      </trkpt>
      <trkpt lat="60.4948705" lon="22.2130208">
        <ele>31.8607</ele>
        <time>2013-10-12T11:28:28Z</time>
      </trkpt>
      <trkpt lat="60.4948818" lon="22.213202">
        <ele>30.4188</ele>
        <time>2013-10-12T11:28:33Z</time>
      </trkpt>
      <trkpt lat="60.4948446" lon="22.2133465">
        <ele>32.3416</ele>
        <time>2013-10-12T11:28:38Z</time>
      </trkpt>
      <trkpt lat="60.4948106" lon="22.2135397">
        <ele>33.7834</ele>
        <time>2013-10-12T11:28:45Z</time>
      </trkpt>
      <trkpt lat="60.4948174" lon="22.2136952">
        <ele>34.7449</ele>
        <time>2013-10-12T11:28:50Z</time>
      </trkpt>
      <trkpt lat="60.4948627" lon="22.2137946">
        <ele>33.7834</ele>
        <time>2013-10-12T11:28:54Z</time>
      </trkpt>
      <trkpt lat="60.4949143" lon="22.2138281">
        <ele>32.8223</ele>
        <time>2013-10-12T11:28:58Z</time>
      </trkpt>
      <trkpt lat="60.4949862" lon="22.2138117">
        <ele>32.3416</ele>
        <time>2013-10-12T11:29:03Z</time>
      </trkpt>
      <trkpt lat="60.4950604" lon="22.2137045">
        <ele>32.3416</ele>
        <time>2013-10-12T11:29:09Z</time>
      </trkpt>
      <trkpt lat="60.4951181" lon="22.2136091">
        <ele>32.3416</ele>
        <time>2013-10-12T11:29:15Z</time>
      </trkpt>
      <trkpt lat="60.4951836" lon="22.2135091">
        <ele>35.2255</ele>
        <time>2013-10-12T11:29:21Z</time>
      </trkpt>
      <trkpt lat="60.4952538" lon="22.2133838">
        <ele>36.6675</ele>
        <time>2013-10-12T11:29:27Z</time>
      </trkpt>
      <trkpt lat="60.4953055" lon="22.2132653">
        <ele>38.5901</ele>
        <time>2013-10-12T11:29:32Z</time>
      </trkpt>
      <trkpt lat="60.495365" lon="22.2131315">
        <ele>39.0707</ele>
        <time>2013-10-12T11:29:38Z</time>
      </trkpt>
      <trkpt lat="60.4954045" lon="22.213018">
        <ele>38.1094</ele>
        <time>2013-10-12T11:29:43Z</time>
      </trkpt>
      <trkpt lat="60.4954243" lon="22.212902">
        <ele>37.1481</ele>
        <time>2013-10-12T11:29:49Z</time>
      </trkpt>
      <trkpt lat="60.4954162" lon="22.2128554">
        <ele>37.6287</ele>
        <time>2013-10-12T11:29:52Z</time>
      </trkpt>
      <trkpt lat="60.4954239" lon="22.2128238">
        <ele>40.9934</ele>
        <time>2013-10-12T11:29:54Z</time>
      </trkpt>
      <trkpt lat="60.4954726" lon="22.2126726">
        <ele>43.3966</ele>
        <time>2013-10-12T11:30:00Z</time>
      </trkpt>
      <trkpt lat="60.4955029" lon="22.2125768">
        <ele>44.8386</ele>
        <time>2013-10-12T11:30:04Z</time>
      </trkpt>
      <trkpt lat="60.4955107" lon="22.2125291">
        <ele>44.358</ele>
        <time>2013-10-12T11:30:06Z</time>
      </trkpt>
      <trkpt lat="60.4955365" lon="22.2123207">
        <ele>51.0872</ele>
        <time>2013-10-12T11:30:13Z</time>
      </trkpt>
      <trkpt lat="60.4955546" lon="22.2122295">
        <ele>50.6066</ele>
        <time>2013-10-12T11:30:16Z</time>
      </trkpt>
      <trkpt lat="60.4955867" lon="22.2120178">
        <ele>50.126</ele>
        <time>2013-10-12T11:30:23Z</time>
      </trkpt>
      <trkpt lat="60.4956061" lon="22.2119332">
        <ele>51.5679</ele>
        <time>2013-10-12T11:30:26Z</time>
      </trkpt>
      <trkpt lat="60.4956499" lon="22.2118443">
        <ele>51.0872</ele>
        <time>2013-10-12T11:30:31Z</time>
      </trkpt>
      <trkpt lat="60.4957197" lon="22.2116341">
        <ele>48.2034</ele>
        <time>2013-10-12T11:30:39Z</time>
      </trkpt>
      <trkpt lat="60.4957332" lon="22.2115728">
        <ele>48.2034</ele>
        <time>2013-10-12T11:30:41Z</time>
      </trkpt>
      <trkpt lat="60.4957474" lon="22.2114873">
        <ele>48.684</ele>
        <time>2013-10-12T11:30:44Z</time>
      </trkpt>
      <trkpt lat="60.4957505" lon="22.2113232">
        <ele>46.7612</ele>
        <time>2013-10-12T11:30:50Z</time>
      </trkpt>
      <trkpt lat="60.4958007" lon="22.2112594">
        <ele>43.3966</ele>
        <time>2013-10-12T11:30:55Z</time>
      </trkpt>
      <trkpt lat="60.4958463" lon="22.2112921">
        <ele>39.5513</ele>
        <time>2013-10-12T11:30:58Z</time>
      </trkpt>
      <trkpt lat="60.4959395" lon="22.2113354">
        <ele>33.3029</ele>
        <time>2013-10-12T11:31:05Z</time>
      </trkpt>
      <trkpt lat="60.4960283" lon="22.2112688">
        <ele>32.8223</ele>
        <time>2013-10-12T11:31:12Z</time>
      </trkpt>
      <trkpt lat="60.4960686" lon="22.2112478">
        <ele>33.3029</ele>
        <time>2013-10-12T11:31:15Z</time>
      </trkpt>
      <trkpt lat="60.4961141" lon="22.211193">
        <ele>31.3801</ele>
        <time>2013-10-12T11:31:19Z</time>
      </trkpt>
      <trkpt lat="60.4961933" lon="22.2111303">
        <ele>31.8607</ele>
        <time>2013-10-12T11:31:26Z</time>
      </trkpt>
      <trkpt lat="60.4962673" lon="22.2110755">
        <ele>29.4575</ele>
        <time>2013-10-12T11:31:32Z</time>
      </trkpt>
      <trkpt lat="60.4963101" lon="22.2110696">
        <ele>28.0155</ele>
        <time>2013-10-12T11:31:35Z</time>
      </trkpt>
      <trkpt lat="60.4964011" lon="22.2110015">
        <ele>28.9769</ele>
        <time>2013-10-12T11:31:42Z</time>
      </trkpt>
      <trkpt lat="60.4965072" lon="22.2108567">
        <ele>31.3801</ele>
        <time>2013-10-12T11:31:49Z</time>
      </trkpt>
      <trkpt lat="60.4965409" lon="22.2107792">
        <ele>34.7449</ele>
        <time>2013-10-12T11:31:52Z</time>
      </trkpt>
      <trkpt lat="60.4966105" lon="22.2106079">
        <ele>39.0707</ele>
        <time>2013-10-12T11:31:59Z</time>
      </trkpt>
      <trkpt lat="60.4966358" lon="22.2105419">
        <ele>39.0707</ele>
        <time>2013-10-12T11:32:02Z</time>
      </trkpt>
      <trkpt lat="60.4966523" lon="22.2104895">
        <ele>39.0707</ele>
        <time>2013-10-12T11:32:04Z</time>
      </trkpt>
      <trkpt lat="60.4966906" lon="22.2103643">
        <ele>43.3966</ele>
        <time>2013-10-12T11:32:09Z</time>
      </trkpt>
      <trkpt lat="60.49674" lon="22.2102722">
        <ele>47.7225</ele>
        <time>2013-10-12T11:32:14Z</time>
      </trkpt>
      <trkpt lat="60.4968077" lon="22.2101618">
        <ele>49.1646</ele>
        <time>2013-10-12T11:32:20Z</time>
      </trkpt>
      <trkpt lat="60.4968135" lon="22.2101368">
        <ele>50.6066</ele>
        <time>2013-10-12T11:32:21Z</time>
      </trkpt>
      <trkpt lat="60.4969066" lon="22.2099655">
        <ele>53.0098</ele>
        <time>2013-10-12T11:32:29Z</time>
      </trkpt>
      <trkpt lat="60.4969314" lon="22.2099213">
        <ele>53.4905</ele>
        <time>2013-10-12T11:32:31Z</time>
      </trkpt>
      <trkpt lat="60.4970093" lon="22.2097962">
        <ele>53.0098</ele>
        <time>2013-10-12T11:32:38Z</time>
      </trkpt>
      <trkpt lat="60.4970268" lon="22.209756">
        <ele>51.0872</ele>
        <time>2013-10-12T11:32:40Z</time>
      </trkpt>
      <trkpt lat="60.4970995" lon="22.2096277">
        <ele>47.7225</ele>
        <time>2013-10-12T11:32:46Z</time>
      </trkpt>
      <trkpt lat="60.4971121" lon="22.2096076">
        <ele>47.7225</ele>
        <time>2013-10-12T11:32:47Z</time>
      </trkpt>
      <trkpt lat="60.4971362" lon="22.2095759">
        <ele>47.2418</ele>
        <time>2013-10-12T11:32:49Z</time>
      </trkpt>
      <trkpt lat="60.4972123" lon="22.2094889">
        <ele>43.8773</ele>
        <time>2013-10-12T11:32:56Z</time>
      </trkpt>
      <trkpt lat="60.4972288" lon="22.2094805">
        <ele>43.3966</ele>
        <time>2013-10-12T11:32:57Z</time>
      </trkpt>
      <trkpt lat="60.497331" lon="22.2094494">
        <ele>39.0707</ele>
        <time>2013-10-12T11:33:04Z</time>
      </trkpt>
      <trkpt lat="60.4974247" lon="22.2094406">
        <ele>44.358</ele>
        <time>2013-10-12T11:33:10Z</time>
      </trkpt>
      <trkpt lat="60.4975122" lon="22.2094964">
        <ele>43.3966</ele>
        <time>2013-10-12T11:33:16Z</time>
      </trkpt>
      <trkpt lat="60.4975971" lon="22.2095748">
        <ele>39.5513</ele>
        <time>2013-10-12T11:33:22Z</time>
      </trkpt>
      <trkpt lat="60.4976555" lon="22.2095879">
        <ele>37.1481</ele>
        <time>2013-10-12T11:33:27Z</time>
      </trkpt>
      <trkpt lat="60.4977588" lon="22.2095457">
        <ele>37.6287</ele>
        <time>2013-10-12T11:33:35Z</time>
      </trkpt>
      <trkpt lat="60.4978423" lon="22.2094659">
        <ele>32.3416</ele>
        <time>2013-10-12T11:33:42Z</time>
      </trkpt>
      <trkpt lat="60.4979369" lon="22.2094115">
        <ele>34.2642</ele>
        <time>2013-10-12T11:33:49Z</time>
      </trkpt>
      <trkpt lat="60.4980317" lon="22.2093588">
        <ele>36.1868</ele>
        <time>2013-10-12T11:33:56Z</time>
      </trkpt>
      <trkpt lat="60.4980623" lon="22.2093524">
        <ele>36.1868</ele>
        <time>2013-10-12T11:33:58Z</time>
      </trkpt>
      <trkpt lat="60.4981478" lon="22.2093317">
        <ele>30.8995</ele>
        <time>2013-10-12T11:34:04Z</time>
      </trkpt>
      <trkpt lat="60.49818" lon="22.209325">
        <ele>29.4575</ele>
        <time>2013-10-12T11:34:06Z</time>
      </trkpt>
      <trkpt lat="60.4982198" lon="22.209306">
        <ele>28.4962</ele>
        <time>2013-10-12T11:34:09Z</time>
      </trkpt>
      <trkpt lat="60.4982924" lon="22.2092728">
        <ele>34.2642</ele>
        <time>2013-10-12T11:34:15Z</time>
      </trkpt>
      <trkpt lat="60.4983571" lon="22.2092224">
        <ele>46.7612</ele>
        <time>2013-10-12T11:34:24Z</time>
      </trkpt>
      <trkpt lat="60.4984417" lon="22.2092015">
        <ele>46.7612</ele>
        <time>2013-10-12T11:34:29Z</time>
      </trkpt>
      <trkpt lat="60.4985618" lon="22.2091893">
        <ele>40.0321</ele>
        <time>2013-10-12T11:34:37Z</time>
      </trkpt>
      <trkpt lat="60.4986165" lon="22.2091687">
        <ele>39.5513</ele>
        <time>2013-10-12T11:34:41Z</time>
      </trkpt>
      <trkpt lat="60.4986332" lon="22.2091437">
        <ele>36.6675</ele>
        <time>2013-10-12T11:34:43Z</time>
      </trkpt>
      <trkpt lat="60.498717" lon="22.2090864">
        <ele>28.9769</ele>
        <time>2013-10-12T11:34:51Z</time>
      </trkpt>
      <trkpt lat="60.4987409" lon="22.2090599">
        <ele>27.0543</ele>
        <time>2013-10-12T11:34:53Z</time>
      </trkpt>
      <trkpt lat="60.4987978" lon="22.2089884">
        <ele>22.7283</ele>
        <time>2013-10-12T11:34:59Z</time>
      </trkpt>
      <trkpt lat="60.4988591" lon="22.2088943">
        <ele>18.4023</ele>
        <time>2013-10-12T11:35:05Z</time>
      </trkpt>
      <trkpt lat="60.498942" lon="22.208832">
        <ele>18.4023</ele>
        <time>2013-10-12T11:35:12Z</time>
      </trkpt>
      <trkpt lat="60.4989527" lon="22.2088314">
        <ele>18.4023</ele>
        <time>2013-10-12T11:35:13Z</time>
      </trkpt>
      <trkpt lat="60.4990735" lon="22.2088579">
        <ele>55.8938</ele>
        <time>2013-10-12T11:35:55Z</time>
      </trkpt>
      <trkpt lat="60.4990728" lon="22.2088767">
        <ele>55.4131</ele>
        <time>2013-10-12T11:35:57Z</time>
      </trkpt>
      <trkpt lat="60.4990944" lon="22.2089315">
        <ele>44.358</ele>
        <time>2013-10-12T11:36:24Z</time>
      </trkpt>
      <trkpt lat="60.4990885" lon="22.2089344">
        <ele>43.8773</ele>
        <time>2013-10-12T11:36:25Z</time>
      </trkpt>
      <trkpt lat="60.4990807" lon="22.2089838">
        <ele>42.916</ele>
        <time>2013-10-12T11:36:27Z</time>
      </trkpt>
      <trkpt lat="60.4990549" lon="22.2090981">
        <ele>41.9547</ele>
        <time>2013-10-12T11:36:31Z</time>
      </trkpt>
      <trkpt lat="60.4990202" lon="22.209237">
        <ele>40.9934</ele>
        <time>2013-10-12T11:36:37Z</time>
      </trkpt>
      <trkpt lat="60.4989767" lon="22.2093532">
        <ele>41.474</ele>
        <time>2013-10-12T11:36:41Z</time>
      </trkpt>
      <trkpt lat="60.4989498" lon="22.2096119">
        <ele>40.9934</ele>
        <time>2013-10-12T11:36:50Z</time>
      </trkpt>
      <trkpt lat="60.4989751" lon="22.2097235">
        <ele>38.5901</ele>
        <time>2013-10-12T11:36:55Z</time>
      </trkpt>
      <trkpt lat="60.4990269" lon="22.2098204">
        <ele>35.2255</ele>
        <time>2013-10-12T11:37:01Z</time>
      </trkpt>
      <trkpt lat="60.4990787" lon="22.2099182">
        <ele>30.8995</ele>
        <time>2013-10-12T11:37:07Z</time>
      </trkpt>
      <trkpt lat="60.4991819" lon="22.2101223">
        <ele>25.6123</ele>
        <time>2013-10-12T11:37:17Z</time>
      </trkpt>
      <trkpt lat="60.4992461" lon="22.21026">
        <ele>25.1317</ele>
        <time>2013-10-12T11:37:25Z</time>
      </trkpt>
      <trkpt lat="60.4992812" lon="22.2103317">
        <ele>28.9769</ele>
        <time>2013-10-12T11:37:30Z</time>
      </trkpt>
      <trkpt lat="60.4992973" lon="22.21037">
        <ele>30.8995</ele>
        <time>2013-10-12T11:37:36Z</time>
      </trkpt>
      <trkpt lat="60.4993218" lon="22.2104565">
        <ele>32.3416</ele>
        <time>2013-10-12T11:37:47Z</time>
      </trkpt>
      <trkpt lat="60.4993869" lon="22.2106643">
        <ele>31.8607</ele>
        <time>2013-10-12T11:37:56Z</time>
      </trkpt>
      <trkpt lat="60.4994558" lon="22.210905">
        <ele>29.9381</ele>
        <time>2013-10-12T11:38:06Z</time>
      </trkpt>
      <trkpt lat="60.4994703" lon="22.2109507">
        <ele>29.9381</ele>
        <time>2013-10-12T11:38:11Z</time>
      </trkpt>
      <trkpt lat="60.4995295" lon="22.2111368">
        <ele>28.4962</ele>
        <time>2013-10-12T11:38:18Z</time>
      </trkpt>
      <trkpt lat="60.4995656" lon="22.2112575">
        <ele>26.5736</ele>
        <time>2013-10-12T11:38:23Z</time>
      </trkpt>
      <trkpt lat="60.4995869" lon="22.2113578">
        <ele>27.0543</ele>
        <time>2013-10-12T11:38:27Z</time>
      </trkpt>
      <trkpt lat="60.4996335" lon="22.211526">
        <ele>27.5349</ele>
        <time>2013-10-12T11:38:33Z</time>
      </trkpt>
      <trkpt lat="60.4996983" lon="22.2116946">
        <ele>30.4188</ele>
        <time>2013-10-12T11:38:39Z</time>
      </trkpt>
      <trkpt lat="60.4997045" lon="22.2117256">
        <ele>29.9381</ele>
        <time>2013-10-12T11:38:40Z</time>
      </trkpt>
      <trkpt lat="60.4997138" lon="22.2117909">
        <ele>29.9381</ele>
        <time>2013-10-12T11:38:42Z</time>
      </trkpt>
      <trkpt lat="60.4997315" lon="22.2119385">
        <ele>29.9381</ele>
        <time>2013-10-12T11:38:47Z</time>
      </trkpt>
      <trkpt lat="60.4997495" lon="22.2120427">
        <ele>30.4188</ele>
        <time>2013-10-12T11:38:50Z</time>
      </trkpt>
      <trkpt lat="60.4997861" lon="22.2122854">
        <ele>28.4962</ele>
        <time>2013-10-12T11:38:58Z</time>
      </trkpt>
      <trkpt lat="60.4998049" lon="22.2124869">
        <ele>27.0543</ele>
        <time>2013-10-12T11:39:05Z</time>
      </trkpt>
      <trkpt lat="60.499825" lon="22.212655">
        <ele>26.0929</ele>
        <time>2013-10-12T11:39:11Z</time>
      </trkpt>
      <trkpt lat="60.4998453" lon="22.2128006">
        <ele>26.0929</ele>
        <time>2013-10-12T11:39:16Z</time>
      </trkpt>
      <trkpt lat="60.4998547" lon="22.2128565">
        <ele>25.6123</ele>
        <time>2013-10-12T11:39:18Z</time>
      </trkpt>
      <trkpt lat="60.4999241" lon="22.2130304">
        <ele>22.7283</ele>
        <time>2013-10-12T11:39:25Z</time>
      </trkpt>
      <trkpt lat="60.4999775" lon="22.2131548">
        <ele>22.7283</ele>
        <time>2013-10-12T11:39:31Z</time>
      </trkpt>
      <trkpt lat="60.5000641" lon="22.2132143">
        <ele>26.5736</ele>
        <time>2013-10-12T11:39:37Z</time>
      </trkpt>
      <trkpt lat="60.500126" lon="22.2132598">
        <ele>25.6123</ele>
        <time>2013-10-12T11:39:43Z</time>
      </trkpt>
      <trkpt lat="60.5001891" lon="22.2132905">
        <ele>25.1317</ele>
        <time>2013-10-12T11:39:48Z</time>
      </trkpt>
      <trkpt lat="60.5002471" lon="22.2133706">
        <ele>24.1703</ele>
        <time>2013-10-12T11:39:53Z</time>
      </trkpt>
      <trkpt lat="60.5002945" lon="22.2132955">
        <ele>26.5736</ele>
        <time>2013-10-12T11:39:58Z</time>
      </trkpt>
      <trkpt lat="60.5003013" lon="22.2132791">
        <ele>26.5736</ele>
        <time>2013-10-12T11:39:59Z</time>
      </trkpt>
      <trkpt lat="60.5003454" lon="22.2131988">
        <ele>30.4188</ele>
        <time>2013-10-12T11:40:04Z</time>
      </trkpt>
      <trkpt lat="60.500382" lon="22.2131614">
        <ele>29.4575</ele>
        <time>2013-10-12T11:40:07Z</time>
      </trkpt>
      <trkpt lat="60.5003944" lon="22.2131406">
        <ele>29.9381</ele>
        <time>2013-10-12T11:40:08Z</time>
      </trkpt>
      <trkpt lat="60.5004547" lon="22.2131968">
        <ele>41.9547</ele>
        <time>2013-10-12T11:41:42Z</time>
      </trkpt>
      <trkpt lat="60.5004494" lon="22.213201">
        <ele>41.474</ele>
        <time>2013-10-12T11:41:43Z</time>
      </trkpt>
      <trkpt lat="60.5004381" lon="22.213214">
        <ele>40.9934</ele>
        <time>2013-10-12T11:41:44Z</time>
      </trkpt>
      <trkpt lat="60.5003845" lon="22.2132259">
        <ele>39.0707</ele>
        <time>2013-10-12T11:41:47Z</time>
      </trkpt>
      <trkpt lat="60.5003448" lon="22.2132451">
        <ele>38.5901</ele>
        <time>2013-10-12T11:41:50Z</time>
      </trkpt>
      <trkpt lat="60.5003173" lon="22.2133944">
        <ele>37.1481</ele>
        <time>2013-10-12T11:41:56Z</time>
      </trkpt>
      <trkpt lat="60.5004126" lon="22.2135003">
        <ele>34.7449</ele>
        <time>2013-10-12T11:42:04Z</time>
      </trkpt>
      <trkpt lat="60.5004833" lon="22.2135273">
        <ele>33.3029</ele>
        <time>2013-10-12T11:42:09Z</time>
      </trkpt>
      <trkpt lat="60.5005467" lon="22.2135636">
        <ele>32.8223</ele>
        <time>2013-10-12T11:42:15Z</time>
      </trkpt>
      <trkpt lat="60.5006344" lon="22.2136199">
        <ele>29.9381</ele>
        <time>2013-10-12T11:42:21Z</time>
      </trkpt>
      <trkpt lat="60.5006824" lon="22.2136516">
        <ele>28.0155</ele>
        <time>2013-10-12T11:42:25Z</time>
      </trkpt>
      <trkpt lat="60.5007421" lon="22.2136998">
        <ele>28.4962</ele>
        <time>2013-10-12T11:42:29Z</time>
      </trkpt>
      <trkpt lat="60.5008227" lon="22.2138746">
        <ele>29.4575</ele>
        <time>2013-10-12T11:42:37Z</time>
      </trkpt>
      <trkpt lat="60.5008807" lon="22.214024">
        <ele>32.3416</ele>
        <time>2013-10-12T11:42:43Z</time>
      </trkpt>
      <trkpt lat="60.5008911" lon="22.2140513">
        <ele>31.3801</ele>
        <time>2013-10-12T11:42:44Z</time>
      </trkpt>
      <trkpt lat="60.5009596" lon="22.2141728">
        <ele>31.3801</ele>
        <time>2013-10-12T11:42:51Z</time>
      </trkpt>
      <trkpt lat="60.5009996" lon="22.2142773">
        <ele>29.9381</ele>
        <time>2013-10-12T11:42:55Z</time>
      </trkpt>
      <trkpt lat="60.501035" lon="22.2144737">
        <ele>29.4575</ele>
        <time>2013-10-12T11:43:02Z</time>
      </trkpt>
      <trkpt lat="60.5011097" lon="22.2145911">
        <ele>30.4188</ele>
        <time>2013-10-12T11:43:08Z</time>
      </trkpt>
      <trkpt lat="60.5011347" lon="22.2146058">
        <ele>31.3801</ele>
        <time>2013-10-12T11:43:10Z</time>
      </trkpt>
      <trkpt lat="60.5011886" lon="22.2145979">
        <ele>31.3801</ele>
        <time>2013-10-12T11:43:14Z</time>
      </trkpt>
      <trkpt lat="60.501244" lon="22.2146042">
        <ele>29.4575</ele>
        <time>2013-10-12T11:43:19Z</time>
      </trkpt>
      <trkpt lat="60.5013014" lon="22.2146335">
        <ele>28.4962</ele>
        <time>2013-10-12T11:43:23Z</time>
      </trkpt>
      <trkpt lat="60.5014038" lon="22.214657">
        <ele>29.9381</ele>
        <time>2013-10-12T11:43:30Z</time>
      </trkpt>
      <trkpt lat="60.501417" lon="22.2146644">
        <ele>29.9381</ele>
        <time>2013-10-12T11:43:31Z</time>
      </trkpt>
      <trkpt lat="60.5015139" lon="22.2146901">
        <ele>29.4575</ele>
        <time>2013-10-12T11:43:37Z</time>
      </trkpt>
      <trkpt lat="60.5015874" lon="22.2147025">
        <ele>27.0543</ele>
        <time>2013-10-12T11:43:43Z</time>
      </trkpt>
      <trkpt lat="60.5016356" lon="22.2146836">
        <ele>28.0155</ele>
        <time>2013-10-12T11:43:46Z</time>
      </trkpt>
      <trkpt lat="60.5016965" lon="22.2146529">
        <ele>28.4962</ele>
        <time>2013-10-12T11:43:51Z</time>
      </trkpt>
      <trkpt lat="60.5017391" lon="22.2146261">
        <ele>28.4962</ele>
        <time>2013-10-12T11:43:54Z</time>
      </trkpt>
      <trkpt lat="60.5018017" lon="22.2146214">
        <ele>28.9769</ele>
        <time>2013-10-12T11:43:58Z</time>
      </trkpt>
      <trkpt lat="60.5018718" lon="22.2146468">
        <ele>27.5349</ele>
        <time>2013-10-12T11:44:04Z</time>
      </trkpt>
      <trkpt lat="60.5019208" lon="22.2147326">
        <ele>24.1703</ele>
        <time>2013-10-12T11:44:08Z</time>
      </trkpt>
      <trkpt lat="60.5019712" lon="22.2148446">
        <ele>24.1703</ele>
        <time>2013-10-12T11:44:13Z</time>
      </trkpt>
      <trkpt lat="60.5020511" lon="22.2150143">
        <ele>25.1317</ele>
        <time>2013-10-12T11:44:21Z</time>
      </trkpt>
      <trkpt lat="60.5020915" lon="22.2151031">
        <ele>23.6896</ele>
        <time>2013-10-12T11:44:25Z</time>
      </trkpt>
      <trkpt lat="60.5021686" lon="22.215227">
        <ele>21.2864</ele>
        <time>2013-10-12T11:44:31Z</time>
      </trkpt>
      <trkpt lat="60.5022406" lon="22.2153371">
        <ele>21.2864</ele>
        <time>2013-10-12T11:44:38Z</time>
      </trkpt>
      <trkpt lat="60.5023085" lon="22.2154382">
        <ele>17.4412</ele>
        <time>2013-10-12T11:44:44Z</time>
      </trkpt>
      <trkpt lat="60.5024054" lon="22.2155412">
        <ele>16.9604</ele>
        <time>2013-10-12T11:44:52Z</time>
      </trkpt>
      <trkpt lat="60.5024898" lon="22.2155818">
        <ele>15.5184</ele>
        <time>2013-10-12T11:44:57Z</time>
      </trkpt>
      <trkpt lat="60.502571" lon="22.2156072">
        <ele>18.8831</ele>
        <time>2013-10-12T11:45:03Z</time>
      </trkpt>
      <trkpt lat="60.5026381" lon="22.2155894">
        <ele>23.6896</ele>
        <time>2013-10-12T11:45:09Z</time>
      </trkpt>
      <trkpt lat="60.5027623" lon="22.2155986">
        <ele>24.651</ele>
        <time>2013-10-12T11:45:16Z</time>
      </trkpt>
      <trkpt lat="60.502774" lon="22.2155972">
        <ele>25.1317</ele>
        <time>2013-10-12T11:45:17Z</time>
      </trkpt>
      <trkpt lat="60.5028738" lon="22.2155836">
        <ele>25.6123</ele>
        <time>2013-10-12T11:45:24Z</time>
      </trkpt>
      <trkpt lat="60.5028872" lon="22.215576">
        <ele>27.0543</ele>
        <time>2013-10-12T11:45:25Z</time>
      </trkpt>
      <trkpt lat="60.5029442" lon="22.2155124">
        <ele>30.4188</ele>
        <time>2013-10-12T11:45:29Z</time>
      </trkpt>
      <trkpt lat="60.503042" lon="22.2154541">
        <ele>28.0155</ele>
        <time>2013-10-12T11:45:35Z</time>
      </trkpt>
      <trkpt lat="60.5031151" lon="22.2153605">
        <ele>28.4962</ele>
        <time>2013-10-12T11:45:40Z</time>
      </trkpt>
      <trkpt lat="60.5031863" lon="22.215274">
        <ele>30.4188</ele>
        <time>2013-10-12T11:45:45Z</time>
      </trkpt>
      <trkpt lat="60.5033088" lon="22.2151875">
        <ele>34.2642</ele>
        <time>2013-10-12T11:45:51Z</time>
      </trkpt>
      <trkpt lat="60.5033808" lon="22.2151345">
        <ele>36.6675</ele>
        <time>2013-10-12T11:45:55Z</time>
      </trkpt>
      <trkpt lat="60.5034522" lon="22.2150642">
        <ele>38.5901</ele>
        <time>2013-10-12T11:46:00Z</time>
      </trkpt>
      <trkpt lat="60.5034629" lon="22.215048">
        <ele>34.2642</ele>
        <time>2013-10-12T11:46:51Z</time>
      </trkpt>
      <trkpt lat="60.5034694" lon="22.2150471">
        <ele>33.7834</ele>
        <time>2013-10-12T11:46:52Z</time>
      </trkpt>
      <trkpt lat="60.5035181" lon="22.2150185">
        <ele>32.3416</ele>
        <time>2013-10-12T11:46:56Z</time>
      </trkpt>
      <trkpt lat="60.5035818" lon="22.2149576">
        <ele>32.3416</ele>
        <time>2013-10-12T11:47:01Z</time>
      </trkpt>
      <trkpt lat="60.5036569" lon="22.2148834">
        <ele>34.7449</ele>
        <time>2013-10-12T11:47:08Z</time>
      </trkpt>
      <trkpt lat="60.5037494" lon="22.2148509">
        <ele>34.7449</ele>
        <time>2013-10-12T11:47:15Z</time>
      </trkpt>
      <trkpt lat="60.5038054" lon="22.2147604">
        <ele>35.7061</ele>
        <time>2013-10-12T11:47:19Z</time>
      </trkpt>
      <trkpt lat="60.5038989" lon="22.214656">
        <ele>37.6287</ele>
        <time>2013-10-12T11:47:26Z</time>
      </trkpt>
      <trkpt lat="60.5039302" lon="22.2145974">
        <ele>37.6287</ele>
        <time>2013-10-12T11:47:29Z</time>
      </trkpt>
      <trkpt lat="60.5040195" lon="22.2144772">
        <ele>38.5901</ele>
        <time>2013-10-12T11:47:36Z</time>
      </trkpt>
      <trkpt lat="60.5040649" lon="22.2144264">
        <ele>39.5513</ele>
        <time>2013-10-12T11:47:40Z</time>
      </trkpt>
      <trkpt lat="60.5041418" lon="22.2142805">
        <ele>39.5513</ele>
        <time>2013-10-12T11:47:47Z</time>
      </trkpt>
      <trkpt lat="60.5041881" lon="22.2142077">
        <ele>40.0321</ele>
        <time>2013-10-12T11:47:51Z</time>
      </trkpt>
      <trkpt lat="60.5042723" lon="22.2141221">
        <ele>37.6287</ele>
        <time>2013-10-12T11:47:57Z</time>
      </trkpt>
      <trkpt lat="60.5043401" lon="22.2140541">
        <ele>36.1868</ele>
        <time>2013-10-12T11:48:02Z</time>
      </trkpt>
      <trkpt lat="60.5043882" lon="22.213981">
        <ele>36.6675</ele>
        <time>2013-10-12T11:48:08Z</time>
      </trkpt>
      <trkpt lat="60.5044188" lon="22.2139337">
        <ele>34.7449</ele>
        <time>2013-10-12T11:48:11Z</time>
      </trkpt>
      <trkpt lat="60.50442" lon="22.2137801">
        <ele>31.8607</ele>
        <time>2013-10-12T11:48:18Z</time>
      </trkpt>
      <trkpt lat="60.5044769" lon="22.2136443">
        <ele>33.3029</ele>
        <time>2013-10-12T11:48:23Z</time>
      </trkpt>
      <trkpt lat="60.5045192" lon="22.2135951">
        <ele>34.7449</ele>
        <time>2013-10-12T11:48:26Z</time>
      </trkpt>
      <trkpt lat="60.5045611" lon="22.2134884">
        <ele>35.2255</ele>
        <time>2013-10-12T11:48:31Z</time>
      </trkpt>
      <trkpt lat="60.5045865" lon="22.2134519">
        <ele>35.7061</ele>
        <time>2013-10-12T11:48:33Z</time>
      </trkpt>
      <trkpt lat="60.5046508" lon="22.2133449">
        <ele>37.6287</ele>
        <time>2013-10-12T11:48:39Z</time>
      </trkpt>
      <trkpt lat="60.5046648" lon="22.2133256">
        <ele>37.6287</ele>
        <time>2013-10-12T11:48:40Z</time>
      </trkpt>
      <trkpt lat="60.5047064" lon="22.2132284">
        <ele>38.5901</ele>
        <time>2013-10-12T11:48:45Z</time>
      </trkpt>
      <trkpt lat="60.5046602" lon="22.2130782">
        <ele>37.1481</ele>
        <time>2013-10-12T11:48:51Z</time>
      </trkpt>
      <trkpt lat="60.504636" lon="22.2130051">
        <ele>34.7449</ele>
        <time>2013-10-12T11:48:56Z</time>
      </trkpt>
      <trkpt lat="60.5046193" lon="22.2128901">
        <ele>32.8223</ele>
        <time>2013-10-12T11:49:01Z</time>
      </trkpt>
      <trkpt lat="60.5046359" lon="22.2127198">
        <ele>32.3416</ele>
        <time>2013-10-12T11:49:07Z</time>
      </trkpt>
      <trkpt lat="60.5046478" lon="22.2126495">
        <ele>32.8223</ele>
        <time>2013-10-12T11:49:10Z</time>
      </trkpt>
      <trkpt lat="60.5046332" lon="22.2124988">
        <ele>32.3416</ele>
        <time>2013-10-12T11:49:15Z</time>
      </trkpt>
      <trkpt lat="60.5046178" lon="22.2124209">
        <ele>31.3801</ele>
        <time>2013-10-12T11:49:18Z</time>
      </trkpt>
      <trkpt lat="60.5046316" lon="22.2122429">
        <ele>30.4188</ele>
        <time>2013-10-12T11:49:25Z</time>
      </trkpt>
      <trkpt lat="60.504657" lon="22.2121109">
        <ele>29.9381</ele>
        <time>2013-10-12T11:49:30Z</time>
      </trkpt>
      <trkpt lat="60.5046675" lon="22.2119975">
        <ele>29.9381</ele>
        <time>2013-10-12T11:49:35Z</time>
      </trkpt>
      <trkpt lat="60.5046588" lon="22.2118697">
        <ele>29.9381</ele>
        <time>2013-10-12T11:49:40Z</time>
      </trkpt>
      <trkpt lat="60.5046432" lon="22.2117708">
        <ele>30.4188</ele>
        <time>2013-10-12T11:49:43Z</time>
      </trkpt>
      <trkpt lat="60.5046364" lon="22.2116956">
        <ele>30.8995</ele>
        <time>2013-10-12T11:49:45Z</time>
      </trkpt>
      <trkpt lat="60.5046191" lon="22.2115529">
        <ele>31.8607</ele>
        <time>2013-10-12T11:49:50Z</time>
      </trkpt>
      <trkpt lat="60.5046212" lon="22.2114165">
        <ele>31.3801</ele>
        <time>2013-10-12T11:49:55Z</time>
      </trkpt>
      <trkpt lat="60.5046007" lon="22.2112905">
        <ele>32.8223</ele>
        <time>2013-10-12T11:50:00Z</time>
      </trkpt>
      <trkpt lat="60.5046023" lon="22.2112422">
        <ele>31.8607</ele>
        <time>2013-10-12T11:50:02Z</time>
      </trkpt>
      <trkpt lat="60.5046057" lon="22.2112066">
        <ele>30.4188</ele>
        <time>2013-10-12T11:50:04Z</time>
      </trkpt>
      <trkpt lat="60.5046036" lon="22.2111111">
        <ele>30.4188</ele>
        <time>2013-10-12T11:50:08Z</time>
      </trkpt>
      <trkpt lat="60.5045815" lon="22.2110326">
        <ele>29.9381</ele>
        <time>2013-10-12T11:50:11Z</time>
      </trkpt>
      <trkpt lat="60.5045818" lon="22.2110407">
        <ele>31.8607</ele>
        <time>2013-10-12T11:50:30Z</time>
      </trkpt>
      <trkpt lat="60.5045814" lon="22.2110223">
        <ele>31.3801</ele>
        <time>2013-10-12T11:50:31Z</time>
      </trkpt>
      <trkpt lat="60.5045482" lon="22.2108889">
        <ele>30.4188</ele>
        <time>2013-10-12T11:50:36Z</time>
      </trkpt>
      <trkpt lat="60.5045464" lon="22.2107611">
        <ele>29.4575</ele>
        <time>2013-10-12T11:50:42Z</time>
      </trkpt>
      <trkpt lat="60.5045593" lon="22.2107217">
        <ele>28.0155</ele>
        <time>2013-10-12T11:50:44Z</time>
      </trkpt>
      <trkpt lat="60.5045611" lon="22.2106186">
        <ele>26.5736</ele>
        <time>2013-10-12T11:50:48Z</time>
      </trkpt>
      <trkpt lat="60.5045809" lon="22.210441">
        <ele>28.0155</ele>
        <time>2013-10-12T11:50:55Z</time>
      </trkpt>
      <trkpt lat="60.5045971" lon="22.2103415">
        <ele>29.9381</ele>
        <time>2013-10-12T11:50:59Z</time>
      </trkpt>
      <trkpt lat="60.5046634" lon="22.2102018">
        <ele>30.4188</ele>
        <time>2013-10-12T11:51:06Z</time>
      </trkpt>
      <trkpt lat="60.5046909" lon="22.2100051">
        <ele>31.8607</ele>
        <time>2013-10-12T11:51:13Z</time>
      </trkpt>
      <trkpt lat="60.5046954" lon="22.2097494">
        <ele>31.3801</ele>
        <time>2013-10-12T11:51:21Z</time>
      </trkpt>
      <trkpt lat="60.5047072" lon="22.20969">
        <ele>32.3416</ele>
        <time>2013-10-12T11:51:24Z</time>
      </trkpt>
      <trkpt lat="60.5047566" lon="22.2095711">
        <ele>33.3029</ele>
        <time>2013-10-12T11:51:30Z</time>
      </trkpt>
      <trkpt lat="60.5048152" lon="22.2094392">
        <ele>35.2255</ele>
        <time>2013-10-12T11:51:36Z</time>
      </trkpt>
      <trkpt lat="60.5048818" lon="22.2092905">
        <ele>34.7449</ele>
        <time>2013-10-12T11:51:42Z</time>
      </trkpt>
      <trkpt lat="60.5048932" lon="22.2092768">
        <ele>34.7449</ele>
        <time>2013-10-12T11:51:43Z</time>
      </trkpt>
      <trkpt lat="60.5049467" lon="22.2091872">
        <ele>34.7449</ele>
        <time>2013-10-12T11:51:48Z</time>
      </trkpt>
      <trkpt lat="60.5049825" lon="22.2090847">
        <ele>34.7449</ele>
        <time>2013-10-12T11:51:53Z</time>
      </trkpt>
      <trkpt lat="60.5050395" lon="22.2089916">
        <ele>35.7061</ele>
        <time>2013-10-12T11:52:00Z</time>
      </trkpt>
      <trkpt lat="60.5050721" lon="22.2088533">
        <ele>35.2255</ele>
        <time>2013-10-12T11:52:06Z</time>
      </trkpt>
      <trkpt lat="60.5050669" lon="22.2087265">
        <ele>35.7061</ele>
        <time>2013-10-12T11:52:10Z</time>
      </trkpt>
      <trkpt lat="60.5050541" lon="22.2086176">
        <ele>37.1481</ele>
        <time>2013-10-12T11:52:14Z</time>
      </trkpt>
      <trkpt lat="60.5050048" lon="22.2085306">
        <ele>39.5513</ele>
        <time>2013-10-12T11:52:19Z</time>
      </trkpt>
      <trkpt lat="60.5049561" lon="22.2085311">
        <ele>40.0321</ele>
        <time>2013-10-12T11:53:17Z</time>
      </trkpt>
      <trkpt lat="60.5049618" lon="22.2085305">
        <ele>40.5128</ele>
        <time>2013-10-12T11:53:18Z</time>
      </trkpt>
      <trkpt lat="60.5050204" lon="22.2084716">
        <ele>41.474</ele>
        <time>2013-10-12T11:53:23Z</time>
      </trkpt>
      <trkpt lat="60.5050496" lon="22.2085067">
        <ele>40.5128</ele>
        <time>2013-10-12T11:53:26Z</time>
      </trkpt>
      <trkpt lat="60.5050855" lon="22.2085381">
        <ele>39.5513</ele>
        <time>2013-10-12T11:53:30Z</time>
      </trkpt>
      <trkpt lat="60.5051468" lon="22.2084637">
        <ele>36.1868</ele>
        <time>2013-10-12T11:53:37Z</time>
      </trkpt>
      <trkpt lat="60.5052394" lon="22.208384">
        <ele>34.2642</ele>
        <time>2013-10-12T11:53:45Z</time>
      </trkpt>
      <trkpt lat="60.5052793" lon="22.2082944">
        <ele>34.2642</ele>
        <time>2013-10-12T11:53:50Z</time>
      </trkpt>
      <trkpt lat="60.5053011" lon="22.2082306">
        <ele>33.7834</ele>
        <time>2013-10-12T11:53:55Z</time>
      </trkpt>
      <trkpt lat="60.505356" lon="22.2080864">
        <ele>31.8607</ele>
        <time>2013-10-12T11:54:01Z</time>
      </trkpt>
      <trkpt lat="60.5054128" lon="22.2080061">
        <ele>32.3416</ele>
        <time>2013-10-12T11:54:07Z</time>
      </trkpt>
      <trkpt lat="60.5054237" lon="22.2079872">
        <ele>31.8607</ele>
        <time>2013-10-12T11:54:08Z</time>
      </trkpt>
      <trkpt lat="60.5054855" lon="22.2078767">
        <ele>32.3416</ele>
        <time>2013-10-12T11:54:14Z</time>
      </trkpt>
      <trkpt lat="60.5055247" lon="22.2078002">
        <ele>32.8223</ele>
        <time>2013-10-12T11:54:18Z</time>
      </trkpt>
      <trkpt lat="60.5055657" lon="22.2076368">
        <ele>33.3029</ele>
        <time>2013-10-12T11:54:24Z</time>
      </trkpt>
      <trkpt lat="60.5056125" lon="22.2075386">
        <ele>34.2642</ele>
        <time>2013-10-12T11:54:29Z</time>
      </trkpt>
      <trkpt lat="60.5056591" lon="22.207454">
        <ele>35.2255</ele>
        <time>2013-10-12T11:54:34Z</time>
      </trkpt>
      <trkpt lat="60.5056963" lon="22.2073931">
        <ele>35.2255</ele>
        <time>2013-10-12T11:54:38Z</time>
      </trkpt>
      <trkpt lat="60.5057417" lon="22.2073034">
        <ele>33.7834</ele>
        <time>2013-10-12T11:54:43Z</time>
      </trkpt>
      <trkpt lat="60.5057604" lon="22.2071993">
        <ele>32.8223</ele>
        <time>2013-10-12T11:54:47Z</time>
      </trkpt>
      <trkpt lat="60.505761" lon="22.2070778">
        <ele>31.8607</ele>
        <time>2013-10-12T11:54:52Z</time>
      </trkpt>
      <trkpt lat="60.5057518" lon="22.2070305">
        <ele>31.8607</ele>
        <time>2013-10-12T11:54:54Z</time>
      </trkpt>
      <trkpt lat="60.5057833" lon="22.2069201">
        <ele>31.8607</ele>
        <time>2013-10-12T11:55:00Z</time>
      </trkpt>
      <trkpt lat="60.5057845" lon="22.2068942">
        <ele>32.3416</ele>
        <time>2013-10-12T11:55:01Z</time>
      </trkpt>
      <trkpt lat="60.5058074" lon="22.2068025">
        <ele>34.2642</ele>
        <time>2013-10-12T11:55:07Z</time>
      </trkpt>
      <trkpt lat="60.5058604" lon="22.2067367">
        <ele>34.7449</ele>
        <time>2013-10-12T11:55:13Z</time>
      </trkpt>
      <trkpt lat="60.5058914" lon="22.2067315">
        <ele>33.7834</ele>
        <time>2013-10-12T11:55:16Z</time>
      </trkpt>
      <trkpt lat="60.5059216" lon="22.2066753">
        <ele>33.3029</ele>
        <time>2013-10-12T11:55:20Z</time>
      </trkpt>
      <trkpt lat="60.5060178" lon="22.2065637">
        <ele>33.3029</ele>
        <time>2013-10-12T11:55:28Z</time>
      </trkpt>
      <trkpt lat="60.5060284" lon="22.2065134">
        <ele>32.3416</ele>
        <time>2013-10-12T11:55:30Z</time>
      </trkpt>
      <trkpt lat="60.5060646" lon="22.2063806">
        <ele>32.3416</ele>
        <time>2013-10-12T11:55:36Z</time>
      </trkpt>
      <trkpt lat="60.5060968" lon="22.2063004">
        <ele>33.3029</ele>
        <time>2013-10-12T11:55:41Z</time>
      </trkpt>
      <trkpt lat="60.5061469" lon="22.206233">
        <ele>33.7834</ele>
        <time>2013-10-12T11:55:46Z</time>
      </trkpt>
      <trkpt lat="60.5061843" lon="22.2062434">
        <ele>33.3029</ele>
        <time>2013-10-12T11:55:51Z</time>
      </trkpt>
      <trkpt lat="60.5062117" lon="22.2062507">
        <ele>34.2642</ele>
        <time>2013-10-12T11:55:55Z</time>
      </trkpt>
      <trkpt lat="60.5062577" lon="22.2062459">
        <ele>33.7834</ele>
        <time>2013-10-12T11:55:59Z</time>
      </trkpt>
      <trkpt lat="60.5062708" lon="22.2062446">
        <ele>33.7834</ele>
        <time>2013-10-12T11:56:00Z</time>
      </trkpt>
      <trkpt lat="60.506321" lon="22.2062625">
        <ele>32.8223</ele>
        <time>2013-10-12T11:56:04Z</time>
      </trkpt>
      <trkpt lat="60.5063662" lon="22.2062113">
        <ele>32.8223</ele>
        <time>2013-10-12T11:56:09Z</time>
      </trkpt>
      <trkpt lat="60.5063749" lon="22.2061781">
        <ele>31.8607</ele>
        <time>2013-10-12T11:56:11Z</time>
      </trkpt>
      <trkpt lat="60.5063985" lon="22.2061281">
        <ele>31.3801</ele>
        <time>2013-10-12T11:56:15Z</time>
      </trkpt>
      <trkpt lat="60.5064189" lon="22.2059896">
        <ele>30.8995</ele>
        <time>2013-10-12T11:56:22Z</time>
      </trkpt>
      <trkpt lat="60.5064006" lon="22.2059716">
        <ele>30.8995</ele>
        <time>2013-10-12T11:56:24Z</time>
      </trkpt>
      <trkpt lat="60.5063754" lon="22.2059249">
        <ele>30.8995</ele>
        <time>2013-10-12T11:56:28Z</time>
      </trkpt>
      <trkpt lat="60.5063625" lon="22.2058291">
        <ele>39.5513</ele>
        <time>2013-10-12T11:57:00Z</time>
      </trkpt>
      <trkpt lat="60.5063671" lon="22.2058162">
        <ele>39.0707</ele>
        <time>2013-10-12T11:57:01Z</time>
      </trkpt>
      <trkpt lat="60.5063841" lon="22.205741">
        <ele>39.0707</ele>
        <time>2013-10-12T11:57:05Z</time>
      </trkpt>
      <trkpt lat="60.5064029" lon="22.2056654">
        <ele>39.5513</ele>
        <time>2013-10-12T11:57:09Z</time>
      </trkpt>
      <trkpt lat="60.5063956" lon="22.2055637">
        <ele>40.5128</ele>
        <time>2013-10-12T11:57:14Z</time>
      </trkpt>
      <trkpt lat="60.5063764" lon="22.2054397">
        <ele>40.0321</ele>
        <time>2013-10-12T11:57:19Z</time>
      </trkpt>
      <trkpt lat="60.5063656" lon="22.2053273">
        <ele>38.1094</ele>
        <time>2013-10-12T11:57:25Z</time>
      </trkpt>
      <trkpt lat="60.5063389" lon="22.2052629">
        <ele>38.1094</ele>
        <time>2013-10-12T11:57:29Z</time>
      </trkpt>
      <trkpt lat="60.5062894" lon="22.205151">
        <ele>38.1094</ele>
        <time>2013-10-12T11:57:36Z</time>
      </trkpt>
      <trkpt lat="60.5062846" lon="22.2051284">
        <ele>37.6287</ele>
        <time>2013-10-12T11:57:37Z</time>
      </trkpt>
      <trkpt lat="60.5062177" lon="22.204992">
        <ele>36.1868</ele>
        <time>2013-10-12T11:57:44Z</time>
      </trkpt>
      <trkpt lat="60.5061704" lon="22.2049519">
        <ele>37.6287</ele>
        <time>2013-10-12T11:57:48Z</time>
      </trkpt>
      <trkpt lat="60.5061248" lon="22.2048921">
        <ele>40.0321</ele>
        <time>2013-10-12T11:57:53Z</time>
      </trkpt>
      <trkpt lat="60.5060523" lon="22.2048537">
        <ele>40.9934</ele>
        <time>2013-10-12T11:57:59Z</time>
      </trkpt>
      <trkpt lat="60.5060123" lon="22.2048629">
        <ele>42.4354</ele>
        <time>2013-10-12T11:58:04Z</time>
      </trkpt>
      <trkpt lat="60.5060086" lon="22.2047973">
        <ele>40.0321</ele>
        <time>2013-10-12T11:58:24Z</time>
      </trkpt>
      <trkpt lat="60.506005" lon="22.2048013">
        <ele>40.5128</ele>
        <time>2013-10-12T11:58:25Z</time>
      </trkpt>
      <trkpt lat="60.5059414" lon="22.2048532">
        <ele>36.6675</ele>
        <time>2013-10-12T11:58:30Z</time>
      </trkpt>
      <trkpt lat="60.5059307" lon="22.2048582">
        <ele>35.7061</ele>
        <time>2013-10-12T11:58:31Z</time>
      </trkpt>
      <trkpt lat="60.505862" lon="22.2049143">
        <ele>32.8223</ele>
        <time>2013-10-12T11:58:36Z</time>
      </trkpt>
      <trkpt lat="60.5057802" lon="22.2049475">
        <ele>29.4575</ele>
        <time>2013-10-12T11:58:43Z</time>
      </trkpt>
      <trkpt lat="60.5057225" lon="22.2049308">
        <ele>29.4575</ele>
        <time>2013-10-12T11:58:48Z</time>
      </trkpt>
      <trkpt lat="60.5057145" lon="22.2049236">
        <ele>29.4575</ele>
        <time>2013-10-12T11:58:49Z</time>
      </trkpt>
      <trkpt lat="60.5056767" lon="22.2049609">
        <ele>31.8607</ele>
        <time>2013-10-12T11:59:23Z</time>
      </trkpt>
      <trkpt lat="60.5056709" lon="22.2049583">
        <ele>32.3416</ele>
        <time>2013-10-12T11:59:24Z</time>
      </trkpt>
      <trkpt lat="60.5056114" lon="22.2049112">
        <ele>35.2255</ele>
        <time>2013-10-12T11:59:30Z</time>
      </trkpt>
      <trkpt lat="60.5055772" lon="22.2048683">
        <ele>36.6675</ele>
        <time>2013-10-12T11:59:36Z</time>
      </trkpt>
      <trkpt lat="60.505516" lon="22.2048143">
        <ele>36.1868</ele>
        <time>2013-10-12T11:59:42Z</time>
      </trkpt>
      <trkpt lat="60.5054803" lon="22.204789">
        <ele>36.1868</ele>
        <time>2013-10-12T11:59:46Z</time>
      </trkpt>
      <trkpt lat="60.505417" lon="22.2047235">
        <ele>36.6675</ele>
        <time>2013-10-12T11:59:53Z</time>
      </trkpt>
      <trkpt lat="60.5053932" lon="22.2046978">
        <ele>37.1481</ele>
        <time>2013-10-12T11:59:55Z</time>
      </trkpt>
      <trkpt lat="60.505373" lon="22.2047013">
        <ele>37.6287</ele>
        <time>2013-10-12T11:59:57Z</time>
      </trkpt>
      <trkpt lat="60.5053088" lon="22.2046308">
        <ele>40.5128</ele>
        <time>2013-10-12T12:00:02Z</time>
      </trkpt>
      <trkpt lat="60.5052939" lon="22.2046174">
        <ele>40.9934</ele>
        <time>2013-10-12T12:00:03Z</time>
      </trkpt>
      <trkpt lat="60.5052704" lon="22.2045969">
        <ele>40.9934</ele>
        <time>2013-10-12T12:00:05Z</time>
      </trkpt>
      <trkpt lat="60.5052586" lon="22.2045723">
        <ele>40.9934</ele>
        <time>2013-10-12T12:00:07Z</time>
      </trkpt>
      <trkpt lat="60.5052279" lon="22.2044497">
        <ele>42.916</ele>
        <time>2013-10-12T12:00:13Z</time>
      </trkpt>
      <trkpt lat="60.5052053" lon="22.2043963">
        <ele>45.3192</ele>
        <time>2013-10-12T12:00:17Z</time>
      </trkpt>
      <trkpt lat="60.5051687" lon="22.2043461">
        <ele>48.2034</ele>
        <time>2013-10-12T12:00:22Z</time>
      </trkpt>
      <trkpt lat="60.5050876" lon="22.2043031">
        <ele>49.1646</ele>
        <time>2013-10-12T12:00:28Z</time>
      </trkpt>
      <trkpt lat="60.5050363" lon="22.2042362">
        <ele>51.5679</ele>
        <time>2013-10-12T12:00:33Z</time>
      </trkpt>
      <trkpt lat="60.5049442" lon="22.2042547">
        <ele>52.5292</ele>
        <time>2013-10-12T12:00:39Z</time>
      </trkpt>
      <trkpt lat="60.5049136" lon="22.2042718">
        <ele>53.0098</ele>
        <time>2013-10-12T12:00:42Z</time>
      </trkpt>
      <trkpt lat="60.5048659" lon="22.2042352">
        <ele>50.6066</ele>
        <time>2013-10-12T12:00:46Z</time>
      </trkpt>
      <trkpt lat="60.5048006" lon="22.204158">
        <ele>52.0486</ele>
        <time>2013-10-12T12:00:51Z</time>
      </trkpt>
      <trkpt lat="60.504783" lon="22.2041549">
        <ele>52.0486</ele>
        <time>2013-10-12T12:00:52Z</time>
      </trkpt>
      <trkpt lat="60.504716" lon="22.2041461">
        <ele>51.5679</ele>
        <time>2013-10-12T12:00:57Z</time>
      </trkpt>
      <trkpt lat="60.5046955" lon="22.204147">
        <ele>50.126</ele>
        <time>2013-10-12T12:00:59Z</time>
      </trkpt>
      <trkpt lat="60.5046132" lon="22.2040519">
        <ele>49.1646</ele>
        <time>2013-10-12T12:01:06Z</time>
      </trkpt>
      <trkpt lat="60.5045686" lon="22.2039776">
        <ele>49.6453</ele>
        <time>2013-10-12T12:01:10Z</time>
      </trkpt>
      <trkpt lat="60.5045298" lon="22.2038586">
        <ele>50.6066</ele>
        <time>2013-10-12T12:01:15Z</time>
      </trkpt>
      <trkpt lat="60.5044888" lon="22.203759">
        <ele>52.0486</ele>
        <time>2013-10-12T12:01:19Z</time>
      </trkpt>
      <trkpt lat="60.5044646" lon="22.2037194">
        <ele>52.0486</ele>
        <time>2013-10-12T12:01:21Z</time>
      </trkpt>
      <trkpt lat="60.5044468" lon="22.2036825">
        <ele>52.0486</ele>
        <time>2013-10-12T12:01:23Z</time>
      </trkpt>
      <trkpt lat="60.5044019" lon="22.2036227">
        <ele>53.4905</ele>
        <time>2013-10-12T12:01:27Z</time>
      </trkpt>
      <trkpt lat="60.5043744" lon="22.203581">
        <ele>55.4131</ele>
        <time>2013-10-12T12:01:30Z</time>
      </trkpt>
      <trkpt lat="60.5043363" lon="22.2034816">
        <ele>54.9324</ele>
        <time>2013-10-12T12:01:34Z</time>
      </trkpt>
      <trkpt lat="60.504266" lon="22.2033914">
        <ele>54.4518</ele>
        <time>2013-10-12T12:01:39Z</time>
      </trkpt>
      <trkpt lat="60.5042449" lon="22.2032971">
        <ele>54.9324</ele>
        <time>2013-10-12T12:01:43Z</time>
      </trkpt>
      <trkpt lat="60.5041873" lon="22.2031169">
        <ele>51.5679</ele>
        <time>2013-10-12T12:01:50Z</time>
      </trkpt>
      <trkpt lat="60.5041261" lon="22.2030037">
        <ele>50.6066</ele>
        <time>2013-10-12T12:01:56Z</time>
      </trkpt>
      <trkpt lat="60.5041177" lon="22.2029863">
        <ele>50.6066</ele>
        <time>2013-10-12T12:01:57Z</time>
      </trkpt>
      <trkpt lat="60.5040837" lon="22.2029125">
        <ele>50.6066</ele>
        <time>2013-10-12T12:02:00Z</time>
      </trkpt>
      <trkpt lat="60.5040593" lon="22.2028411">
        <ele>49.1646</ele>
        <time>2013-10-12T12:02:04Z</time>
      </trkpt>
      <trkpt lat="60.5040123" lon="22.2026937">
        <ele>47.7225</ele>
        <time>2013-10-12T12:02:10Z</time>
      </trkpt>
      <trkpt lat="60.5040044" lon="22.2026587">
        <ele>48.684</ele>
        <time>2013-10-12T12:02:11Z</time>
      </trkpt>
      <trkpt lat="60.5039954" lon="22.2026126">
        <ele>48.2034</ele>
        <time>2013-10-12T12:02:13Z</time>
      </trkpt>
      <trkpt lat="60.5039711" lon="22.2024885">
        <ele>48.2034</ele>
        <time>2013-10-12T12:02:18Z</time>
      </trkpt>
      <trkpt lat="60.5039416" lon="22.2024122">
        <ele>45.7999</ele>
        <time>2013-10-12T12:02:21Z</time>
      </trkpt>
      <trkpt lat="60.5039076" lon="22.2022227">
        <ele>43.3966</ele>
        <time>2013-10-12T12:02:28Z</time>
      </trkpt>
      <trkpt lat="60.5038901" lon="22.2022093">
        <ele>43.8773</ele>
        <time>2013-10-12T12:02:29Z</time>
      </trkpt>
      <trkpt lat="60.5038711" lon="22.2022327">
        <ele>43.3966</ele>
        <time>2013-10-12T12:02:32Z</time>
      </trkpt>
      <trkpt lat="60.5038423" lon="22.2022802">
        <ele>42.916</ele>
        <time>2013-10-12T12:02:35Z</time>
      </trkpt>
      <trkpt lat="60.5037728" lon="22.2023075">
        <ele>40.5128</ele>
        <time>2013-10-12T12:02:40Z</time>
      </trkpt>
      <trkpt lat="60.5037482" lon="22.2022788">
        <ele>39.5513</ele>
        <time>2013-10-12T12:02:42Z</time>
      </trkpt>
      <trkpt lat="60.5037183" lon="22.2022647">
        <ele>39.0707</ele>
        <time>2013-10-12T12:02:44Z</time>
      </trkpt>
      <trkpt lat="60.5037064" lon="22.2022429">
        <ele>36.6675</ele>
        <time>2013-10-12T12:04:06Z</time>
      </trkpt>
      <trkpt lat="60.5037097" lon="22.2022455">
        <ele>36.6675</ele>
        <time>2013-10-12T12:04:07Z</time>
      </trkpt>
      <trkpt lat="60.50372" lon="22.2022475">
        <ele>36.6675</ele>
        <time>2013-10-12T12:04:08Z</time>
      </trkpt>
      <trkpt lat="60.5037722" lon="22.2022669">
        <ele>36.6675</ele>
        <time>2013-10-12T12:04:10Z</time>
      </trkpt>
      <trkpt lat="60.5038375" lon="22.2022176">
        <ele>37.6287</ele>
        <time>2013-10-12T12:04:16Z</time>
      </trkpt>
      <trkpt lat="60.5038496" lon="22.2021953">
        <ele>37.1481</ele>
        <time>2013-10-12T12:04:17Z</time>
      </trkpt>
      <trkpt lat="60.5038689" lon="22.2019791">
        <ele>38.5901</ele>
        <time>2013-10-12T12:04:25Z</time>
      </trkpt>
      <trkpt lat="60.5038395" lon="22.2018814">
        <ele>38.1094</ele>
        <time>2013-10-12T12:04:29Z</time>
      </trkpt>
      <trkpt lat="60.5037951" lon="22.2017128">
        <ele>36.1868</ele>
        <time>2013-10-12T12:04:35Z</time>
      </trkpt>
      <trkpt lat="60.5037849" lon="22.2015258">
        <ele>35.2255</ele>
        <time>2013-10-12T12:04:41Z</time>
      </trkpt>
      <trkpt lat="60.5037631" lon="22.2013975">
        <ele>36.1868</ele>
        <time>2013-10-12T12:04:46Z</time>
      </trkpt>
      <trkpt lat="60.5037496" lon="22.2012955">
        <ele>36.6675</ele>
        <time>2013-10-12T12:04:51Z</time>
      </trkpt>
      <trkpt lat="60.5037645" lon="22.2011905">
        <ele>38.1094</ele>
        <time>2013-10-12T12:04:55Z</time>
      </trkpt>
      <trkpt lat="60.5037589" lon="22.2010551">
        <ele>36.6675</ele>
        <time>2013-10-12T12:05:00Z</time>
      </trkpt>
      <trkpt lat="60.5037616" lon="22.2010322">
        <ele>36.1868</ele>
        <time>2013-10-12T12:05:01Z</time>
      </trkpt>
      <trkpt lat="60.5037536" lon="22.2008182">
        <ele>38.5901</ele>
        <time>2013-10-12T12:05:09Z</time>
      </trkpt>
      <trkpt lat="60.5037314" lon="22.2006483">
        <ele>39.0707</ele>
        <time>2013-10-12T12:05:15Z</time>
      </trkpt>
      <trkpt lat="60.5037328" lon="22.2005608">
        <ele>39.0707</ele>
        <time>2013-10-12T12:05:18Z</time>
      </trkpt>
      <trkpt lat="60.5037425" lon="22.2003108">
        <ele>39.0707</ele>
        <time>2013-10-12T12:05:26Z</time>
      </trkpt>
      <trkpt lat="60.5037455" lon="22.2002836">
        <ele>39.0707</ele>
        <time>2013-10-12T12:05:27Z</time>
      </trkpt>
      <trkpt lat="60.503774" lon="22.2000764">
        <ele>35.7061</ele>
        <time>2013-10-12T12:05:35Z</time>
      </trkpt>
      <trkpt lat="60.5037671" lon="22.1999286">
        <ele>33.7834</ele>
        <time>2013-10-12T12:05:41Z</time>
      </trkpt>
      <trkpt lat="60.5036793" lon="22.1998005">
        <ele>34.7449</ele>
        <time>2013-10-12T12:05:51Z</time>
      </trkpt>
      <trkpt lat="60.503662" lon="22.199775">
        <ele>35.2255</ele>
        <time>2013-10-12T12:05:53Z</time>
      </trkpt>
      <trkpt lat="60.5036704" lon="22.1997537">
        <ele>37.1481</ele>
        <time>2013-10-12T12:06:51Z</time>
      </trkpt>
      <trkpt lat="60.5036682" lon="22.1997524">
        <ele>37.1481</ele>
        <time>2013-10-12T12:06:52Z</time>
      </trkpt>
      <trkpt lat="60.5035988" lon="22.1997145">
        <ele>36.6675</ele>
        <time>2013-10-12T12:06:56Z</time>
      </trkpt>
      <trkpt lat="60.5035099" lon="22.1996501">
        <ele>37.1481</ele>
        <time>2013-10-12T12:07:01Z</time>
      </trkpt>
      <trkpt lat="60.5034397" lon="22.1995963">
        <ele>37.1481</ele>
        <time>2013-10-12T12:07:06Z</time>
      </trkpt>
      <trkpt lat="60.5033547" lon="22.199512">
        <ele>35.7061</ele>
        <time>2013-10-12T12:07:12Z</time>
      </trkpt>
      <trkpt lat="60.5032806" lon="22.1994628">
        <ele>35.7061</ele>
        <time>2013-10-12T12:07:17Z</time>
      </trkpt>
      <trkpt lat="60.5031674" lon="22.199379">
        <ele>38.1094</ele>
        <time>2013-10-12T12:07:25Z</time>
      </trkpt>
      <trkpt lat="60.5030472" lon="22.1992927">
        <ele>40.0321</ele>
        <time>2013-10-12T12:07:33Z</time>
      </trkpt>
      <trkpt lat="60.503017" lon="22.1992835">
        <ele>40.9934</ele>
        <time>2013-10-12T12:07:35Z</time>
      </trkpt>
      <trkpt lat="60.5029292" lon="22.1992359">
        <ele>42.4354</ele>
        <time>2013-10-12T12:07:41Z</time>
      </trkpt>
      <trkpt lat="60.5028765" lon="22.1991987">
        <ele>43.8773</ele>
        <time>2013-10-12T12:07:45Z</time>
      </trkpt>
      <trkpt lat="60.5028468" lon="22.199166">
        <ele>43.8773</ele>
        <time>2013-10-12T12:07:47Z</time>
      </trkpt>
      <trkpt lat="60.5027756" lon="22.1991245">
        <ele>43.3966</ele>
        <time>2013-10-12T12:07:52Z</time>
      </trkpt>
      <trkpt lat="60.5026875" lon="22.19904">
        <ele>44.358</ele>
        <time>2013-10-12T12:07:59Z</time>
      </trkpt>
      <trkpt lat="60.5026326" lon="22.1989945">
        <ele>43.8773</ele>
        <time>2013-10-12T12:08:03Z</time>
      </trkpt>
      <trkpt lat="60.5025704" lon="22.1989453">
        <ele>41.9547</ele>
        <time>2013-10-12T12:08:08Z</time>
      </trkpt>
      <trkpt lat="60.5025209" lon="22.198937">
        <ele>41.474</ele>
        <time>2013-10-12T12:08:12Z</time>
      </trkpt>
      <trkpt lat="60.5024712" lon="22.1988912">
        <ele>43.3966</ele>
        <time>2013-10-12T12:08:17Z</time>
      </trkpt>
      <trkpt lat="60.5024246" lon="22.1988675">
        <ele>42.4354</ele>
        <time>2013-10-12T12:08:21Z</time>
      </trkpt>
      <trkpt lat="60.5024039" lon="22.1988644">
        <ele>42.4354</ele>
        <time>2013-10-12T12:08:23Z</time>
      </trkpt>
      <trkpt lat="60.5023091" lon="22.198936">
        <ele>40.0321</ele>
        <time>2013-10-12T12:08:29Z</time>
      </trkpt>
      <trkpt lat="60.5022241" lon="22.1989997">
        <ele>37.1481</ele>
        <time>2013-10-12T12:08:35Z</time>
      </trkpt>
      <trkpt lat="60.5021749" lon="22.1991735">
        <ele>35.2255</ele>
        <time>2013-10-12T12:08:42Z</time>
      </trkpt>
      <trkpt lat="60.5021697" lon="22.1992193">
        <ele>34.7449</ele>
        <time>2013-10-12T12:08:44Z</time>
      </trkpt>
      <trkpt lat="60.5021499" lon="22.1993424">
        <ele>33.7834</ele>
        <time>2013-10-12T12:08:49Z</time>
      </trkpt>
      <trkpt lat="60.5021231" lon="22.1995325">
        <ele>32.8223</ele>
        <time>2013-10-12T12:08:56Z</time>
      </trkpt>
      <trkpt lat="60.5021281" lon="22.1995905">
        <ele>32.3416</ele>
        <time>2013-10-12T12:08:59Z</time>
      </trkpt>
      <trkpt lat="60.5021464" lon="22.1996405">
        <ele>32.3416</ele>
        <time>2013-10-12T12:09:02Z</time>
      </trkpt>
      <trkpt lat="60.5021998" lon="22.1997972">
        <ele>32.8223</ele>
        <time>2013-10-12T12:09:07Z</time>
      </trkpt>
      <trkpt lat="60.5022251" lon="22.1999336">
        <ele>32.3416</ele>
        <time>2013-10-12T12:09:12Z</time>
      </trkpt>
      <trkpt lat="60.502209" lon="22.2000241">
        <ele>35.7061</ele>
        <time>2013-10-12T12:09:16Z</time>
      </trkpt>
      <trkpt lat="60.5022034" lon="22.200084">
        <ele>38.1094</ele>
        <time>2013-10-12T12:09:18Z</time>
      </trkpt>
      <trkpt lat="60.5022313" lon="22.2001451">
        <ele>42.4354</ele>
        <time>2013-10-12T12:10:01Z</time>
      </trkpt>
      <trkpt lat="60.5022291" lon="22.2001394">
        <ele>42.916</ele>
        <time>2013-10-12T12:10:02Z</time>
      </trkpt>
      <trkpt lat="60.5022086" lon="22.2000976">
        <ele>42.916</ele>
        <time>2013-10-12T12:10:04Z</time>
      </trkpt>
      <trkpt lat="60.5021422" lon="22.2000234">
        <ele>43.3966</ele>
        <time>2013-10-12T12:10:08Z</time>
      </trkpt>
      <trkpt lat="60.5020996" lon="22.2000073">
        <ele>42.916</ele>
        <time>2013-10-12T12:10:11Z</time>
      </trkpt>
      <trkpt lat="60.5020562" lon="22.2000434">
        <ele>40.9934</ele>
        <time>2013-10-12T12:10:16Z</time>
      </trkpt>
      <trkpt lat="60.5020298" lon="22.2001051">
        <ele>40.9934</ele>
        <time>2013-10-12T12:10:22Z</time>
      </trkpt>
      <trkpt lat="60.5020012" lon="22.2001236">
        <ele>41.474</ele>
        <time>2013-10-12T12:10:27Z</time>
      </trkpt>
      <trkpt lat="60.5019757" lon="22.200144">
        <ele>41.474</ele>
        <time>2013-10-12T12:10:32Z</time>
      </trkpt>
      <trkpt lat="60.5019566" lon="22.2000645">
        <ele>41.9547</ele>
        <time>2013-10-12T12:10:36Z</time>
      </trkpt>
      <trkpt lat="60.5019877" lon="22.199963">
        <ele>39.0707</ele>
        <time>2013-10-12T12:10:42Z</time>
      </trkpt>
      <trkpt lat="60.5020076" lon="22.1998617">
        <ele>39.5513</ele>
        <time>2013-10-12T12:10:46Z</time>
      </trkpt>
      <trkpt lat="60.502007" lon="22.1997525">
        <ele>37.6287</ele>
        <time>2013-10-12T12:10:50Z</time>
      </trkpt>
      <trkpt lat="60.5020063" lon="22.1996778">
        <ele>37.6287</ele>
        <time>2013-10-12T12:10:56Z</time>
      </trkpt>
      <trkpt lat="60.5019687" lon="22.1996631">
        <ele>38.5901</ele>
        <time>2013-10-12T12:11:00Z</time>
      </trkpt>
      <trkpt lat="60.5019146" lon="22.1996564">
        <ele>39.0707</ele>
        <time>2013-10-12T12:11:05Z</time>
      </trkpt>
      <trkpt lat="60.5018034" lon="22.1996287">
        <ele>40.0321</ele>
        <time>2013-10-12T12:11:12Z</time>
      </trkpt>
      <trkpt lat="60.5017925" lon="22.1996195">
        <ele>40.0321</ele>
        <time>2013-10-12T12:11:13Z</time>
      </trkpt>
      <trkpt lat="60.5017119" lon="22.1995001">
        <ele>40.5128</ele>
        <time>2013-10-12T12:11:18Z</time>
      </trkpt>
      <trkpt lat="60.5016838" lon="22.1994905">
        <ele>40.5128</ele>
        <time>2013-10-12T12:11:21Z</time>
      </trkpt>
      <trkpt lat="60.5016511" lon="22.199395">
        <ele>38.5901</ele>
        <time>2013-10-12T12:11:27Z</time>
      </trkpt>
      <trkpt lat="60.501646" lon="22.1993779">
        <ele>37.6287</ele>
        <time>2013-10-12T12:11:28Z</time>
      </trkpt>
      <trkpt lat="60.5016309" lon="22.1993328">
        <ele>37.6287</ele>
        <time>2013-10-12T12:11:30Z</time>
      </trkpt>
      <trkpt lat="60.5016492" lon="22.1992277">
        <ele>36.1868</ele>
        <time>2013-10-12T12:11:34Z</time>
      </trkpt>
      <trkpt lat="60.5016696" lon="22.1991162">
        <ele>35.2255</ele>
        <time>2013-10-12T12:11:38Z</time>
      </trkpt>
      <trkpt lat="60.5017102" lon="22.199037">
        <ele>35.2255</ele>
        <time>2013-10-12T12:11:42Z</time>
      </trkpt>
      <trkpt lat="60.501792" lon="22.1989099">
        <ele>35.7061</ele>
        <time>2013-10-12T12:11:48Z</time>
      </trkpt>
      <trkpt lat="60.5018522" lon="22.1988451">
        <ele>37.1481</ele>
        <time>2013-10-12T12:11:54Z</time>
      </trkpt>
      <trkpt lat="60.5019419" lon="22.1988599">
        <ele>39.5513</ele>
        <time>2013-10-12T12:12:00Z</time>
      </trkpt>
      <trkpt lat="60.5020394" lon="22.198855">
        <ele>43.8773</ele>
        <time>2013-10-12T12:12:06Z</time>
      </trkpt>
      <trkpt lat="60.502078" lon="22.1988443">
        <ele>44.358</ele>
        <time>2013-10-12T12:12:08Z</time>
      </trkpt>
      <trkpt lat="60.5021488" lon="22.1988606">
        <ele>45.3192</ele>
        <time>2013-10-12T12:12:13Z</time>
      </trkpt>
      <trkpt lat="60.5021948" lon="22.1989523">
        <ele>42.916</ele>
        <time>2013-10-12T12:12:18Z</time>
      </trkpt>
      <trkpt lat="60.5022622" lon="22.1989469">
        <ele>42.4354</ele>
        <time>2013-10-12T12:12:23Z</time>
      </trkpt>
      <trkpt lat="60.5022774" lon="22.1989354">
        <ele>41.9547</ele>
        <time>2013-10-12T12:12:24Z</time>
      </trkpt>
      <trkpt lat="60.5023536" lon="22.198836">
        <ele>40.5128</ele>
        <time>2013-10-12T12:12:30Z</time>
      </trkpt>
      <trkpt lat="60.5023804" lon="22.1988427">
        <ele>40.0321</ele>
        <time>2013-10-12T12:12:32Z</time>
      </trkpt>
      <trkpt lat="60.5024485" lon="22.1988866">
        <ele>40.0321</ele>
        <time>2013-10-12T12:12:39Z</time>
      </trkpt>
      <trkpt lat="60.502511" lon="22.1989063">
        <ele>37.1481</ele>
        <time>2013-10-12T12:12:45Z</time>
      </trkpt>
      <trkpt lat="60.502539" lon="22.1989177">
        <ele>37.6287</ele>
        <time>2013-10-12T12:12:47Z</time>
      </trkpt>
      <trkpt lat="60.5026313" lon="22.1989774">
        <ele>37.1481</ele>
        <time>2013-10-12T12:12:54Z</time>
      </trkpt>
      <trkpt lat="60.5027731" lon="22.1990472">
        <ele>38.1094</ele>
        <time>2013-10-12T12:13:03Z</time>
      </trkpt>
      <trkpt lat="60.5028468" lon="22.1990937">
        <ele>39.5513</ele>
        <time>2013-10-12T12:13:09Z</time>
      </trkpt>
      <trkpt lat="60.5028861" lon="22.1991126">
        <ele>40.0321</ele>
        <time>2013-10-12T12:13:13Z</time>
      </trkpt>
      <trkpt lat="60.5029444" lon="22.1991587">
        <ele>41.474</ele>
        <time>2013-10-12T12:13:18Z</time>
      </trkpt>
      <trkpt lat="60.5030052" lon="22.199211">
        <ele>41.474</ele>
        <time>2013-10-12T12:13:23Z</time>
      </trkpt>
      <trkpt lat="60.5030455" lon="22.199243">
        <ele>41.9547</ele>
        <time>2013-10-12T12:13:26Z</time>
      </trkpt>
      <trkpt lat="60.5031103" lon="22.1992989">
        <ele>41.9547</ele>
        <time>2013-10-12T12:13:31Z</time>
      </trkpt>
      <trkpt lat="60.5032224" lon="22.1993601">
        <ele>40.9934</ele>
        <time>2013-10-12T12:13:40Z</time>
      </trkpt>
      <trkpt lat="60.5032005" lon="22.1993493">
        <ele>40.9934</ele>
        <time>2013-10-12T12:13:42Z</time>
      </trkpt>
      <trkpt lat="60.5030706" lon="22.199294">
        <ele>40.9934</ele>
        <time>2013-10-12T12:13:50Z</time>
      </trkpt>
      <trkpt lat="60.502972" lon="22.1992157">
        <ele>40.0321</ele>
        <time>2013-10-12T12:13:57Z</time>
      </trkpt>
      <trkpt lat="60.5028828" lon="22.1990991">
        <ele>40.0321</ele>
        <time>2013-10-12T12:14:03Z</time>
      </trkpt>
      <trkpt lat="60.5028659" lon="22.1990098">
        <ele>39.5513</ele>
        <time>2013-10-12T12:14:05Z</time>
      </trkpt>
      <trkpt lat="60.5028968" lon="22.1989049">
        <ele>36.6675</ele>
        <time>2013-10-12T12:14:11Z</time>
      </trkpt>
      <trkpt lat="60.5029173" lon="22.1987204">
        <ele>32.8223</ele>
        <time>2013-10-12T12:14:16Z</time>
      </trkpt>
      <trkpt lat="60.5029094" lon="22.1986619">
        <ele>31.3801</ele>
        <time>2013-10-12T12:14:18Z</time>
      </trkpt>
      <trkpt lat="60.5028536" lon="22.1985395">
        <ele>29.9381</ele>
        <time>2013-10-12T12:14:23Z</time>
      </trkpt>
      <trkpt lat="60.5028156" lon="22.1984295">
        <ele>29.9381</ele>
        <time>2013-10-12T12:14:27Z</time>
      </trkpt>
      <trkpt lat="60.5027768" lon="22.1982298">
        <ele>29.9381</ele>
        <time>2013-10-12T12:14:33Z</time>
      </trkpt>
      <trkpt lat="60.5027281" lon="22.198073">
        <ele>27.5349</ele>
        <time>2013-10-12T12:14:37Z</time>
      </trkpt>
      <trkpt lat="60.5027245" lon="22.1980325">
        <ele>27.0543</ele>
        <time>2013-10-12T12:14:38Z</time>
      </trkpt>
      <trkpt lat="60.5027916" lon="22.1978725">
        <ele>25.6123</ele>
        <time>2013-10-12T12:14:44Z</time>
      </trkpt>
      <trkpt lat="60.5028674" lon="22.1978735">
        <ele>26.0929</ele>
        <time>2013-10-12T12:14:49Z</time>
      </trkpt>
      <trkpt lat="60.5029606" lon="22.1978676">
        <ele>27.5349</ele>
        <time>2013-10-12T12:14:55Z</time>
      </trkpt>
      <trkpt lat="60.5029975" lon="22.1978663">
        <ele>27.5349</ele>
        <time>2013-10-12T12:14:57Z</time>
      </trkpt>
      <trkpt lat="60.5030983" lon="22.1978962">
        <ele>28.4962</ele>
        <time>2013-10-12T12:15:03Z</time>
      </trkpt>
      <trkpt lat="60.5031864" lon="22.1979119">
        <ele>29.9381</ele>
        <time>2013-10-12T12:15:09Z</time>
      </trkpt>
      <trkpt lat="60.503203" lon="22.1979083">
        <ele>30.4188</ele>
        <time>2013-10-12T12:15:10Z</time>
      </trkpt>
      <trkpt lat="60.5032331" lon="22.1979241">
        <ele>29.9381</ele>
        <time>2013-10-12T12:15:12Z</time>
      </trkpt>
      <trkpt lat="60.5033398" lon="22.1979783">
        <ele>30.4188</ele>
        <time>2013-10-12T12:15:56Z</time>
      </trkpt>
      <trkpt lat="60.5033486" lon="22.1979845">
        <ele>30.4188</ele>
        <time>2013-10-12T12:15:57Z</time>
      </trkpt>
      <trkpt lat="60.5034471" lon="22.1980026">
        <ele>29.4575</ele>
        <time>2013-10-12T12:16:03Z</time>
      </trkpt>
      <trkpt lat="60.5035301" lon="22.1979964">
        <ele>30.4188</ele>
        <time>2013-10-12T12:16:09Z</time>
      </trkpt>
      <trkpt lat="60.5036429" lon="22.1980191">
        <ele>31.3801</ele>
        <time>2013-10-12T12:16:17Z</time>
      </trkpt>
      <trkpt lat="60.5037567" lon="22.1980231">
        <ele>31.3801</ele>
        <time>2013-10-12T12:16:25Z</time>
      </trkpt>
      <trkpt lat="60.503836" lon="22.1980067">
        <ele>29.9381</ele>
        <time>2013-10-12T12:16:31Z</time>
      </trkpt>
      <trkpt lat="60.5039443" lon="22.1979709">
        <ele>29.4575</ele>
        <time>2013-10-12T12:16:38Z</time>
      </trkpt>
      <trkpt lat="60.504038" lon="22.1979528">
        <ele>29.9381</ele>
        <time>2013-10-12T12:16:44Z</time>
      </trkpt>
      <trkpt lat="60.5041967" lon="22.1979246">
        <ele>31.3801</ele>
        <time>2013-10-12T12:16:52Z</time>
      </trkpt>
      <trkpt lat="60.5044169" lon="22.1978632">
        <ele>31.3801</ele>
        <time>2013-10-12T12:17:04Z</time>
      </trkpt>
      <trkpt lat="60.5046528" lon="22.197822">
        <ele>31.8607</ele>
        <time>2013-10-12T12:17:17Z</time>
      </trkpt>
      <trkpt lat="60.5047834" lon="22.197805">
        <ele>31.3801</ele>
        <time>2013-10-12T12:17:24Z</time>
      </trkpt>
      <trkpt lat="60.5048234" lon="22.1977905">
        <ele>30.8995</ele>
        <time>2013-10-12T12:17:27Z</time>
      </trkpt>
      <trkpt lat="60.5049322" lon="22.1977408">
        <ele>32.8223</ele>
        <time>2013-10-12T12:17:35Z</time>
      </trkpt>
      <trkpt lat="60.5049468" lon="22.1977346">
        <ele>33.3029</ele>
        <time>2013-10-12T12:17:36Z</time>
      </trkpt>
      <trkpt lat="60.5050167" lon="22.1977171">
        <ele>34.7449</ele>
        <time>2013-10-12T12:17:41Z</time>
      </trkpt>
      <trkpt lat="60.5051219" lon="22.1976886">
        <ele>36.1868</ele>
        <time>2013-10-12T12:17:47Z</time>
      </trkpt>
      <trkpt lat="60.5051807" lon="22.1976703">
        <ele>37.1481</ele>
        <time>2013-10-12T12:17:51Z</time>
      </trkpt>
      <trkpt lat="60.5052669" lon="22.1976439">
        <ele>38.1094</ele>
        <time>2013-10-12T12:17:57Z</time>
      </trkpt>
      <trkpt lat="60.5053607" lon="22.1976299">
        <ele>39.0707</ele>
        <time>2013-10-12T12:18:03Z</time>
      </trkpt>
      <trkpt lat="60.5054062" lon="22.1976231">
        <ele>39.0707</ele>
        <time>2013-10-12T12:18:06Z</time>
      </trkpt>
      <trkpt lat="60.505484" lon="22.1976011">
        <ele>38.5901</ele>
        <time>2013-10-12T12:18:11Z</time>
      </trkpt>
      <trkpt lat="60.5055462" lon="22.1975692">
        <ele>38.1094</ele>
        <time>2013-10-12T12:18:15Z</time>
      </trkpt>
      <trkpt lat="60.5056239" lon="22.197554">
        <ele>39.0707</ele>
        <time>2013-10-12T12:18:20Z</time>
      </trkpt>
      <trkpt lat="60.5057248" lon="22.1976368">
        <ele>37.6287</ele>
        <time>2013-10-12T12:18:26Z</time>
      </trkpt>
      <trkpt lat="60.5057761" lon="22.1977071">
        <ele>37.1481</ele>
        <time>2013-10-12T12:18:29Z</time>
      </trkpt>
      <trkpt lat="60.505836" lon="22.1978376">
        <ele>35.2255</ele>
        <time>2013-10-12T12:18:35Z</time>
      </trkpt>
      <trkpt lat="60.5058636" lon="22.197945">
        <ele>34.7449</ele>
        <time>2013-10-12T12:18:40Z</time>
      </trkpt>
      <trkpt lat="60.5059245" lon="22.1980914">
        <ele>34.2642</ele>
        <time>2013-10-12T12:18:46Z</time>
      </trkpt>
      <trkpt lat="60.5059759" lon="22.1983095">
        <ele>33.3029</ele>
        <time>2013-10-12T12:18:54Z</time>
      </trkpt>
      <trkpt lat="60.5059911" lon="22.1984287">
        <ele>33.3029</ele>
        <time>2013-10-12T12:18:58Z</time>
      </trkpt>
      <trkpt lat="60.5060267" lon="22.1985951">
        <ele>33.3029</ele>
        <time>2013-10-12T12:19:04Z</time>
      </trkpt>
      <trkpt lat="60.5060413" lon="22.1986964">
        <ele>33.3029</ele>
        <time>2013-10-12T12:19:07Z</time>
      </trkpt>
      <trkpt lat="60.5060708" lon="22.1988102">
        <ele>33.3029</ele>
        <time>2013-10-12T12:19:12Z</time>
      </trkpt>
      <trkpt lat="60.5060687" lon="22.1987837">
        <ele>33.3029</ele>
        <time>2013-10-12T12:19:14Z</time>
      </trkpt>
      <trkpt lat="60.5060545" lon="22.198642">
        <ele>32.3416</ele>
        <time>2013-10-12T12:19:19Z</time>
      </trkpt>
      <trkpt lat="60.5060226" lon="22.1984941">
        <ele>31.8607</ele>
        <time>2013-10-12T12:19:23Z</time>
      </trkpt>
      <trkpt lat="60.5060174" lon="22.1984295">
        <ele>31.8607</ele>
        <time>2013-10-12T12:19:25Z</time>
      </trkpt>
      <trkpt lat="60.505994" lon="22.1982896">
        <ele>31.3801</ele>
        <time>2013-10-12T12:19:30Z</time>
      </trkpt>
      <trkpt lat="60.5059563" lon="22.1981605">
        <ele>30.4188</ele>
        <time>2013-10-12T12:19:34Z</time>
      </trkpt>
      <trkpt lat="60.5059085" lon="22.1980373">
        <ele>28.9769</ele>
        <time>2013-10-12T12:19:37Z</time>
      </trkpt>
      <trkpt lat="60.5058841" lon="22.1978472">
        <ele>28.0155</ele>
        <time>2013-10-12T12:19:44Z</time>
      </trkpt>
      <trkpt lat="60.5059279" lon="22.1977854">
        <ele>27.5349</ele>
        <time>2013-10-12T12:19:48Z</time>
      </trkpt>
      <trkpt lat="60.5060635" lon="22.1976725">
        <ele>28.4962</ele>
        <time>2013-10-12T12:19:57Z</time>
      </trkpt>
      <trkpt lat="60.5061607" lon="22.197567">
        <ele>28.4962</ele>
        <time>2013-10-12T12:20:04Z</time>
      </trkpt>
      <trkpt lat="60.5062506" lon="22.1974871">
        <ele>28.4962</ele>
        <time>2013-10-12T12:20:10Z</time>
      </trkpt>
      <trkpt lat="60.5063596" lon="22.197385">
        <ele>29.4575</ele>
        <time>2013-10-12T12:20:18Z</time>
      </trkpt>
      <trkpt lat="60.506421" lon="22.1973017">
        <ele>29.4575</ele>
        <time>2013-10-12T12:20:23Z</time>
      </trkpt>
      <trkpt lat="60.506455" lon="22.197086">
        <ele>29.9381</ele>
        <time>2013-10-12T12:20:30Z</time>
      </trkpt>
      <trkpt lat="60.5064598" lon="22.1970343">
        <ele>29.4575</ele>
        <time>2013-10-12T12:20:32Z</time>
      </trkpt>
      <trkpt lat="60.5064674" lon="22.1968936">
        <ele>29.9381</ele>
        <time>2013-10-12T12:20:37Z</time>
      </trkpt>
      <trkpt lat="60.5064914" lon="22.1968095">
        <ele>28.9769</ele>
        <time>2013-10-12T12:20:40Z</time>
      </trkpt>
      <trkpt lat="60.5065795" lon="22.1968273">
        <ele>27.5349</ele>
        <time>2013-10-12T12:20:45Z</time>
      </trkpt>
      <trkpt lat="60.5066782" lon="22.1968205">
        <ele>28.0155</ele>
        <time>2013-10-12T12:20:51Z</time>
      </trkpt>
      <trkpt lat="60.5066958" lon="22.196829">
        <ele>27.5349</ele>
        <time>2013-10-12T12:20:52Z</time>
      </trkpt>
      <trkpt lat="60.5067507" lon="22.196864">
        <ele>28.0155</ele>
        <time>2013-10-12T12:20:55Z</time>
      </trkpt>
      <trkpt lat="60.5068333" lon="22.1968578">
        <ele>28.4962</ele>
        <time>2013-10-12T12:21:01Z</time>
      </trkpt>
      <trkpt lat="60.5069243" lon="22.1968691">
        <ele>29.4575</ele>
        <time>2013-10-12T12:21:06Z</time>
      </trkpt>
      <trkpt lat="60.5069401" lon="22.1968696">
        <ele>29.4575</ele>
        <time>2013-10-12T12:21:07Z</time>
      </trkpt>
      <trkpt lat="60.5070315" lon="22.196896">
        <ele>28.0155</ele>
        <time>2013-10-12T12:21:13Z</time>
      </trkpt>
      <trkpt lat="60.5071338" lon="22.1969523">
        <ele>27.5349</ele>
        <time>2013-10-12T12:21:20Z</time>
      </trkpt>
      <trkpt lat="60.507198" lon="22.1969463">
        <ele>28.9769</ele>
        <time>2013-10-12T12:21:25Z</time>
      </trkpt>
      <trkpt lat="60.5072506" lon="22.1969746">
        <ele>28.4962</ele>
        <time>2013-10-12T12:21:30Z</time>
      </trkpt>
      <trkpt lat="60.5073411" lon="22.1969948">
        <ele>28.4962</ele>
        <time>2013-10-12T12:21:35Z</time>
      </trkpt>
      <trkpt lat="60.5074057" lon="22.1970127">
        <ele>28.0155</ele>
        <time>2013-10-12T12:21:39Z</time>
      </trkpt>
      <trkpt lat="60.5074783" lon="22.1970395">
        <ele>28.0155</ele>
        <time>2013-10-12T12:21:44Z</time>
      </trkpt>
      <trkpt lat="60.5075119" lon="22.1970552">
        <ele>28.9769</ele>
        <time>2013-10-12T12:21:46Z</time>
      </trkpt>
      <trkpt lat="60.5075793" lon="22.1971554">
        <ele>28.4962</ele>
        <time>2013-10-12T12:21:52Z</time>
      </trkpt>
      <trkpt lat="60.5076087" lon="22.1972601">
        <ele>26.0929</ele>
        <time>2013-10-12T12:21:57Z</time>
      </trkpt>
      <trkpt lat="60.5076609" lon="22.1973045">
        <ele>26.5736</ele>
        <time>2013-10-12T12:22:02Z</time>
      </trkpt>
      <trkpt lat="60.5076876" lon="22.1973139">
        <ele>27.5349</ele>
        <time>2013-10-12T12:22:04Z</time>
      </trkpt>
      <trkpt lat="60.5077932" lon="22.1974784">
        <ele>27.5349</ele>
        <time>2013-10-12T12:22:12Z</time>
      </trkpt>
      <trkpt lat="60.5078569" lon="22.197668">
        <ele>30.8995</ele>
        <time>2013-10-12T12:22:19Z</time>
      </trkpt>
      <trkpt lat="60.5079137" lon="22.1977388">
        <ele>32.8223</ele>
        <time>2013-10-12T12:22:24Z</time>
      </trkpt>
      <trkpt lat="60.5079689" lon="22.1977486">
        <ele>33.3029</ele>
        <time>2013-10-12T12:22:28Z</time>
      </trkpt>
      <trkpt lat="60.5080998" lon="22.1977243">
        <ele>35.7061</ele>
        <time>2013-10-12T12:22:37Z</time>
      </trkpt>
      <trkpt lat="60.5081424" lon="22.1977405">
        <ele>36.1868</ele>
        <time>2013-10-12T12:22:40Z</time>
      </trkpt>
      <trkpt lat="60.5082323" lon="22.1978439">
        <ele>37.6287</ele>
        <time>2013-10-12T12:22:47Z</time>
      </trkpt>
      <trkpt lat="60.5082429" lon="22.197886">
        <ele>37.6287</ele>
        <time>2013-10-12T12:22:49Z</time>
      </trkpt>
      <trkpt lat="60.5083344" lon="22.1980205">
        <ele>37.6287</ele>
        <time>2013-10-12T12:22:56Z</time>
      </trkpt>
      <trkpt lat="60.5084203" lon="22.1981088">
        <ele>33.7834</ele>
        <time>2013-10-12T12:23:03Z</time>
      </trkpt>
      <trkpt lat="60.5085246" lon="22.1980962">
        <ele>34.7449</ele>
        <time>2013-10-12T12:23:10Z</time>
      </trkpt>
      <trkpt lat="60.5086277" lon="22.1981351">
        <ele>34.2642</ele>
        <time>2013-10-12T12:23:17Z</time>
      </trkpt>
      <trkpt lat="60.508752" lon="22.1982624">
        <ele>33.3029</ele>
        <time>2013-10-12T12:23:23Z</time>
      </trkpt>
      <trkpt lat="60.5088515" lon="22.1983662">
        <ele>31.3801</ele>
        <time>2013-10-12T12:23:29Z</time>
      </trkpt>
      <trkpt lat="60.5089266" lon="22.1984509">
        <ele>30.4188</ele>
        <time>2013-10-12T12:23:35Z</time>
      </trkpt>
      <trkpt lat="60.5089896" lon="22.198478">
        <ele>30.8995</ele>
        <time>2013-10-12T12:23:39Z</time>
      </trkpt>
      <trkpt lat="60.5090733" lon="22.1985054">
        <ele>30.8995</ele>
        <time>2013-10-12T12:23:45Z</time>
      </trkpt>
      <trkpt lat="60.5091022" lon="22.1985141">
        <ele>30.8995</ele>
        <time>2013-10-12T12:23:47Z</time>
      </trkpt>
      <trkpt lat="60.5091548" lon="22.198505">
        <ele>30.4188</ele>
        <time>2013-10-12T12:23:51Z</time>
      </trkpt>
      <trkpt lat="60.5092648" lon="22.1985277">
        <ele>31.3801</ele>
        <time>2013-10-12T12:23:57Z</time>
      </trkpt>
      <trkpt lat="60.509354" lon="22.1985547">
        <ele>32.3416</ele>
        <time>2013-10-12T12:24:02Z</time>
      </trkpt>
      <trkpt lat="60.5094627" lon="22.198511">
        <ele>33.3029</ele>
        <time>2013-10-12T12:24:09Z</time>
      </trkpt>
      <trkpt lat="60.5095549" lon="22.1984786">
        <ele>33.7834</ele>
        <time>2013-10-12T12:24:14Z</time>
      </trkpt>
      <trkpt lat="60.5096817" lon="22.1984331">
        <ele>33.7834</ele>
        <time>2013-10-12T12:24:21Z</time>
      </trkpt>
      <trkpt lat="60.5097744" lon="22.19839">
        <ele>35.7061</ele>
        <time>2013-10-12T12:24:26Z</time>
      </trkpt>
      <trkpt lat="60.5098857" lon="22.1983294">
        <ele>36.6675</ele>
        <time>2013-10-12T12:24:33Z</time>
      </trkpt>
      <trkpt lat="60.5099911" lon="22.1982961">
        <ele>37.6287</ele>
        <time>2013-10-12T12:24:39Z</time>
      </trkpt>
      <trkpt lat="60.5100751" lon="22.1982626">
        <ele>36.6675</ele>
        <time>2013-10-12T12:24:45Z</time>
      </trkpt>
      <trkpt lat="60.5101898" lon="22.198217">
        <ele>35.2255</ele>
        <time>2013-10-12T12:24:52Z</time>
      </trkpt>
      <trkpt lat="60.5102834" lon="22.1981372">
        <ele>36.6675</ele>
        <time>2013-10-12T12:24:58Z</time>
      </trkpt>
      <trkpt lat="60.5103962" lon="22.1980824">
        <ele>37.1481</ele>
        <time>2013-10-12T12:25:05Z</time>
      </trkpt>
      <trkpt lat="60.5104815" lon="22.1980331">
        <ele>37.1481</ele>
        <time>2013-10-12T12:25:11Z</time>
      </trkpt>
      <trkpt lat="60.5105815" lon="22.1979876">
        <ele>37.1481</ele>
        <time>2013-10-12T12:25:18Z</time>
      </trkpt>
      <trkpt lat="60.5107339" lon="22.197973">
        <ele>34.2642</ele>
        <time>2013-10-12T12:25:26Z</time>
      </trkpt>
      <trkpt lat="60.5108401" lon="22.1980093">
        <ele>33.3029</ele>
        <time>2013-10-12T12:25:32Z</time>
      </trkpt>
      <trkpt lat="60.5109591" lon="22.1980121">
        <ele>33.3029</ele>
        <time>2013-10-12T12:25:39Z</time>
      </trkpt>
      <trkpt lat="60.5110747" lon="22.1979885">
        <ele>34.7449</ele>
        <time>2013-10-12T12:25:46Z</time>
      </trkpt>
      <trkpt lat="60.5111888" lon="22.1979839">
        <ele>36.6675</ele>
        <time>2013-10-12T12:25:53Z</time>
      </trkpt>
      <trkpt lat="60.5112054" lon="22.1979879">
        <ele>37.1481</ele>
        <time>2013-10-12T12:25:54Z</time>
      </trkpt>
      <trkpt lat="60.5113106" lon="22.1980805">
        <ele>38.5901</ele>
        <time>2013-10-12T12:26:00Z</time>
      </trkpt>
      <trkpt lat="60.5113839" lon="22.1982217">
        <ele>38.1094</ele>
        <time>2013-10-12T12:26:06Z</time>
      </trkpt>
      <trkpt lat="60.5113908" lon="22.1982449">
        <ele>38.1094</ele>
        <time>2013-10-12T12:26:07Z</time>
      </trkpt>
      <trkpt lat="60.5114567" lon="22.1983703">
        <ele>39.0707</ele>
        <time>2013-10-12T12:26:12Z</time>
      </trkpt>
      <trkpt lat="60.5115047" lon="22.1984693">
        <ele>38.5901</ele>
        <time>2013-10-12T12:26:16Z</time>
      </trkpt>
      <trkpt lat="60.5115498" lon="22.198634">
        <ele>37.6287</ele>
        <time>2013-10-12T12:26:22Z</time>
      </trkpt>
      <trkpt lat="60.511573" lon="22.198754">
        <ele>37.1481</ele>
        <time>2013-10-12T12:26:27Z</time>
      </trkpt>
      <trkpt lat="60.5116086" lon="22.1988731">
        <ele>36.6675</ele>
        <time>2013-10-12T12:26:31Z</time>
      </trkpt>
      <trkpt lat="60.5116409" lon="22.1989676">
        <ele>37.1481</ele>
        <time>2013-10-12T12:26:34Z</time>
      </trkpt>
      <trkpt lat="60.5117099" lon="22.1991533">
        <ele>39.0707</ele>
        <time>2013-10-12T12:26:41Z</time>
      </trkpt>
      <trkpt lat="60.5117755" lon="22.1993374">
        <ele>40.9934</ele>
        <time>2013-10-12T12:26:49Z</time>
      </trkpt>
      <trkpt lat="60.5118238" lon="22.199473">
        <ele>39.5513</ele>
        <time>2013-10-12T12:26:55Z</time>
      </trkpt>
      <trkpt lat="60.5118868" lon="22.1996177">
        <ele>37.1481</ele>
        <time>2013-10-12T12:27:01Z</time>
      </trkpt>
      <trkpt lat="60.5119174" lon="22.1997663">
        <ele>37.6287</ele>
        <time>2013-10-12T12:27:07Z</time>
      </trkpt>
      <trkpt lat="60.5119336" lon="22.1999041">
        <ele>37.1481</ele>
        <time>2013-10-12T12:27:11Z</time>
      </trkpt>
      <trkpt lat="60.5119505" lon="22.1999931">
        <ele>35.7061</ele>
        <time>2013-10-12T12:27:14Z</time>
      </trkpt>
      <trkpt lat="60.5119715" lon="22.2001594">
        <ele>38.1094</ele>
        <time>2013-10-12T12:27:19Z</time>
      </trkpt>
      <trkpt lat="60.5119767" lon="22.2001915">
        <ele>39.0707</ele>
        <time>2013-10-12T12:27:20Z</time>
      </trkpt>
      <trkpt lat="60.5119956" lon="22.2003522">
        <ele>40.0321</ele>
        <time>2013-10-12T12:27:25Z</time>
      </trkpt>
      <trkpt lat="60.5120425" lon="22.2005619">
        <ele>40.5128</ele>
        <time>2013-10-12T12:27:31Z</time>
      </trkpt>
      <trkpt lat="60.5121009" lon="22.2007423">
        <ele>37.1481</ele>
        <time>2013-10-12T12:27:37Z</time>
      </trkpt>
      <trkpt lat="60.5121218" lon="22.2008157">
        <ele>35.7061</ele>
        <time>2013-10-12T12:27:41Z</time>
      </trkpt>
      <trkpt lat="60.512201" lon="22.2010007">
        <ele>38.1094</ele>
        <time>2013-10-12T12:27:47Z</time>
      </trkpt>
      <trkpt lat="60.5122577" lon="22.2011204">
        <ele>41.474</ele>
        <time>2013-10-12T12:27:52Z</time>
      </trkpt>
      <trkpt lat="60.5123093" lon="22.2011949">
        <ele>43.8773</ele>
        <time>2013-10-12T12:27:56Z</time>
      </trkpt>
      <trkpt lat="60.5123362" lon="22.2012468">
        <ele>44.8386</ele>
        <time>2013-10-12T12:28:00Z</time>
      </trkpt>
      <trkpt lat="60.5123727" lon="22.2013142">
        <ele>43.3966</ele>
        <time>2013-10-12T12:28:04Z</time>
      </trkpt>
      <trkpt lat="60.5123936" lon="22.2014826">
        <ele>43.3966</ele>
        <time>2013-10-12T12:28:11Z</time>
      </trkpt>
      <trkpt lat="60.5124121" lon="22.2015384">
        <ele>43.3966</ele>
        <time>2013-10-12T12:28:13Z</time>
      </trkpt>
      <trkpt lat="60.5124635" lon="22.2016786">
        <ele>40.5128</ele>
        <time>2013-10-12T12:28:19Z</time>
      </trkpt>
      <trkpt lat="60.5124701" lon="22.2016984">
        <ele>39.0707</ele>
        <time>2013-10-12T12:28:20Z</time>
      </trkpt>
      <trkpt lat="60.5125117" lon="22.2018327">
        <ele>39.5513</ele>
        <time>2013-10-12T12:28:25Z</time>
      </trkpt>
      <trkpt lat="60.5125792" lon="22.2019521">
        <ele>40.9934</ele>
        <time>2013-10-12T12:28:30Z</time>
      </trkpt>
      <trkpt lat="60.5126053" lon="22.2019969">
        <ele>42.4354</ele>
        <time>2013-10-12T12:28:32Z</time>
      </trkpt>
      <trkpt lat="60.5126204" lon="22.2020939">
        <ele>43.8773</ele>
        <time>2013-10-12T12:28:36Z</time>
      </trkpt>
      <trkpt lat="60.5126055" lon="22.2022377">
        <ele>46.7612</ele>
        <time>2013-10-12T12:28:41Z</time>
      </trkpt>
      <trkpt lat="60.5125773" lon="22.2024119">
        <ele>49.1646</ele>
        <time>2013-10-12T12:28:47Z</time>
      </trkpt>
      <trkpt lat="60.5125219" lon="22.2025365">
        <ele>48.2034</ele>
        <time>2013-10-12T12:28:52Z</time>
      </trkpt>
      <trkpt lat="60.5125024" lon="22.2026836">
        <ele>48.684</ele>
        <time>2013-10-12T12:28:57Z</time>
      </trkpt>
      <trkpt lat="60.5125046" lon="22.2027993">
        <ele>48.684</ele>
        <time>2013-10-12T12:29:01Z</time>
      </trkpt>
      <trkpt lat="60.5124984" lon="22.2029619">
        <ele>48.684</ele>
        <time>2013-10-12T12:29:06Z</time>
      </trkpt>
      <trkpt lat="60.5124305" lon="22.2030812">
        <ele>47.2418</ele>
        <time>2013-10-12T12:29:13Z</time>
      </trkpt>
      <trkpt lat="60.512391" lon="22.2031749">
        <ele>46.2806</ele>
        <time>2013-10-12T12:29:18Z</time>
      </trkpt>
      <trkpt lat="60.5123822" lon="22.2032708">
        <ele>46.7612</ele>
        <time>2013-10-12T12:29:21Z</time>
      </trkpt>
      <trkpt lat="60.5123464" lon="22.2034932">
        <ele>44.358</ele>
        <time>2013-10-12T12:29:28Z</time>
      </trkpt>
      <trkpt lat="60.5123521" lon="22.2036087">
        <ele>42.916</ele>
        <time>2013-10-12T12:29:32Z</time>
      </trkpt>
      <trkpt lat="60.5123242" lon="22.2037146">
        <ele>41.474</ele>
        <time>2013-10-12T12:29:36Z</time>
      </trkpt>
      <trkpt lat="60.5123342" lon="22.2038814">
        <ele>41.474</ele>
        <time>2013-10-12T12:29:41Z</time>
      </trkpt>
      <trkpt lat="60.5123274" lon="22.2040005">
        <ele>41.474</ele>
        <time>2013-10-12T12:29:45Z</time>
      </trkpt>
      <trkpt lat="60.5123341" lon="22.2041393">
        <ele>39.0707</ele>
        <time>2013-10-12T12:29:50Z</time>
      </trkpt>
      <trkpt lat="60.5123189" lon="22.2041627">
        <ele>38.5901</ele>
        <time>2013-10-12T12:29:51Z</time>
      </trkpt>
      <trkpt lat="60.5122926" lon="22.2042006">
        <ele>37.6287</ele>
        <time>2013-10-12T12:29:53Z</time>
      </trkpt>
      <trkpt lat="60.5123091" lon="22.2043969">
        <ele>35.7061</ele>
        <time>2013-10-12T12:29:59Z</time>
      </trkpt>
      <trkpt lat="60.5122911" lon="22.2044196">
        <ele>34.7449</ele>
        <time>2013-10-12T12:30:02Z</time>
      </trkpt>
      <trkpt lat="60.5123323" lon="22.204494">
        <ele>32.8223</ele>
        <time>2013-10-12T12:30:08Z</time>
      </trkpt>
      <trkpt lat="60.5123459" lon="22.2044959">
        <ele>33.3029</ele>
        <time>2013-10-12T12:30:09Z</time>
      </trkpt>
      <trkpt lat="60.5124267" lon="22.204474">
        <ele>39.0707</ele>
        <time>2013-10-12T12:30:15Z</time>
      </trkpt>
      <trkpt lat="60.512479" lon="22.2044626">
        <ele>39.5513</ele>
        <time>2013-10-12T12:30:19Z</time>
      </trkpt>
      <trkpt lat="60.5125598" lon="22.2045698">
        <ele>39.5513</ele>
        <time>2013-10-12T12:30:25Z</time>
      </trkpt>
      <trkpt lat="60.5126245" lon="22.2046279">
        <ele>39.5513</ele>
        <time>2013-10-12T12:30:30Z</time>
      </trkpt>
      <trkpt lat="60.5126386" lon="22.2046345">
        <ele>39.0707</ele>
        <time>2013-10-12T12:30:31Z</time>
      </trkpt>
      <trkpt lat="60.5126916" lon="22.2046709">
        <ele>40.0321</ele>
        <time>2013-10-12T12:30:36Z</time>
      </trkpt>
      <trkpt lat="60.5127446" lon="22.204773">
        <ele>35.7061</ele>
        <time>2013-10-12T12:30:42Z</time>
      </trkpt>
      <trkpt lat="60.512789" lon="22.2048463">
        <ele>37.1481</ele>
        <time>2013-10-12T12:30:47Z</time>
      </trkpt>
      <trkpt lat="60.512799" lon="22.2048718">
        <ele>37.6287</ele>
        <time>2013-10-12T12:30:48Z</time>
      </trkpt>
      <trkpt lat="60.5128187" lon="22.2049963">
        <ele>36.6675</ele>
        <time>2013-10-12T12:30:53Z</time>
      </trkpt>
      <trkpt lat="60.5128582" lon="22.2051199">
        <ele>37.1481</ele>
        <time>2013-10-12T12:30:56Z</time>
      </trkpt>
      <trkpt lat="60.5128946" lon="22.2052843">
        <ele>34.7449</ele>
        <time>2013-10-12T12:31:03Z</time>
      </trkpt>
      <trkpt lat="60.5129293" lon="22.2054782">
        <ele>33.3029</ele>
        <time>2013-10-12T12:31:09Z</time>
      </trkpt>
      <trkpt lat="60.5129272" lon="22.2055616">
        <ele>34.7449</ele>
        <time>2013-10-12T12:31:11Z</time>
      </trkpt>
      <trkpt lat="60.5129578" lon="22.2056768">
        <ele>36.6675</ele>
        <time>2013-10-12T12:31:15Z</time>
      </trkpt>
      <trkpt lat="60.5130499" lon="22.2057207">
        <ele>40.9934</ele>
        <time>2013-10-12T12:31:22Z</time>
      </trkpt>
      <trkpt lat="60.5131435" lon="22.2057447">
        <ele>42.916</ele>
        <time>2013-10-12T12:31:27Z</time>
      </trkpt>
      <trkpt lat="60.5131995" lon="22.2058155">
        <ele>41.474</ele>
        <time>2013-10-12T12:31:32Z</time>
      </trkpt>
      <trkpt lat="60.5132126" lon="22.2058337">
        <ele>41.474</ele>
        <time>2013-10-12T12:31:33Z</time>
      </trkpt>
      <trkpt lat="60.5132663" lon="22.2058618">
        <ele>40.9934</ele>
        <time>2013-10-12T12:31:36Z</time>
      </trkpt>
      <trkpt lat="60.513337" lon="22.2059317">
        <ele>40.5128</ele>
        <time>2013-10-12T12:31:40Z</time>
      </trkpt>
      <trkpt lat="60.5133779" lon="22.2059792">
        <ele>39.5513</ele>
        <time>2013-10-12T12:31:43Z</time>
      </trkpt>
      <trkpt lat="60.5134693" lon="22.2060654">
        <ele>35.2255</ele>
        <time>2013-10-12T12:31:50Z</time>
      </trkpt>
      <trkpt lat="60.5134758" lon="22.2060819">
        <ele>35.2255</ele>
        <time>2013-10-12T12:31:51Z</time>
      </trkpt>
      <trkpt lat="60.5135058" lon="22.2062107">
        <ele>33.3029</ele>
        <time>2013-10-12T12:31:56Z</time>
      </trkpt>
      <trkpt lat="60.5135104" lon="22.2063456">
        <ele>32.3416</ele>
        <time>2013-10-12T12:32:01Z</time>
      </trkpt>
      <trkpt lat="60.5135058" lon="22.2064989">
        <ele>30.8995</ele>
        <time>2013-10-12T12:32:07Z</time>
      </trkpt>
      <trkpt lat="60.5135098" lon="22.2065719">
        <ele>26.5736</ele>
        <time>2013-10-12T12:32:11Z</time>
      </trkpt>
      <trkpt lat="60.5135233" lon="22.2067176">
        <ele>20.325</ele>
        <time>2013-10-12T12:32:17Z</time>
      </trkpt>
      <trkpt lat="60.5135467" lon="22.2068367">
        <ele>20.325</ele>
        <time>2013-10-12T12:32:21Z</time>
      </trkpt>
      <trkpt lat="60.5135071" lon="22.2070366">
        <ele>18.4023</ele>
        <time>2013-10-12T12:32:27Z</time>
      </trkpt>
      <trkpt lat="60.5135182" lon="22.2071011">
        <ele>21.767</ele>
        <time>2013-10-12T12:32:29Z</time>
      </trkpt>
      <trkpt lat="60.5136042" lon="22.2072783">
        <ele>27.0543</ele>
        <time>2013-10-12T12:32:35Z</time>
      </trkpt>
      <trkpt lat="60.5137022" lon="22.2073949">
        <ele>31.3801</ele>
        <time>2013-10-12T12:32:41Z</time>
      </trkpt>
      <trkpt lat="60.5137281" lon="22.2074531">
        <ele>33.7834</ele>
        <time>2013-10-12T12:32:43Z</time>
      </trkpt>
      <trkpt lat="60.5137711" lon="22.2075653">
        <ele>34.7449</ele>
        <time>2013-10-12T12:32:47Z</time>
      </trkpt>
      <trkpt lat="60.5138793" lon="22.2076427">
        <ele>37.1481</ele>
        <time>2013-10-12T12:32:53Z</time>
      </trkpt>
      <trkpt lat="60.5139405" lon="22.207667">
        <ele>38.1094</ele>
        <time>2013-10-12T12:32:59Z</time>
      </trkpt>
      <trkpt lat="60.514007" lon="22.2077132">
        <ele>37.6287</ele>
        <time>2013-10-12T12:33:03Z</time>
      </trkpt>
      <trkpt lat="60.5140725" lon="22.2076544">
        <ele>37.6287</ele>
        <time>2013-10-12T12:33:09Z</time>
      </trkpt>
      <trkpt lat="60.5141159" lon="22.2075841">
        <ele>34.7449</ele>
        <time>2013-10-12T12:33:13Z</time>
      </trkpt>
      <trkpt lat="60.5141331" lon="22.2075784">
        <ele>34.2642</ele>
        <time>2013-10-12T12:33:15Z</time>
      </trkpt>
      <trkpt lat="60.5141953" lon="22.2075027">
        <ele>28.9769</ele>
        <time>2013-10-12T12:33:21Z</time>
      </trkpt>
      <trkpt lat="60.5142171" lon="22.2074971">
        <ele>28.4962</ele>
        <time>2013-10-12T12:33:22Z</time>
      </trkpt>
      <trkpt lat="60.5142472" lon="22.2074816">
        <ele>27.5349</ele>
        <time>2013-10-12T12:33:24Z</time>
      </trkpt>
      <trkpt lat="60.5143553" lon="22.20752">
        <ele>27.5349</ele>
        <time>2013-10-12T12:33:29Z</time>
      </trkpt>
      <trkpt lat="60.5144178" lon="22.2075632">
        <ele>27.0543</ele>
        <time>2013-10-12T12:33:33Z</time>
      </trkpt>
      <trkpt lat="60.5144373" lon="22.2075686">
        <ele>27.0543</ele>
        <time>2013-10-12T12:33:35Z</time>
      </trkpt>
      <trkpt lat="60.5144997" lon="22.2075464">
        <ele>26.0929</ele>
        <time>2013-10-12T12:33:41Z</time>
      </trkpt>
      <trkpt lat="60.51456" lon="22.2075047">
        <ele>27.0543</ele>
        <time>2013-10-12T12:33:46Z</time>
      </trkpt>
      <trkpt lat="60.5146263" lon="22.2074272">
        <ele>28.4962</ele>
        <time>2013-10-12T12:33:52Z</time>
      </trkpt>
      <trkpt lat="60.5146435" lon="22.2073408">
        <ele>28.9769</ele>
        <time>2013-10-12T12:33:55Z</time>
      </trkpt>
      <trkpt lat="60.5146688" lon="22.2072452">
        <ele>29.4575</ele>
        <time>2013-10-12T12:33:58Z</time>
      </trkpt>
      <trkpt lat="60.5146693" lon="22.207073">
        <ele>31.8607</ele>
        <time>2013-10-12T12:34:03Z</time>
      </trkpt>
      <trkpt lat="60.5146738" lon="22.2069483">
        <ele>33.3029</ele>
        <time>2013-10-12T12:34:06Z</time>
      </trkpt>
      <trkpt lat="60.5147112" lon="22.2068542">
        <ele>33.7834</ele>
        <time>2013-10-12T12:34:09Z</time>
      </trkpt>
      <trkpt lat="60.5148215" lon="22.206717">
        <ele>31.3801</ele>
        <time>2013-10-12T12:34:14Z</time>
      </trkpt>
      <trkpt lat="60.5149004" lon="22.2066124">
        <ele>26.0929</ele>
        <time>2013-10-12T12:34:19Z</time>
      </trkpt>
      <trkpt lat="60.514942" lon="22.2065565">
        <ele>23.6896</ele>
        <time>2013-10-12T12:34:22Z</time>
      </trkpt>
      <trkpt lat="60.5149604" lon="22.2064339">
        <ele>20.8057</ele>
        <time>2013-10-12T12:34:26Z</time>
      </trkpt>
      <trkpt lat="60.5149569" lon="22.2062905">
        <ele>18.8831</ele>
        <time>2013-10-12T12:34:30Z</time>
      </trkpt>
      <trkpt lat="60.5149672" lon="22.2060804">
        <ele>18.4023</ele>
        <time>2013-10-12T12:34:36Z</time>
      </trkpt>
      <trkpt lat="60.5149964" lon="22.205917">
        <ele>18.4023</ele>
        <time>2013-10-12T12:34:41Z</time>
      </trkpt>
      <trkpt lat="60.5150179" lon="22.2058351">
        <ele>18.4023</ele>
        <time>2013-10-12T12:34:44Z</time>
      </trkpt>
      <trkpt lat="60.515094" lon="22.2057208">
        <ele>19.3638</ele>
        <time>2013-10-12T12:34:51Z</time>
      </trkpt>
      <trkpt lat="60.5151681" lon="22.2056556">
        <ele>21.2864</ele>
        <time>2013-10-12T12:34:57Z</time>
      </trkpt>
      <trkpt lat="60.5151788" lon="22.205657">
        <ele>21.2864</ele>
        <time>2013-10-12T12:34:58Z</time>
      </trkpt>
      <trkpt lat="60.5152506" lon="22.2056389">
        <ele>30.4188</ele>
        <time>2013-10-12T12:35:31Z</time>
      </trkpt>
      <trkpt lat="60.5152612" lon="22.2056284">
        <ele>30.4188</ele>
        <time>2013-10-12T12:35:32Z</time>
      </trkpt>
      <trkpt lat="60.5154307" lon="22.2055685">
        <ele>31.8607</ele>
        <time>2013-10-12T12:35:41Z</time>
      </trkpt>
      <trkpt lat="60.5155359" lon="22.2055639">
        <ele>31.8607</ele>
        <time>2013-10-12T12:35:47Z</time>
      </trkpt>
      <trkpt lat="60.5156331" lon="22.2055484">
        <ele>31.8607</ele>
        <time>2013-10-12T12:35:54Z</time>
      </trkpt>
      <trkpt lat="60.5156591" lon="22.2055448">
        <ele>31.8607</ele>
        <time>2013-10-12T12:35:56Z</time>
      </trkpt>
      <trkpt lat="60.5156719" lon="22.2055466">
        <ele>31.8607</ele>
        <time>2013-10-12T12:36:03Z</time>
      </trkpt>
      <trkpt lat="60.5157897" lon="22.2054821">
        <ele>30.8995</ele>
        <time>2013-10-12T12:36:11Z</time>
      </trkpt>
      <trkpt lat="60.5159103" lon="22.2054909">
        <ele>29.4575</ele>
        <time>2013-10-12T12:36:19Z</time>
      </trkpt>
      <trkpt lat="60.5160574" lon="22.2056415">
        <ele>28.4962</ele>
        <time>2013-10-12T12:36:29Z</time>
      </trkpt>
      <trkpt lat="60.5160979" lon="22.2056819">
        <ele>28.4962</ele>
        <time>2013-10-12T12:36:32Z</time>
      </trkpt>
      <trkpt lat="60.5161197" lon="22.2057084">
        <ele>28.0155</ele>
        <time>2013-10-12T12:36:59Z</time>
      </trkpt>
      <trkpt lat="60.5161254" lon="22.2057125">
        <ele>28.0155</ele>
        <time>2013-10-12T12:37:00Z</time>
      </trkpt>
      <trkpt lat="60.5161923" lon="22.2057732">
        <ele>27.5349</ele>
        <time>2013-10-12T12:37:04Z</time>
      </trkpt>
      <trkpt lat="60.5163296" lon="22.2057824">
        <ele>29.4575</ele>
        <time>2013-10-12T12:37:13Z</time>
      </trkpt>
      <trkpt lat="60.5163689" lon="22.2057618">
        <ele>30.4188</ele>
        <time>2013-10-12T12:37:16Z</time>
      </trkpt>
      <trkpt lat="60.5164098" lon="22.2056723">
        <ele>31.3801</ele>
        <time>2013-10-12T12:37:23Z</time>
      </trkpt>
      <trkpt lat="60.5164599" lon="22.2056245">
        <ele>31.3801</ele>
        <time>2013-10-12T12:37:29Z</time>
      </trkpt>
      <trkpt lat="60.5165264" lon="22.2055283">
        <ele>30.8995</ele>
        <time>2013-10-12T12:37:35Z</time>
      </trkpt>
      <trkpt lat="60.5166298" lon="22.2054033">
        <ele>29.9381</ele>
        <time>2013-10-12T12:37:43Z</time>
      </trkpt>
      <trkpt lat="60.5167002" lon="22.2053151">
        <ele>29.9381</ele>
        <time>2013-10-12T12:37:48Z</time>
      </trkpt>
      <trkpt lat="60.5167527" lon="22.2052468">
        <ele>28.9769</ele>
        <time>2013-10-12T12:37:52Z</time>
      </trkpt>
      <trkpt lat="60.5168339" lon="22.2051102">
        <ele>28.4962</ele>
        <time>2013-10-12T12:37:59Z</time>
      </trkpt>
      <trkpt lat="60.5169117" lon="22.2049094">
        <ele>28.4962</ele>
        <time>2013-10-12T12:38:07Z</time>
      </trkpt>
      <trkpt lat="60.5169449" lon="22.2046023">
        <ele>29.9381</ele>
        <time>2013-10-12T12:38:17Z</time>
      </trkpt>
      <trkpt lat="60.5169578" lon="22.2042661">
        <ele>29.4575</ele>
        <time>2013-10-12T12:38:27Z</time>
      </trkpt>
      <trkpt lat="60.516993" lon="22.2039623">
        <ele>28.9769</ele>
        <time>2013-10-12T12:38:36Z</time>
      </trkpt>
      <trkpt lat="60.5170046" lon="22.2038804">
        <ele>28.4962</ele>
        <time>2013-10-12T12:38:38Z</time>
      </trkpt>
      <trkpt lat="60.5170195" lon="22.2037477">
        <ele>30.8995</ele>
        <time>2013-10-12T12:38:42Z</time>
      </trkpt>
      <trkpt lat="60.5170619" lon="22.203517">
        <ele>31.8607</ele>
        <time>2013-10-12T12:38:50Z</time>
      </trkpt>
      <trkpt lat="60.5170941" lon="22.2033733">
        <ele>30.8995</ele>
        <time>2013-10-12T12:38:54Z</time>
      </trkpt>
      <trkpt lat="60.5171283" lon="22.2031598">
        <ele>31.8607</ele>
        <time>2013-10-12T12:39:01Z</time>
      </trkpt>
      <trkpt lat="60.5172142" lon="22.2031173">
        <ele>31.8607</ele>
        <time>2013-10-12T12:39:04Z</time>
      </trkpt>
      <trkpt lat="60.5172366" lon="22.2029595">
        <ele>29.9381</ele>
        <time>2013-10-12T12:39:09Z</time>
      </trkpt>
      <trkpt lat="60.5172614" lon="22.2028525">
        <ele>29.9381</ele>
        <time>2013-10-12T12:39:13Z</time>
      </trkpt>
      <trkpt lat="60.5172629" lon="22.2027748">
        <ele>30.8995</ele>
        <time>2013-10-12T12:39:15Z</time>
      </trkpt>
      <trkpt lat="60.5172733" lon="22.2026713">
        <ele>31.8607</ele>
        <time>2013-10-12T12:39:18Z</time>
      </trkpt>
      <trkpt lat="60.5173382" lon="22.2026034">
        <ele>33.3029</ele>
        <time>2013-10-12T12:39:22Z</time>
      </trkpt>
      <trkpt lat="60.5173499" lon="22.2024362">
        <ele>34.2642</ele>
        <time>2013-10-12T12:39:27Z</time>
      </trkpt>
      <trkpt lat="60.5173641" lon="22.2023608">
        <ele>34.7449</ele>
        <time>2013-10-12T12:39:29Z</time>
      </trkpt>
      <trkpt lat="60.5173835" lon="22.2022149">
        <ele>32.8223</ele>
        <time>2013-10-12T12:39:34Z</time>
      </trkpt>
      <trkpt lat="60.5174076" lon="22.2020129">
        <ele>30.4188</ele>
        <time>2013-10-12T12:39:41Z</time>
      </trkpt>
      <trkpt lat="60.5174132" lon="22.2019932">
        <ele>30.4188</ele>
        <time>2013-10-12T12:39:42Z</time>
      </trkpt>
      <trkpt lat="60.5174209" lon="22.2019267">
        <ele>29.9381</ele>
        <time>2013-10-12T12:39:45Z</time>
      </trkpt>
      <trkpt lat="60.5173964" lon="22.20197">
        <ele>28.9769</ele>
        <time>2013-10-12T12:39:48Z</time>
      </trkpt>
      <trkpt lat="60.5173743" lon="22.2020507">
        <ele>41.474</ele>
        <time>2013-10-12T12:40:14Z</time>
      </trkpt>
      <trkpt lat="60.5173701" lon="22.2020636">
        <ele>40.9934</ele>
        <time>2013-10-12T12:40:15Z</time>
      </trkpt>
      <trkpt lat="60.5173568" lon="22.2022174">
        <ele>36.1868</ele>
        <time>2013-10-12T12:40:19Z</time>
      </trkpt>
      <trkpt lat="60.5173866" lon="22.2024088">
        <ele>32.8223</ele>
        <time>2013-10-12T12:40:24Z</time>
      </trkpt>
      <trkpt lat="60.5173873" lon="22.2024561">
        <ele>31.3801</ele>
        <time>2013-10-12T12:40:26Z</time>
      </trkpt>
      <trkpt lat="60.5174088" lon="22.2024859">
        <ele>29.9381</ele>
        <time>2013-10-12T12:40:29Z</time>
      </trkpt>
      <trkpt lat="60.5174929" lon="22.2025175">
        <ele>28.0155</ele>
        <time>2013-10-12T12:40:36Z</time>
      </trkpt>
      <trkpt lat="60.5175062" lon="22.2025242">
        <ele>28.0155</ele>
        <time>2013-10-12T12:40:37Z</time>
      </trkpt>
      <trkpt lat="60.5176344" lon="22.20263">
        <ele>30.4188</ele>
        <time>2013-10-12T12:40:46Z</time>
      </trkpt>
      <trkpt lat="60.517724" lon="22.202677">
        <ele>29.9381</ele>
        <time>2013-10-12T12:40:52Z</time>
      </trkpt>
      <trkpt lat="60.5178088" lon="22.2027317">
        <ele>28.9769</ele>
        <time>2013-10-12T12:40:58Z</time>
      </trkpt>
      <trkpt lat="60.5179146" lon="22.2028081">
        <ele>32.3416</ele>
        <time>2013-10-12T12:41:05Z</time>
      </trkpt>
      <trkpt lat="60.5180032" lon="22.2028522">
        <ele>33.3029</ele>
        <time>2013-10-12T12:41:10Z</time>
      </trkpt>
      <trkpt lat="60.5180554" lon="22.2028811">
        <ele>34.2642</ele>
        <time>2013-10-12T12:41:13Z</time>
      </trkpt>
      <trkpt lat="60.5181325" lon="22.202923">
        <ele>33.7834</ele>
        <time>2013-10-12T12:41:18Z</time>
      </trkpt>
      <trkpt lat="60.51819" lon="22.202962">
        <ele>34.2642</ele>
        <time>2013-10-12T12:41:22Z</time>
      </trkpt>
      <trkpt lat="60.5182747" lon="22.2030226">
        <ele>34.7449</ele>
        <time>2013-10-12T12:41:28Z</time>
      </trkpt>
      <trkpt lat="60.5183906" lon="22.2030847">
        <ele>34.2642</ele>
        <time>2013-10-12T12:41:35Z</time>
      </trkpt>
      <trkpt lat="60.5185096" lon="22.2031402">
        <ele>32.3416</ele>
        <time>2013-10-12T12:41:43Z</time>
      </trkpt>
      <trkpt lat="60.5186498" lon="22.2032437">
        <ele>34.2642</ele>
        <time>2013-10-12T12:41:51Z</time>
      </trkpt>
      <trkpt lat="60.5187336" lon="22.2033316">
        <ele>35.2255</ele>
        <time>2013-10-12T12:41:56Z</time>
      </trkpt>
      <trkpt lat="60.5188175" lon="22.2034318">
        <ele>35.2255</ele>
        <time>2013-10-12T12:42:02Z</time>
      </trkpt>
      <trkpt lat="60.5188816" lon="22.203414">
        <ele>35.2255</ele>
        <time>2013-10-12T12:42:06Z</time>
      </trkpt>
      <trkpt lat="60.5189241" lon="22.2032432">
        <ele>33.7834</ele>
        <time>2013-10-12T12:42:12Z</time>
      </trkpt>
      <trkpt lat="60.5189588" lon="22.2030531">
        <ele>33.3029</ele>
        <time>2013-10-12T12:42:18Z</time>
      </trkpt>
      <trkpt lat="60.5189734" lon="22.2028478">
        <ele>33.3029</ele>
        <time>2013-10-12T12:42:25Z</time>
      </trkpt>
      <trkpt lat="60.5189822" lon="22.2026988">
        <ele>32.8223</ele>
        <time>2013-10-12T12:42:30Z</time>
      </trkpt>
      <trkpt lat="60.5190361" lon="22.2025318">
        <ele>30.8995</ele>
        <time>2013-10-12T12:42:36Z</time>
      </trkpt>
      <trkpt lat="60.5190924" lon="22.2024292">
        <ele>30.4188</ele>
        <time>2013-10-12T12:42:41Z</time>
      </trkpt>
      <trkpt lat="60.5191607" lon="22.2022184">
        <ele>33.3029</ele>
        <time>2013-10-12T12:42:48Z</time>
      </trkpt>
      <trkpt lat="60.5191906" lon="22.2021601">
        <ele>34.2642</ele>
        <time>2013-10-12T12:42:50Z</time>
      </trkpt>
      <trkpt lat="60.5192619" lon="22.2020104">
        <ele>36.1868</ele>
        <time>2013-10-12T12:42:57Z</time>
      </trkpt>
      <trkpt lat="60.5192914" lon="22.2019625">
        <ele>36.6675</ele>
        <time>2013-10-12T12:42:59Z</time>
      </trkpt>
      <trkpt lat="60.5193469" lon="22.201873">
        <ele>37.6287</ele>
        <time>2013-10-12T12:43:04Z</time>
      </trkpt>
      <trkpt lat="60.5193504" lon="22.2018429">
        <ele>38.5901</ele>
        <time>2013-10-12T12:43:05Z</time>
      </trkpt>
      <trkpt lat="60.5194337" lon="22.2017232">
        <ele>38.1094</ele>
        <time>2013-10-12T12:43:12Z</time>
      </trkpt>
      <trkpt lat="60.5195142" lon="22.2016328">
        <ele>39.5513</ele>
        <time>2013-10-12T12:43:18Z</time>
      </trkpt>
      <trkpt lat="60.5195312" lon="22.2016216">
        <ele>40.0321</ele>
        <time>2013-10-12T12:43:19Z</time>
      </trkpt>
      <trkpt lat="60.5196037" lon="22.2015286">
        <ele>41.474</ele>
        <time>2013-10-12T12:43:25Z</time>
      </trkpt>
      <trkpt lat="60.5196202" lon="22.2015167">
        <ele>42.4354</ele>
        <time>2013-10-12T12:43:26Z</time>
      </trkpt>
      <trkpt lat="60.5197121" lon="22.2014127">
        <ele>40.9934</ele>
        <time>2013-10-12T12:43:34Z</time>
      </trkpt>
      <trkpt lat="60.5197494" lon="22.201282">
        <ele>41.9547</ele>
        <time>2013-10-12T12:43:39Z</time>
      </trkpt>
      <trkpt lat="60.5198255" lon="22.201199">
        <ele>40.0321</ele>
        <time>2013-10-12T12:43:45Z</time>
      </trkpt>
      <trkpt lat="60.5198613" lon="22.2011787">
        <ele>40.5128</ele>
        <time>2013-10-12T12:43:48Z</time>
      </trkpt>
      <trkpt lat="60.5199581" lon="22.2010503">
        <ele>40.0321</ele>
        <time>2013-10-12T12:43:55Z</time>
      </trkpt>
      <trkpt lat="60.5200254" lon="22.2009809">
        <ele>37.6287</ele>
        <time>2013-10-12T12:44:00Z</time>
      </trkpt>
      <trkpt lat="60.5201249" lon="22.200861">
        <ele>39.5513</ele>
        <time>2013-10-12T12:44:08Z</time>
      </trkpt>
      <trkpt lat="60.5202203" lon="22.2007728">
        <ele>40.0321</ele>
        <time>2013-10-12T12:44:15Z</time>
      </trkpt>
      <trkpt lat="60.5202403" lon="22.2007323">
        <ele>40.0321</ele>
        <time>2013-10-12T12:44:17Z</time>
      </trkpt>
      <trkpt lat="60.5203192" lon="22.2006952">
        <ele>38.5901</ele>
        <time>2013-10-12T12:44:21Z</time>
      </trkpt>
      <trkpt lat="60.5204326" lon="22.200619">
        <ele>38.5901</ele>
        <time>2013-10-12T12:44:28Z</time>
      </trkpt>
      <trkpt lat="60.5205299" lon="22.2005158">
        <ele>39.5513</ele>
        <time>2013-10-12T12:44:35Z</time>
      </trkpt>
      <trkpt lat="60.5206164" lon="22.200434">
        <ele>38.1094</ele>
        <time>2013-10-12T12:44:40Z</time>
      </trkpt>
      <trkpt lat="60.5206604" lon="22.2003786">
        <ele>39.0707</ele>
        <time>2013-10-12T12:44:43Z</time>
      </trkpt>
      <trkpt lat="60.5207637" lon="22.2002673">
        <ele>40.5128</ele>
        <time>2013-10-12T12:44:50Z</time>
      </trkpt>
      <trkpt lat="60.5208862" lon="22.2001927">
        <ele>40.5128</ele>
        <time>2013-10-12T12:44:57Z</time>
      </trkpt>
      <trkpt lat="60.5209532" lon="22.2000431">
        <ele>39.5513</ele>
        <time>2013-10-12T12:45:03Z</time>
      </trkpt>
      <trkpt lat="60.5209704" lon="22.1998565">
        <ele>39.0707</ele>
        <time>2013-10-12T12:45:07Z</time>
      </trkpt>
      <trkpt lat="60.520957" lon="22.1997444">
        <ele>38.1094</ele>
        <time>2013-10-12T12:45:09Z</time>
      </trkpt>
      <trkpt lat="60.5209707" lon="22.1997043">
        <ele>38.5901</ele>
        <time>2013-10-12T12:45:11Z</time>
      </trkpt>
      <trkpt lat="60.5210071" lon="22.199577">
        <ele>37.1481</ele>
        <time>2013-10-12T12:45:16Z</time>
      </trkpt>
      <trkpt lat="60.5210121" lon="22.1994072">
        <ele>37.6287</ele>
        <time>2013-10-12T12:45:21Z</time>
      </trkpt>
      <trkpt lat="60.5210603" lon="22.1991533">
        <ele>37.1481</ele>
        <time>2013-10-12T12:45:29Z</time>
      </trkpt>
      <trkpt lat="60.5210799" lon="22.199055">
        <ele>36.6675</ele>
        <time>2013-10-12T12:45:32Z</time>
      </trkpt>
      <trkpt lat="60.521047" lon="22.1989073">
        <ele>39.0707</ele>
        <time>2013-10-12T12:45:37Z</time>
      </trkpt>
      <trkpt lat="60.5210637" lon="22.1988422">
        <ele>41.474</ele>
        <time>2013-10-12T12:45:39Z</time>
      </trkpt>
      <trkpt lat="60.5210936" lon="22.1987429">
        <ele>41.9547</ele>
        <time>2013-10-12T12:45:42Z</time>
      </trkpt>
      <trkpt lat="60.5211309" lon="22.1985801">
        <ele>41.474</ele>
        <time>2013-10-12T12:45:47Z</time>
      </trkpt>
      <trkpt lat="60.5211749" lon="22.198478">
        <ele>40.9934</ele>
        <time>2013-10-12T12:45:51Z</time>
      </trkpt>
      <trkpt lat="60.521176" lon="22.1983577">
        <ele>40.5128</ele>
        <time>2013-10-12T12:45:55Z</time>
      </trkpt>
      <trkpt lat="60.521177" lon="22.1983263">
        <ele>40.5128</ele>
        <time>2013-10-12T12:45:56Z</time>
      </trkpt>
      <trkpt lat="60.5211812" lon="22.1981937">
        <ele>39.5513</ele>
        <time>2013-10-12T12:46:00Z</time>
      </trkpt>
      <trkpt lat="60.5211837" lon="22.1980269">
        <ele>39.5513</ele>
        <time>2013-10-12T12:46:05Z</time>
      </trkpt>
      <trkpt lat="60.5212133" lon="22.1977958">
        <ele>37.6287</ele>
        <time>2013-10-12T12:46:12Z</time>
      </trkpt>
      <trkpt lat="60.5212418" lon="22.1975856">
        <ele>37.6287</ele>
        <time>2013-10-12T12:46:19Z</time>
      </trkpt>
      <trkpt lat="60.5212568" lon="22.1974556">
        <ele>39.0707</ele>
        <time>2013-10-12T12:46:23Z</time>
      </trkpt>
      <trkpt lat="60.5212581" lon="22.1973223">
        <ele>40.0321</ele>
        <time>2013-10-12T12:46:27Z</time>
      </trkpt>
      <trkpt lat="60.5212571" lon="22.1971772">
        <ele>40.9934</ele>
        <time>2013-10-12T12:46:31Z</time>
      </trkpt>
      <trkpt lat="60.521278" lon="22.1970243">
        <ele>40.9934</ele>
        <time>2013-10-12T12:46:36Z</time>
      </trkpt>
      <trkpt lat="60.5212511" lon="22.1969033">
        <ele>41.9547</ele>
        <time>2013-10-12T12:46:39Z</time>
      </trkpt>
      <trkpt lat="60.5212609" lon="22.1967996">
        <ele>42.916</ele>
        <time>2013-10-12T12:46:42Z</time>
      </trkpt>
      <trkpt lat="60.5212721" lon="22.1966982">
        <ele>44.8386</ele>
        <time>2013-10-12T12:46:45Z</time>
      </trkpt>
      <trkpt lat="60.5213076" lon="22.1964977">
        <ele>44.8386</ele>
        <time>2013-10-12T12:46:51Z</time>
      </trkpt>
      <trkpt lat="60.5213625" lon="22.1962672">
        <ele>44.358</ele>
        <time>2013-10-12T12:46:59Z</time>
      </trkpt>
      <trkpt lat="60.5213879" lon="22.1961487">
        <ele>43.8773</ele>
        <time>2013-10-12T12:47:03Z</time>
      </trkpt>
      <trkpt lat="60.5214655" lon="22.1961827">
        <ele>43.8773</ele>
        <time>2013-10-12T12:47:08Z</time>
      </trkpt>
      <trkpt lat="60.5215148" lon="22.1962796">
        <ele>44.358</ele>
        <time>2013-10-12T12:47:12Z</time>
      </trkpt>
      <trkpt lat="60.5215461" lon="22.1963045">
        <ele>40.9934</ele>
        <time>2013-10-12T12:47:16Z</time>
      </trkpt>
      <trkpt lat="60.5216182" lon="22.1962162">
        <ele>40.5128</ele>
        <time>2013-10-12T12:47:22Z</time>
      </trkpt>
      <trkpt lat="60.5216468" lon="22.196183">
        <ele>42.4354</ele>
        <time>2013-10-12T12:47:24Z</time>
      </trkpt>
      <trkpt lat="60.5216793" lon="22.1961546">
        <ele>42.916</ele>
        <time>2013-10-12T12:47:26Z</time>
      </trkpt>
      <trkpt lat="60.5217918" lon="22.1960755">
        <ele>49.1646</ele>
        <time>2013-10-12T12:47:31Z</time>
      </trkpt>
      <trkpt lat="60.5218432" lon="22.195913">
        <ele>46.7612</ele>
        <time>2013-10-12T12:47:37Z</time>
      </trkpt>
      <trkpt lat="60.5218441" lon="22.1957554">
        <ele>44.358</ele>
        <time>2013-10-12T12:47:43Z</time>
      </trkpt>
      <trkpt lat="60.5218618" lon="22.1956522">
        <ele>44.358</ele>
        <time>2013-10-12T12:47:47Z</time>
      </trkpt>
      <trkpt lat="60.521909" lon="22.195501">
        <ele>46.2806</ele>
        <time>2013-10-12T12:47:53Z</time>
      </trkpt>
      <trkpt lat="60.5219298" lon="22.195338">
        <ele>45.7999</ele>
        <time>2013-10-12T12:47:58Z</time>
      </trkpt>
      <trkpt lat="60.5219341" lon="22.1953097">
        <ele>45.7999</ele>
        <time>2013-10-12T12:47:59Z</time>
      </trkpt>
      <trkpt lat="60.5219514" lon="22.1951908">
        <ele>43.8773</ele>
        <time>2013-10-12T12:48:03Z</time>
      </trkpt>
      <trkpt lat="60.5220131" lon="22.1950006">
        <ele>40.9934</ele>
        <time>2013-10-12T12:48:10Z</time>
      </trkpt>
      <trkpt lat="60.5220048" lon="22.1948494">
        <ele>40.0321</ele>
        <time>2013-10-12T12:48:14Z</time>
      </trkpt>
      <trkpt lat="60.5219803" lon="22.1946912">
        <ele>39.0707</ele>
        <time>2013-10-12T12:48:19Z</time>
      </trkpt>
      <trkpt lat="60.5220005" lon="22.194629">
        <ele>41.474</ele>
        <time>2013-10-12T12:48:23Z</time>
      </trkpt>
      <trkpt lat="60.5220013" lon="22.1946204">
        <ele>41.474</ele>
        <time>2013-10-12T12:48:24Z</time>
      </trkpt>
      <trkpt lat="60.5219969" lon="22.1945961">
        <ele>48.684</ele>
        <time>2013-10-12T12:48:40Z</time>
      </trkpt>
      <trkpt lat="60.5219929" lon="22.1945831">
        <ele>48.684</ele>
        <time>2013-10-12T12:48:41Z</time>
      </trkpt>
      <trkpt lat="60.5219995" lon="22.1944863">
        <ele>45.7999</ele>
        <time>2013-10-12T12:48:45Z</time>
      </trkpt>
      <trkpt lat="60.5220053" lon="22.1944592">
        <ele>45.7999</ele>
        <time>2013-10-12T12:48:46Z</time>
      </trkpt>
      <trkpt lat="60.5220338" lon="22.194227">
        <ele>47.2418</ele>
        <time>2013-10-12T12:48:53Z</time>
      </trkpt>
      <trkpt lat="60.5220079" lon="22.1941561">
        <ele>46.2806</ele>
        <time>2013-10-12T12:48:55Z</time>
      </trkpt>
      <trkpt lat="60.5220093" lon="22.1940059">
        <ele>47.2418</ele>
        <time>2013-10-12T12:48:59Z</time>
      </trkpt>
      <trkpt lat="60.5220074" lon="22.1939051">
        <ele>46.7612</ele>
        <time>2013-10-12T12:49:02Z</time>
      </trkpt>
      <trkpt lat="60.5220044" lon="22.1938803">
        <ele>46.2806</ele>
        <time>2013-10-12T12:49:04Z</time>
      </trkpt>
      <trkpt lat="60.522012" lon="22.1937922">
        <ele>44.8386</ele>
        <time>2013-10-12T12:49:07Z</time>
      </trkpt>
      <trkpt lat="60.5219956" lon="22.1937124">
        <ele>42.916</ele>
        <time>2013-10-12T12:49:10Z</time>
      </trkpt>
      <trkpt lat="60.5219929" lon="22.1934959">
        <ele>40.5128</ele>
        <time>2013-10-12T12:49:16Z</time>
      </trkpt>
      <trkpt lat="60.5220052" lon="22.1933685">
        <ele>42.916</ele>
        <time>2013-10-12T12:49:20Z</time>
      </trkpt>
      <trkpt lat="60.522024" lon="22.1932125">
        <ele>41.474</ele>
        <time>2013-10-12T12:49:28Z</time>
      </trkpt>
      <trkpt lat="60.5220178" lon="22.1930814">
        <ele>40.0321</ele>
        <time>2013-10-12T12:49:32Z</time>
      </trkpt>
      <trkpt lat="60.5220064" lon="22.1929597">
        <ele>39.0707</ele>
        <time>2013-10-12T12:49:38Z</time>
      </trkpt>
      <trkpt lat="60.5219676" lon="22.1928256">
        <ele>40.9934</ele>
        <time>2013-10-12T12:49:42Z</time>
      </trkpt>
      <trkpt lat="60.5219671" lon="22.1927586">
        <ele>41.474</ele>
        <time>2013-10-12T12:49:45Z</time>
      </trkpt>
      <trkpt lat="60.521995" lon="22.1926137">
        <ele>40.0321</ele>
        <time>2013-10-12T12:49:51Z</time>
      </trkpt>
      <trkpt lat="60.5220005" lon="22.1925509">
        <ele>39.5513</ele>
        <time>2013-10-12T12:49:53Z</time>
      </trkpt>
      <trkpt lat="60.5220002" lon="22.1924189">
        <ele>40.5128</ele>
        <time>2013-10-12T12:49:56Z</time>
      </trkpt>
      <trkpt lat="60.5220186" lon="22.1922043">
        <ele>41.474</ele>
        <time>2013-10-12T12:50:03Z</time>
      </trkpt>
      <trkpt lat="60.5220281" lon="22.1921692">
        <ele>42.4354</ele>
        <time>2013-10-12T12:50:05Z</time>
      </trkpt>
      <trkpt lat="60.522044" lon="22.1921139">
        <ele>42.4354</ele>
        <time>2013-10-12T12:50:08Z</time>
      </trkpt>
      <trkpt lat="60.5221103" lon="22.1919387">
        <ele>39.5513</ele>
        <time>2013-10-12T12:50:15Z</time>
      </trkpt>
      <trkpt lat="60.5221772" lon="22.1918013">
        <ele>37.6287</ele>
        <time>2013-10-12T12:50:21Z</time>
      </trkpt>
      <trkpt lat="60.5221902" lon="22.1916812">
        <ele>35.7061</ele>
        <time>2013-10-12T12:50:24Z</time>
      </trkpt>
      <trkpt lat="60.5222049" lon="22.1914464">
        <ele>34.7449</ele>
        <time>2013-10-12T12:50:31Z</time>
      </trkpt>
      <trkpt lat="60.522248" lon="22.1912953">
        <ele>36.6675</ele>
        <time>2013-10-12T12:50:37Z</time>
      </trkpt>
      <trkpt lat="60.5223069" lon="22.1911556">
        <ele>39.5513</ele>
        <time>2013-10-12T12:50:43Z</time>
      </trkpt>
      <trkpt lat="60.5223114" lon="22.1910363">
        <ele>38.5901</ele>
        <time>2013-10-12T12:50:47Z</time>
      </trkpt>
      <trkpt lat="60.5223736" lon="22.1909253">
        <ele>40.9934</ele>
        <time>2013-10-12T12:50:51Z</time>
      </trkpt>
      <trkpt lat="60.5223766" lon="22.1907377">
        <ele>45.3192</ele>
        <time>2013-10-12T12:50:57Z</time>
      </trkpt>
      <trkpt lat="60.522356" lon="22.1904867">
        <ele>40.9934</ele>
        <time>2013-10-12T12:51:05Z</time>
      </trkpt>
      <trkpt lat="60.5223224" lon="22.1902561">
        <ele>42.4354</ele>
        <time>2013-10-12T12:51:12Z</time>
      </trkpt>
      <trkpt lat="60.5223249" lon="22.1902516">
        <ele>42.916</ele>
        <time>2013-10-12T12:51:13Z</time>
      </trkpt>
      <trkpt lat="60.5223449" lon="22.1902234">
        <ele>43.3966</ele>
        <time>2013-10-12T12:51:15Z</time>
      </trkpt>
      <trkpt lat="60.5223545" lon="22.1901236">
        <ele>43.8773</ele>
        <time>2013-10-12T12:51:20Z</time>
      </trkpt>
      <trkpt lat="60.5223221" lon="22.1900338">
        <ele>43.8773</ele>
        <time>2013-10-12T12:51:25Z</time>
      </trkpt>
      <trkpt lat="60.5222727" lon="22.1899436">
        <ele>43.8773</ele>
        <time>2013-10-12T12:51:29Z</time>
      </trkpt>
      <trkpt lat="60.5222273" lon="22.189706">
        <ele>40.5128</ele>
        <time>2013-10-12T12:51:35Z</time>
      </trkpt>
      <trkpt lat="60.5222408" lon="22.1896019">
        <ele>40.5128</ele>
        <time>2013-10-12T12:51:38Z</time>
      </trkpt>
      <trkpt lat="60.5222445" lon="22.1894769">
        <ele>37.1481</ele>
        <time>2013-10-12T12:51:43Z</time>
      </trkpt>
      <trkpt lat="60.5222506" lon="22.1893331">
        <ele>39.5513</ele>
        <time>2013-10-12T12:51:48Z</time>
      </trkpt>
      <trkpt lat="60.5222591" lon="22.1891698">
        <ele>46.7612</ele>
        <time>2013-10-12T12:51:57Z</time>
      </trkpt>
      <trkpt lat="60.522258" lon="22.189071">
        <ele>50.126</ele>
        <time>2013-10-12T12:52:03Z</time>
      </trkpt>
      <trkpt lat="60.5222768" lon="22.1888941">
        <ele>49.6453</ele>
        <time>2013-10-12T12:52:10Z</time>
      </trkpt>
      <trkpt lat="60.5223001" lon="22.1886777">
        <ele>44.8386</ele>
        <time>2013-10-12T12:52:17Z</time>
      </trkpt>
      <trkpt lat="60.5223369" lon="22.1885188">
        <ele>45.3192</ele>
        <time>2013-10-12T12:52:22Z</time>
      </trkpt>
      <trkpt lat="60.5223441" lon="22.18844">
        <ele>45.3192</ele>
        <time>2013-10-12T12:52:24Z</time>
      </trkpt>
      <trkpt lat="60.5223758" lon="22.1882782">
        <ele>47.7225</ele>
        <time>2013-10-12T12:52:29Z</time>
      </trkpt>
      <trkpt lat="60.5223993" lon="22.188215">
        <ele>48.2034</ele>
        <time>2013-10-12T12:52:32Z</time>
      </trkpt>
      <trkpt lat="60.5224056" lon="22.1881023">
        <ele>49.6453</ele>
        <time>2013-10-12T12:52:36Z</time>
      </trkpt>
      <trkpt lat="60.5224247" lon="22.187994">
        <ele>49.1646</ele>
        <time>2013-10-12T12:52:41Z</time>
      </trkpt>
      <trkpt lat="60.5224663" lon="22.1878614">
        <ele>50.126</ele>
        <time>2013-10-12T12:52:45Z</time>
      </trkpt>
      <trkpt lat="60.5224497" lon="22.1876848">
        <ele>49.1646</ele>
        <time>2013-10-12T12:52:50Z</time>
      </trkpt>
      <trkpt lat="60.5224657" lon="22.1876237">
        <ele>50.6066</ele>
        <time>2013-10-12T12:52:52Z</time>
      </trkpt>
      <trkpt lat="60.5224687" lon="22.1875123">
        <ele>49.6453</ele>
        <time>2013-10-12T12:52:57Z</time>
      </trkpt>
      <trkpt lat="60.5224445" lon="22.1873308">
        <ele>49.6453</ele>
        <time>2013-10-12T12:53:03Z</time>
      </trkpt>
      <trkpt lat="60.5224415" lon="22.1873061">
        <ele>48.684</ele>
        <time>2013-10-12T12:53:04Z</time>
      </trkpt>
      <trkpt lat="60.5224433" lon="22.1872241">
        <ele>45.3192</ele>
        <time>2013-10-12T12:53:08Z</time>
      </trkpt>
      <trkpt lat="60.5224436" lon="22.1871673">
        <ele>44.8386</ele>
        <time>2013-10-12T12:53:10Z</time>
      </trkpt>
      <trkpt lat="60.5224638" lon="22.1870781">
        <ele>44.358</ele>
        <time>2013-10-12T12:53:14Z</time>
      </trkpt>
      <trkpt lat="60.5225053" lon="22.1869074">
        <ele>45.3192</ele>
        <time>2013-10-12T12:53:21Z</time>
      </trkpt>
      <trkpt lat="60.5225048" lon="22.1868482">
        <ele>43.8773</ele>
        <time>2013-10-12T12:53:23Z</time>
      </trkpt>
      <trkpt lat="60.5225418" lon="22.1867819">
        <ele>43.3966</ele>
        <time>2013-10-12T12:53:27Z</time>
      </trkpt>
      <trkpt lat="60.5225633" lon="22.1866753">
        <ele>42.916</ele>
        <time>2013-10-12T12:53:34Z</time>
      </trkpt>
      <trkpt lat="60.5225467" lon="22.1865737">
        <ele>45.3192</ele>
        <time>2013-10-12T12:53:39Z</time>
      </trkpt>
      <trkpt lat="60.5225288" lon="22.1864846">
        <ele>46.2806</ele>
        <time>2013-10-12T12:53:43Z</time>
      </trkpt>
      <trkpt lat="60.5225082" lon="22.1863602">
        <ele>46.2806</ele>
        <time>2013-10-12T12:53:47Z</time>
      </trkpt>
      <trkpt lat="60.5225136" lon="22.186308">
        <ele>46.2806</ele>
        <time>2013-10-12T12:53:49Z</time>
      </trkpt>
      <trkpt lat="60.5224974" lon="22.1862115">
        <ele>42.4354</ele>
        <time>2013-10-12T12:53:56Z</time>
      </trkpt>
      <trkpt lat="60.5224849" lon="22.1861728">
        <ele>42.916</ele>
        <time>2013-10-12T12:53:59Z</time>
      </trkpt>
      <trkpt lat="60.522459" lon="22.1860969">
        <ele>40.9934</ele>
        <time>2013-10-12T12:54:03Z</time>
      </trkpt>
      <trkpt lat="60.5224208" lon="22.1858774">
        <ele>40.9934</ele>
        <time>2013-10-12T12:54:09Z</time>
      </trkpt>
      <trkpt lat="60.5223917" lon="22.1857464">
        <ele>40.5128</ele>
        <time>2013-10-12T12:54:12Z</time>
      </trkpt>
      <trkpt lat="60.5223249" lon="22.1856087">
        <ele>40.0321</ele>
        <time>2013-10-12T12:54:16Z</time>
      </trkpt>
      <trkpt lat="60.5223059" lon="22.1855181">
        <ele>40.5128</ele>
        <time>2013-10-12T12:54:19Z</time>
      </trkpt>
      <trkpt lat="60.5223051" lon="22.185453">
        <ele>41.474</ele>
        <time>2013-10-12T12:54:21Z</time>
      </trkpt>
      <trkpt lat="60.5223035" lon="22.1853661">
        <ele>41.474</ele>
        <time>2013-10-12T12:54:24Z</time>
      </trkpt>
      <trkpt lat="60.5223224" lon="22.1852701">
        <ele>45.3192</ele>
        <time>2013-10-12T12:54:27Z</time>
      </trkpt>
      <trkpt lat="60.5223461" lon="22.1850432">
        <ele>48.684</ele>
        <time>2013-10-12T12:54:33Z</time>
      </trkpt>
      <trkpt lat="60.5223341" lon="22.1849387">
        <ele>49.1646</ele>
        <time>2013-10-12T12:54:36Z</time>
      </trkpt>
      <trkpt lat="60.5223332" lon="22.1848808">
        <ele>49.1646</ele>
        <time>2013-10-12T12:54:38Z</time>
      </trkpt>
      <trkpt lat="60.5223379" lon="22.1848259">
        <ele>50.126</ele>
        <time>2013-10-12T12:54:40Z</time>
      </trkpt>
      <trkpt lat="60.522339" lon="22.184748">
        <ele>51.5679</ele>
        <time>2013-10-12T12:54:44Z</time>
      </trkpt>
      <trkpt lat="60.5223295" lon="22.1847037">
        <ele>53.4905</ele>
        <time>2013-10-12T12:54:47Z</time>
      </trkpt>
      <trkpt lat="60.5223197" lon="22.1846271">
        <ele>54.9324</ele>
        <time>2013-10-12T12:54:51Z</time>
      </trkpt>
      <trkpt lat="60.5222913" lon="22.1844782">
        <ele>54.4518</ele>
        <time>2013-10-12T12:54:56Z</time>
      </trkpt>
      <trkpt lat="60.5222582" lon="22.1843417">
        <ele>53.0098</ele>
        <time>2013-10-12T12:55:01Z</time>
      </trkpt>
      <trkpt lat="60.5222233" lon="22.1842187">
        <ele>52.0486</ele>
        <time>2013-10-12T12:55:04Z</time>
      </trkpt>
      <trkpt lat="60.522197" lon="22.1840691">
        <ele>51.0872</ele>
        <time>2013-10-12T12:55:08Z</time>
      </trkpt>
      <trkpt lat="60.5221971" lon="22.1839568">
        <ele>49.1646</ele>
        <time>2013-10-12T12:55:13Z</time>
      </trkpt>
      <trkpt lat="60.5221846" lon="22.1838468">
        <ele>47.7225</ele>
        <time>2013-10-12T12:55:18Z</time>
      </trkpt>
      <trkpt lat="60.5221442" lon="22.183749">
        <ele>46.7612</ele>
        <time>2013-10-12T12:55:22Z</time>
      </trkpt>
      <trkpt lat="60.5221923" lon="22.1836353">
        <ele>43.8773</ele>
        <time>2013-10-12T12:55:27Z</time>
      </trkpt>
      <trkpt lat="60.5222622" lon="22.1835361">
        <ele>43.8773</ele>
        <time>2013-10-12T12:55:32Z</time>
      </trkpt>
      <trkpt lat="60.5222969" lon="22.1834879">
        <ele>44.8386</ele>
        <time>2013-10-12T12:55:35Z</time>
      </trkpt>
      <trkpt lat="60.5223222" lon="22.1834117">
        <ele>44.8386</ele>
        <time>2013-10-12T12:55:38Z</time>
      </trkpt>
      <trkpt lat="60.5224052" lon="22.1832689">
        <ele>44.8386</ele>
        <time>2013-10-12T12:55:45Z</time>
      </trkpt>
      <trkpt lat="60.5224208" lon="22.1832597">
        <ele>44.8386</ele>
        <time>2013-10-12T12:55:46Z</time>
      </trkpt>
      <trkpt lat="60.5225026" lon="22.1832499">
        <ele>42.916</ele>
        <time>2013-10-12T12:55:52Z</time>
      </trkpt>
      <trkpt lat="60.5225166" lon="22.183234">
        <ele>41.474</ele>
        <time>2013-10-12T12:55:54Z</time>
      </trkpt>
      <trkpt lat="60.5225979" lon="22.183224">
        <ele>40.0321</ele>
        <time>2013-10-12T12:55:59Z</time>
      </trkpt>
      <trkpt lat="60.5226777" lon="22.1831428">
        <ele>39.5513</ele>
        <time>2013-10-12T12:56:06Z</time>
      </trkpt>
      <trkpt lat="60.5226894" lon="22.1831201">
        <ele>37.6287</ele>
        <time>2013-10-12T12:56:08Z</time>
      </trkpt>
      <trkpt lat="60.5227886" lon="22.1830176">
        <ele>39.0707</ele>
        <time>2013-10-12T12:56:14Z</time>
      </trkpt>
      <trkpt lat="60.5228036" lon="22.182989">
        <ele>37.1481</ele>
        <time>2013-10-12T12:56:16Z</time>
      </trkpt>
      <trkpt lat="60.5228399" lon="22.1829552">
        <ele>36.1868</ele>
        <time>2013-10-12T12:56:19Z</time>
      </trkpt>
      <trkpt lat="60.5228871" lon="22.1829272">
        <ele>32.3416</ele>
        <time>2013-10-12T12:56:24Z</time>
      </trkpt>
      <trkpt lat="60.5229337" lon="22.1828521">
        <ele>27.5349</ele>
        <time>2013-10-12T12:56:29Z</time>
      </trkpt>
      <trkpt lat="60.5229394" lon="22.1827742">
        <ele>24.651</ele>
        <time>2013-10-12T12:56:32Z</time>
      </trkpt>
      <trkpt lat="60.5229337" lon="22.1827003">
        <ele>22.7283</ele>
        <time>2013-10-12T12:56:34Z</time>
      </trkpt>
      <trkpt lat="60.5230117" lon="22.1825354">
        <ele>40.0321</ele>
        <time>2013-10-12T12:56:40Z</time>
      </trkpt>
      <trkpt lat="60.5230174" lon="22.1825144">
        <ele>41.9547</ele>
        <time>2013-10-12T12:56:41Z</time>
      </trkpt>
      <trkpt lat="60.5230294" lon="22.1824304">
        <ele>46.7612</ele>
        <time>2013-10-12T12:57:09Z</time>
      </trkpt>
      <trkpt lat="60.5230294" lon="22.1824249">
        <ele>46.2806</ele>
        <time>2013-10-12T12:57:10Z</time>
      </trkpt>
      <trkpt lat="60.523007" lon="22.1823503">
        <ele>47.2418</ele>
        <time>2013-10-12T12:57:14Z</time>
      </trkpt>
      <trkpt lat="60.5229377" lon="22.1822383">
        <ele>51.5679</ele>
        <time>2013-10-12T12:57:19Z</time>
      </trkpt>
      <trkpt lat="60.522903" lon="22.1821312">
        <ele>54.4518</ele>
        <time>2013-10-12T12:57:22Z</time>
      </trkpt>
      <trkpt lat="60.5228544" lon="22.1820093">
        <ele>59.2584</ele>
        <time>2013-10-12T12:57:26Z</time>
      </trkpt>
      <trkpt lat="60.5228502" lon="22.1818935">
        <ele>59.7391</ele>
        <time>2013-10-12T12:57:29Z</time>
      </trkpt>
      <trkpt lat="60.5228218" lon="22.1818266">
        <ele>63.5844</ele>
        <time>2013-10-12T12:57:33Z</time>
      </trkpt>
      <trkpt lat="60.5227869" lon="22.1817068">
        <ele>65.0264</ele>
        <time>2013-10-12T12:57:38Z</time>
      </trkpt>
      <trkpt lat="60.5227036" lon="22.1814959">
        <ele>63.1036</ele>
        <time>2013-10-12T12:57:46Z</time>
      </trkpt>
      <trkpt lat="60.5227057" lon="22.1814846">
        <ele>63.1036</ele>
        <time>2013-10-12T12:57:47Z</time>
      </trkpt>
      <trkpt lat="60.5226734" lon="22.1813229">
        <ele>61.6617</ele>
        <time>2013-10-12T12:57:53Z</time>
      </trkpt>
      <trkpt lat="60.5226316" lon="22.1811946">
        <ele>60.7003</ele>
        <time>2013-10-12T12:57:57Z</time>
      </trkpt>
      <trkpt lat="60.5226044" lon="22.1810753">
        <ele>59.2584</ele>
        <time>2013-10-12T12:58:00Z</time>
      </trkpt>
      <trkpt lat="60.522585" lon="22.1810418">
        <ele>58.7777</ele>
        <time>2013-10-12T12:58:01Z</time>
      </trkpt>
      <trkpt lat="60.522546" lon="22.1809492">
        <ele>59.7391</ele>
        <time>2013-10-12T12:58:04Z</time>
      </trkpt>
      <trkpt lat="60.5225553" lon="22.1808973">
        <ele>60.7003</ele>
        <time>2013-10-12T12:58:07Z</time>
      </trkpt>
      <trkpt lat="60.5225925" lon="22.1808823">
        <ele>62.1423</ele>
        <time>2013-10-12T12:58:12Z</time>
      </trkpt>
      <trkpt lat="60.5225306" lon="22.1808144">
        <ele>61.6617</ele>
        <time>2013-10-12T12:58:16Z</time>
      </trkpt>
      <trkpt lat="60.5224632" lon="22.1807393">
        <ele>61.6617</ele>
        <time>2013-10-12T12:58:19Z</time>
      </trkpt>
      <trkpt lat="60.5224534" lon="22.1806367">
        <ele>59.2584</ele>
        <time>2013-10-12T12:58:23Z</time>
      </trkpt>
      <trkpt lat="60.5224419" lon="22.180528">
        <ele>54.9324</ele>
        <time>2013-10-12T12:58:30Z</time>
      </trkpt>
      <trkpt lat="60.5224268" lon="22.1804569">
        <ele>51.5679</ele>
        <time>2013-10-12T12:58:35Z</time>
      </trkpt>
      <trkpt lat="60.5224232" lon="22.1803605">
        <ele>49.1646</ele>
        <time>2013-10-12T12:58:39Z</time>
      </trkpt>
      <trkpt lat="60.5224159" lon="22.1803633">
        <ele>50.6066</ele>
        <time>2013-10-12T12:58:45Z</time>
      </trkpt>
      <trkpt lat="60.5224544" lon="22.1804358">
        <ele>49.1646</ele>
        <time>2013-10-12T12:58:50Z</time>
      </trkpt>
      <trkpt lat="60.5224979" lon="22.180571">
        <ele>49.1646</ele>
        <time>2013-10-12T12:58:55Z</time>
      </trkpt>
      <trkpt lat="60.5225922" lon="22.1806921">
        <ele>50.126</ele>
        <time>2013-10-12T12:59:00Z</time>
      </trkpt>
      <trkpt lat="60.522657" lon="22.1807469">
        <ele>50.126</ele>
        <time>2013-10-12T12:59:04Z</time>
      </trkpt>
      <trkpt lat="60.5227212" lon="22.1806505">
        <ele>48.2034</ele>
        <time>2013-10-12T12:59:09Z</time>
      </trkpt>
      <trkpt lat="60.5227652" lon="22.1804105">
        <ele>47.2418</ele>
        <time>2013-10-12T12:59:16Z</time>
      </trkpt>
      <trkpt lat="60.5227772" lon="22.1803544">
        <ele>47.2418</ele>
        <time>2013-10-12T12:59:18Z</time>
      </trkpt>
      <trkpt lat="60.5228127" lon="22.1802256">
        <ele>49.6453</ele>
        <time>2013-10-12T12:59:22Z</time>
      </trkpt>
      <trkpt lat="60.5228388" lon="22.1801624">
        <ele>50.6066</ele>
        <time>2013-10-12T12:59:24Z</time>
      </trkpt>
      <trkpt lat="60.5228666" lon="22.1799644">
        <ele>49.1646</ele>
        <time>2013-10-12T12:59:30Z</time>
      </trkpt>
      <trkpt lat="60.5228723" lon="22.1799323">
        <ele>48.684</ele>
        <time>2013-10-12T12:59:31Z</time>
      </trkpt>
      <trkpt lat="60.5228994" lon="22.1798487">
        <ele>49.1646</ele>
        <time>2013-10-12T12:59:34Z</time>
      </trkpt>
      <trkpt lat="60.5229605" lon="22.1796613">
        <ele>48.684</ele>
        <time>2013-10-12T12:59:41Z</time>
      </trkpt>
      <trkpt lat="60.5229842" lon="22.1795924">
        <ele>47.7225</ele>
        <time>2013-10-12T12:59:45Z</time>
      </trkpt>
      <trkpt lat="60.5230206" lon="22.1794261">
        <ele>45.7999</ele>
        <time>2013-10-12T12:59:50Z</time>
      </trkpt>
      <trkpt lat="60.523125" lon="22.1792983">
        <ele>42.916</ele>
        <time>2013-10-12T12:59:57Z</time>
      </trkpt>
      <trkpt lat="60.5232547" lon="22.1792246">
        <ele>47.7225</ele>
        <time>2013-10-12T13:00:03Z</time>
      </trkpt>
      <trkpt lat="60.5233559" lon="22.1791897">
        <ele>48.684</ele>
        <time>2013-10-12T13:00:08Z</time>
      </trkpt>
      <trkpt lat="60.5234367" lon="22.179151">
        <ele>48.684</ele>
        <time>2013-10-12T13:00:12Z</time>
      </trkpt>
      <trkpt lat="60.5235236" lon="22.1791126">
        <ele>48.2034</ele>
        <time>2013-10-12T13:00:17Z</time>
      </trkpt>
      <trkpt lat="60.5235395" lon="22.1790988">
        <ele>47.7225</ele>
        <time>2013-10-12T13:00:18Z</time>
      </trkpt>
      <trkpt lat="60.5236255" lon="22.1790725">
        <ele>44.8386</ele>
        <time>2013-10-12T13:00:24Z</time>
      </trkpt>
      <trkpt lat="60.5237054" lon="22.1790303">
        <ele>43.8773</ele>
        <time>2013-10-12T13:00:30Z</time>
      </trkpt>
      <trkpt lat="60.5238501" lon="22.1789701">
        <ele>47.7225</ele>
        <time>2013-10-12T13:00:37Z</time>
      </trkpt>
      <trkpt lat="60.5239606" lon="22.1789366">
        <ele>48.684</ele>
        <time>2013-10-12T13:00:44Z</time>
      </trkpt>
      <trkpt lat="60.5240432" lon="22.1788936">
        <ele>43.8773</ele>
        <time>2013-10-12T13:00:50Z</time>
      </trkpt>
      <trkpt lat="60.5240768" lon="22.178895">
        <ele>42.916</ele>
        <time>2013-10-12T13:00:52Z</time>
      </trkpt>
      <trkpt lat="60.5241619" lon="22.1788351">
        <ele>47.7225</ele>
        <time>2013-10-12T13:00:56Z</time>
      </trkpt>
      <trkpt lat="60.5242036" lon="22.1787397">
        <ele>44.8386</ele>
        <time>2013-10-12T13:01:00Z</time>
      </trkpt>
      <trkpt lat="60.5242695" lon="22.1785915">
        <ele>42.916</ele>
        <time>2013-10-12T13:01:04Z</time>
      </trkpt>
      <trkpt lat="60.5242856" lon="22.1785607">
        <ele>45.7999</ele>
        <time>2013-10-12T13:01:06Z</time>
      </trkpt>
      <trkpt lat="60.5242555" lon="22.1785922">
        <ele>47.7225</ele>
        <time>2013-10-12T13:01:08Z</time>
      </trkpt>
      <trkpt lat="60.5242478" lon="22.1784797">
        <ele>50.6066</ele>
        <time>2013-10-12T13:01:13Z</time>
      </trkpt>
      <trkpt lat="60.5242311" lon="22.1783984">
        <ele>50.126</ele>
        <time>2013-10-12T13:01:17Z</time>
      </trkpt>
      <trkpt lat="60.5241913" lon="22.1782828">
        <ele>46.2806</ele>
        <time>2013-10-12T13:01:24Z</time>
      </trkpt>
      <trkpt lat="60.5241374" lon="22.1781906">
        <ele>46.7612</ele>
        <time>2013-10-12T13:01:30Z</time>
      </trkpt>
      <trkpt lat="60.5241189" lon="22.1780996">
        <ele>44.8386</ele>
        <time>2013-10-12T13:01:34Z</time>
      </trkpt>
      <trkpt lat="60.5240945" lon="22.1780414">
        <ele>44.358</ele>
        <time>2013-10-12T13:01:38Z</time>
      </trkpt>
      <trkpt lat="60.524079" lon="22.1780195">
        <ele>48.684</ele>
        <time>2013-10-12T13:01:44Z</time>
      </trkpt>
      <trkpt lat="60.5240742" lon="22.178012">
        <ele>48.684</ele>
        <time>2013-10-12T13:01:45Z</time>
      </trkpt>
      <trkpt lat="60.5240116" lon="22.177938">
        <ele>65.5071</ele>
        <time>2013-10-12T13:02:33Z</time>
      </trkpt>
      <trkpt lat="60.5240533" lon="22.1780021">
        <ele>63.5844</ele>
        <time>2013-10-12T13:02:36Z</time>
      </trkpt>
      <trkpt lat="60.5241119" lon="22.1781202">
        <ele>61.6617</ele>
        <time>2013-10-12T13:02:40Z</time>
      </trkpt>
      <trkpt lat="60.5241927" lon="22.1782957">
        <ele>59.7391</ele>
        <time>2013-10-12T13:02:46Z</time>
      </trkpt>
      <trkpt lat="60.5242276" lon="22.1783687">
        <ele>59.2584</ele>
        <time>2013-10-12T13:02:49Z</time>
      </trkpt>
      <trkpt lat="60.5242942" lon="22.1783315">
        <ele>57.3358</ele>
        <time>2013-10-12T13:02:55Z</time>
      </trkpt>
      <trkpt lat="60.5242838" lon="22.1781563">
        <ele>55.8938</ele>
        <time>2013-10-12T13:02:59Z</time>
      </trkpt>
      <trkpt lat="60.5242652" lon="22.1780607">
        <ele>55.8938</ele>
        <time>2013-10-12T13:03:03Z</time>
      </trkpt>
      <trkpt lat="60.5242787" lon="22.1779529">
        <ele>54.9324</ele>
        <time>2013-10-12T13:03:06Z</time>
      </trkpt>
      <trkpt lat="60.5242888" lon="22.1778225">
        <ele>53.4905</ele>
        <time>2013-10-12T13:03:10Z</time>
      </trkpt>
      <trkpt lat="60.5242757" lon="22.1776754">
        <ele>54.9324</ele>
        <time>2013-10-12T13:03:15Z</time>
      </trkpt>
      <trkpt lat="60.5242871" lon="22.1776173">
        <ele>55.4131</ele>
        <time>2013-10-12T13:03:17Z</time>
      </trkpt>
      <trkpt lat="60.5243123" lon="22.1774656">
        <ele>52.5292</ele>
        <time>2013-10-12T13:03:23Z</time>
      </trkpt>
      <trkpt lat="60.5243415" lon="22.1773255">
        <ele>52.5292</ele>
        <time>2013-10-12T13:03:28Z</time>
      </trkpt>
      <trkpt lat="60.5243522" lon="22.1771531">
        <ele>50.126</ele>
        <time>2013-10-12T13:03:34Z</time>
      </trkpt>
      <trkpt lat="60.5243503" lon="22.1770443">
        <ele>49.1646</ele>
        <time>2013-10-12T13:03:38Z</time>
      </trkpt>
      <trkpt lat="60.5243522" lon="22.1769599">
        <ele>48.684</ele>
        <time>2013-10-12T13:03:41Z</time>
      </trkpt>
      <trkpt lat="60.5243592" lon="22.1768657">
        <ele>46.7612</ele>
        <time>2013-10-12T13:03:44Z</time>
      </trkpt>
      <trkpt lat="60.5243774" lon="22.176715">
        <ele>45.3192</ele>
        <time>2013-10-12T13:03:48Z</time>
      </trkpt>
      <trkpt lat="60.5243916" lon="22.1766593">
        <ele>44.358</ele>
        <time>2013-10-12T13:03:51Z</time>
      </trkpt>
      <trkpt lat="60.5243988" lon="22.1764634">
        <ele>42.4354</ele>
        <time>2013-10-12T13:03:57Z</time>
      </trkpt>
      <trkpt lat="60.5243918" lon="22.1764008">
        <ele>41.474</ele>
        <time>2013-10-12T13:03:59Z</time>
      </trkpt>
      <trkpt lat="60.5244138" lon="22.1762212">
        <ele>41.474</ele>
        <time>2013-10-12T13:04:05Z</time>
      </trkpt>
      <trkpt lat="60.5244265" lon="22.176073">
        <ele>40.0321</ele>
        <time>2013-10-12T13:04:10Z</time>
      </trkpt>
      <trkpt lat="60.5243966" lon="22.1758969">
        <ele>37.1481</ele>
        <time>2013-10-12T13:04:15Z</time>
      </trkpt>
      <trkpt lat="60.5243993" lon="22.1758405">
        <ele>36.1868</ele>
        <time>2013-10-12T13:04:17Z</time>
      </trkpt>
      <trkpt lat="60.5244249" lon="22.1756996">
        <ele>38.1094</ele>
        <time>2013-10-12T13:04:23Z</time>
      </trkpt>
      <trkpt lat="60.524437" lon="22.1754934">
        <ele>37.6287</ele>
        <time>2013-10-12T13:04:29Z</time>
      </trkpt>
      <trkpt lat="60.5244515" lon="22.1754177">
        <ele>38.1094</ele>
        <time>2013-10-12T13:04:31Z</time>
      </trkpt>
      <trkpt lat="60.5244602" lon="22.1753417">
        <ele>39.0707</ele>
        <time>2013-10-12T13:04:33Z</time>
      </trkpt>
      <trkpt lat="60.5244655" lon="22.1751416">
        <ele>38.5901</ele>
        <time>2013-10-12T13:04:39Z</time>
      </trkpt>
      <trkpt lat="60.5244129" lon="22.1748459">
        <ele>40.0321</ele>
        <time>2013-10-12T13:04:47Z</time>
      </trkpt>
      <trkpt lat="60.5244083" lon="22.1747795">
        <ele>38.1094</ele>
        <time>2013-10-12T13:04:49Z</time>
      </trkpt>
      <trkpt lat="60.5244104" lon="22.1746145">
        <ele>34.7449</ele>
        <time>2013-10-12T13:04:54Z</time>
      </trkpt>
      <trkpt lat="60.524404" lon="22.174472">
        <ele>32.3416</ele>
        <time>2013-10-12T13:04:58Z</time>
      </trkpt>
      <trkpt lat="60.5244059" lon="22.1744398">
        <ele>31.3801</ele>
        <time>2013-10-12T13:04:59Z</time>
      </trkpt>
      <trkpt lat="60.5243849" lon="22.1742885">
        <ele>34.2642</ele>
        <time>2013-10-12T13:05:04Z</time>
      </trkpt>
      <trkpt lat="60.5243286" lon="22.1740887">
        <ele>36.6675</ele>
        <time>2013-10-12T13:05:09Z</time>
      </trkpt>
      <trkpt lat="60.5243261" lon="22.1740521">
        <ele>36.6675</ele>
        <time>2013-10-12T13:05:10Z</time>
      </trkpt>
      <trkpt lat="60.5243305" lon="22.1739799">
        <ele>37.1481</ele>
        <time>2013-10-12T13:05:12Z</time>
      </trkpt>
      <trkpt lat="60.524342" lon="22.1739304">
        <ele>39.0707</ele>
        <time>2013-10-12T13:05:14Z</time>
      </trkpt>
      <trkpt lat="60.5243838" lon="22.1738627">
        <ele>39.5513</ele>
        <time>2013-10-12T13:05:18Z</time>
      </trkpt>
      <trkpt lat="60.5244502" lon="22.1737202">
        <ele>40.0321</ele>
        <time>2013-10-12T13:05:23Z</time>
      </trkpt>
      <trkpt lat="60.524516" lon="22.1735825">
        <ele>43.8773</ele>
        <time>2013-10-12T13:05:29Z</time>
      </trkpt>
      <trkpt lat="60.5245281" lon="22.1735674">
        <ele>44.8386</ele>
        <time>2013-10-12T13:05:30Z</time>
      </trkpt>
      <trkpt lat="60.5245701" lon="22.1733706">
        <ele>47.2418</ele>
        <time>2013-10-12T13:05:37Z</time>
      </trkpt>
      <trkpt lat="60.5245815" lon="22.1732965">
        <ele>46.7612</ele>
        <time>2013-10-12T13:05:41Z</time>
      </trkpt>
      <trkpt lat="60.5246789" lon="22.1731824">
        <ele>51.5679</ele>
        <time>2013-10-12T13:05:49Z</time>
      </trkpt>
      <trkpt lat="60.5247136" lon="22.1731264">
        <ele>52.0486</ele>
        <time>2013-10-12T13:05:53Z</time>
      </trkpt>
      <trkpt lat="60.5247249" lon="22.1730458">
        <ele>53.4905</ele>
        <time>2013-10-12T13:05:57Z</time>
      </trkpt>
      <trkpt lat="60.5247394" lon="22.1729618">
        <ele>54.4518</ele>
        <time>2013-10-12T13:06:00Z</time>
      </trkpt>
      <trkpt lat="60.5247579" lon="22.172899">
        <ele>54.9324</ele>
        <time>2013-10-12T13:06:03Z</time>
      </trkpt>
      <trkpt lat="60.5248005" lon="22.1727926">
        <ele>54.9324</ele>
        <time>2013-10-12T13:06:08Z</time>
      </trkpt>
      <trkpt lat="60.5248228" lon="22.1727967">
        <ele>56.3745</ele>
        <time>2013-10-12T13:06:10Z</time>
      </trkpt>
      <trkpt lat="60.5248284" lon="22.1727672">
        <ele>55.8938</ele>
        <time>2013-10-12T13:06:14Z</time>
      </trkpt>
      <trkpt lat="60.5248177" lon="22.172626">
        <ele>53.9712</ele>
        <time>2013-10-12T13:06:19Z</time>
      </trkpt>
      <trkpt lat="60.5248189" lon="22.1726015">
        <ele>53.9712</ele>
        <time>2013-10-12T13:06:20Z</time>
      </trkpt>
      <trkpt lat="60.5248047" lon="22.1724307">
        <ele>53.9712</ele>
        <time>2013-10-12T13:06:27Z</time>
      </trkpt>
      <trkpt lat="60.5248068" lon="22.1722926">
        <ele>53.4905</ele>
        <time>2013-10-12T13:06:32Z</time>
      </trkpt>
      <trkpt lat="60.5247988" lon="22.1721848">
        <ele>53.4905</ele>
        <time>2013-10-12T13:06:37Z</time>
      </trkpt>
      <trkpt lat="60.5247897" lon="22.1720264">
        <ele>60.2197</ele>
        <time>2013-10-12T13:07:08Z</time>
      </trkpt>
      <trkpt lat="60.5247946" lon="22.1720155">
        <ele>59.7391</ele>
        <time>2013-10-12T13:07:09Z</time>
      </trkpt>
      <trkpt lat="60.5248009" lon="22.171933">
        <ele>60.2197</ele>
        <time>2013-10-12T13:07:13Z</time>
      </trkpt>
      <trkpt lat="60.5248083" lon="22.171814">
        <ele>59.7391</ele>
        <time>2013-10-12T13:07:20Z</time>
      </trkpt>
      <trkpt lat="60.5248311" lon="22.1717617">
        <ele>61.181</ele>
        <time>2013-10-12T13:07:25Z</time>
      </trkpt>
      <trkpt lat="60.5248673" lon="22.1716953">
        <ele>59.2584</ele>
        <time>2013-10-12T13:07:31Z</time>
      </trkpt>
      <trkpt lat="60.5249191" lon="22.1716033">
        <ele>62.6229</ele>
        <time>2013-10-12T13:07:38Z</time>
      </trkpt>
      <trkpt lat="60.5249543" lon="22.1715758">
        <ele>64.5457</ele>
        <time>2013-10-12T13:07:44Z</time>
      </trkpt>
      <trkpt lat="60.5249814" lon="22.1715335">
        <ele>66.4683</ele>
        <time>2013-10-12T13:07:50Z</time>
      </trkpt>
      <trkpt lat="60.5250041" lon="22.171489">
        <ele>67.9103</ele>
        <time>2013-10-12T13:07:58Z</time>
      </trkpt>
      <trkpt lat="60.5250455" lon="22.1713985">
        <ele>69.3523</ele>
        <time>2013-10-12T13:08:05Z</time>
      </trkpt>
      <trkpt lat="60.5250823" lon="22.1712872">
        <ele>72.7169</ele>
        <time>2013-10-12T13:08:11Z</time>
      </trkpt>
      <trkpt lat="60.5251195" lon="22.1712348">
        <ele>75.6008</ele>
        <time>2013-10-12T13:08:17Z</time>
      </trkpt>
      <trkpt lat="60.5251525" lon="22.1712417">
        <ele>76.0814</ele>
        <time>2013-10-12T13:08:21Z</time>
      </trkpt>
      <trkpt lat="60.5251639" lon="22.1712343">
        <ele>76.0814</ele>
        <time>2013-10-12T13:08:26Z</time>
      </trkpt>
      <trkpt lat="60.5251751" lon="22.1712443">
        <ele>77.0428</ele>
        <time>2013-10-12T13:08:30Z</time>
      </trkpt>
      <trkpt lat="60.5251647" lon="22.1712666">
        <ele>72.2362</ele>
        <time>2013-10-12T13:27:42Z</time>
      </trkpt>
      <trkpt lat="60.5251637" lon="22.1712679">
        <ele>72.2362</ele>
        <time>2013-10-12T13:27:43Z</time>
      </trkpt>
      <trkpt lat="60.5251528" lon="22.1712683">
        <ele>71.7555</ele>
        <time>2013-10-12T13:27:44Z</time>
      </trkpt>
      <trkpt lat="60.5251275" lon="22.1712176">
        <ele>71.7555</ele>
        <time>2013-10-12T13:27:48Z</time>
      </trkpt>
      <trkpt lat="60.5251035" lon="22.1711531">
        <ele>71.2749</ele>
        <time>2013-10-12T13:27:54Z</time>
      </trkpt>
      <trkpt lat="60.5250788" lon="22.1712569">
        <ele>70.3135</ele>
        <time>2013-10-12T13:27:59Z</time>
      </trkpt>
      <trkpt lat="60.5250897" lon="22.1713113">
        <ele>69.3523</ele>
        <time>2013-10-12T13:28:02Z</time>
      </trkpt>
      <trkpt lat="60.5250619" lon="22.1714017">
        <ele>67.4297</ele>
        <time>2013-10-12T13:28:08Z</time>
      </trkpt>
      <trkpt lat="60.5250284" lon="22.1714655">
        <ele>64.5457</ele>
        <time>2013-10-12T13:28:15Z</time>
      </trkpt>
      <trkpt lat="60.5249683" lon="22.1715482">
        <ele>60.7003</ele>
        <time>2013-10-12T13:28:23Z</time>
      </trkpt>
      <trkpt lat="60.5249425" lon="22.1716031">
        <ele>59.2584</ele>
        <time>2013-10-12T13:28:26Z</time>
      </trkpt>
      <trkpt lat="60.5249103" lon="22.1716861">
        <ele>57.8165</ele>
        <time>2013-10-12T13:28:30Z</time>
      </trkpt>
      <trkpt lat="60.5248834" lon="22.1718414">
        <ele>56.8551</ele>
        <time>2013-10-12T13:28:35Z</time>
      </trkpt>
      <trkpt lat="60.524887" lon="22.1719348">
        <ele>55.8938</ele>
        <time>2013-10-12T13:28:39Z</time>
      </trkpt>
      <trkpt lat="60.52489" lon="22.1720182">
        <ele>55.4131</ele>
        <time>2013-10-12T13:28:42Z</time>
      </trkpt>
      <trkpt lat="60.5248661" lon="22.1721451">
        <ele>54.9324</ele>
        <time>2013-10-12T13:28:48Z</time>
      </trkpt>
      <trkpt lat="60.5248559" lon="22.1722428">
        <ele>53.0098</ele>
        <time>2013-10-12T13:28:51Z</time>
      </trkpt>
      <trkpt lat="60.524851" lon="22.1724168">
        <ele>53.0098</ele>
        <time>2013-10-12T13:28:56Z</time>
      </trkpt>
      <trkpt lat="60.524841" lon="22.1725924">
        <ele>51.5679</ele>
        <time>2013-10-12T13:29:02Z</time>
      </trkpt>
      <trkpt lat="60.5248103" lon="22.1727483">
        <ele>49.1646</ele>
        <time>2013-10-12T13:29:07Z</time>
      </trkpt>
      <trkpt lat="60.5247773" lon="22.1728635">
        <ele>47.7225</ele>
        <time>2013-10-12T13:29:12Z</time>
      </trkpt>
      <trkpt lat="60.5247607" lon="22.1729407">
        <ele>49.1646</ele>
        <time>2013-10-12T13:29:16Z</time>
      </trkpt>
      <trkpt lat="60.5247399" lon="22.1729842">
        <ele>47.7225</ele>
        <time>2013-10-12T13:29:18Z</time>
      </trkpt>
      <trkpt lat="60.524674" lon="22.173141">
        <ele>47.7225</ele>
        <time>2013-10-12T13:29:24Z</time>
      </trkpt>
      <trkpt lat="60.5246148" lon="22.1732503">
        <ele>46.2806</ele>
        <time>2013-10-12T13:29:28Z</time>
      </trkpt>
      <trkpt lat="60.5245859" lon="22.1733964">
        <ele>46.2806</ele>
        <time>2013-10-12T13:29:33Z</time>
      </trkpt>
      <trkpt lat="60.5245689" lon="22.1734952">
        <ele>45.7999</ele>
        <time>2013-10-12T13:29:36Z</time>
      </trkpt>
      <trkpt lat="60.5244924" lon="22.1736426">
        <ele>37.6287</ele>
        <time>2013-10-12T13:29:42Z</time>
      </trkpt>
      <trkpt lat="60.5244186" lon="22.1738051">
        <ele>37.1481</ele>
        <time>2013-10-12T13:29:48Z</time>
      </trkpt>
      <trkpt lat="60.524403" lon="22.1738353">
        <ele>37.1481</ele>
        <time>2013-10-12T13:29:49Z</time>
      </trkpt>
      <trkpt lat="60.5243828" lon="22.1738923">
        <ele>37.6287</ele>
        <time>2013-10-12T13:29:51Z</time>
      </trkpt>
      <trkpt lat="60.5243685" lon="22.1740285">
        <ele>36.1868</ele>
        <time>2013-10-12T13:29:55Z</time>
      </trkpt>
      <trkpt lat="60.5243952" lon="22.1741923">
        <ele>35.2255</ele>
        <time>2013-10-12T13:30:00Z</time>
      </trkpt>
      <trkpt lat="60.5244014" lon="22.1743574">
        <ele>36.6675</ele>
        <time>2013-10-12T13:30:05Z</time>
      </trkpt>
      <trkpt lat="60.5243954" lon="22.1745034">
        <ele>36.1868</ele>
        <time>2013-10-12T13:30:09Z</time>
      </trkpt>
      <trkpt lat="60.5243937" lon="22.1745491">
        <ele>35.7061</ele>
        <time>2013-10-12T13:30:10Z</time>
      </trkpt>
      <trkpt lat="60.5243768" lon="22.174783">
        <ele>38.5901</ele>
        <time>2013-10-12T13:30:15Z</time>
      </trkpt>
      <trkpt lat="60.5243928" lon="22.1750675">
        <ele>40.5128</ele>
        <time>2013-10-12T13:30:22Z</time>
      </trkpt>
      <trkpt lat="60.5243861" lon="22.1752573">
        <ele>39.5513</ele>
        <time>2013-10-12T13:30:27Z</time>
      </trkpt>
      <trkpt lat="60.5243983" lon="22.1753252">
        <ele>39.0707</ele>
        <time>2013-10-12T13:30:29Z</time>
      </trkpt>
      <trkpt lat="60.5243721" lon="22.1755515">
        <ele>38.5901</ele>
        <time>2013-10-12T13:30:35Z</time>
      </trkpt>
      <trkpt lat="60.5243669" lon="22.1756985">
        <ele>36.6675</ele>
        <time>2013-10-12T13:30:40Z</time>
      </trkpt>
      <trkpt lat="60.5243706" lon="22.1757812">
        <ele>36.6675</ele>
        <time>2013-10-12T13:30:43Z</time>
      </trkpt>
      <trkpt lat="60.5243595" lon="22.1759007">
        <ele>35.7061</ele>
        <time>2013-10-12T13:30:46Z</time>
      </trkpt>
      <trkpt lat="60.5243716" lon="22.1761285">
        <ele>38.1094</ele>
        <time>2013-10-12T13:30:52Z</time>
      </trkpt>
      <trkpt lat="60.5243823" lon="22.1762544">
        <ele>36.6675</ele>
        <time>2013-10-12T13:30:57Z</time>
      </trkpt>
      <trkpt lat="60.5243825" lon="22.1764541">
        <ele>36.6675</ele>
        <time>2013-10-12T13:31:02Z</time>
      </trkpt>
      <trkpt lat="60.5244111" lon="22.1765622">
        <ele>35.2255</ele>
        <time>2013-10-12T13:31:05Z</time>
      </trkpt>
      <trkpt lat="60.5244161" lon="22.1767435">
        <ele>33.3029</ele>
        <time>2013-10-12T13:31:11Z</time>
      </trkpt>
      <trkpt lat="60.524424" lon="22.1768323">
        <ele>32.3416</ele>
        <time>2013-10-12T13:31:14Z</time>
      </trkpt>
      <trkpt lat="60.5244327" lon="22.1770265">
        <ele>31.8607</ele>
        <time>2013-10-12T13:31:20Z</time>
      </trkpt>
      <trkpt lat="60.5244317" lon="22.1770867">
        <ele>31.3801</ele>
        <time>2013-10-12T13:31:22Z</time>
      </trkpt>
      <trkpt lat="60.5244467" lon="22.1772413">
        <ele>31.3801</ele>
        <time>2013-10-12T13:31:27Z</time>
      </trkpt>
      <trkpt lat="60.5244492" lon="22.1773392">
        <ele>32.8223</ele>
        <time>2013-10-12T13:31:30Z</time>
      </trkpt>
      <trkpt lat="60.5244107" lon="22.1774903">
        <ele>32.8223</ele>
        <time>2013-10-12T13:31:35Z</time>
      </trkpt>
      <trkpt lat="60.524376" lon="22.1776966">
        <ele>36.6675</ele>
        <time>2013-10-12T13:31:41Z</time>
      </trkpt>
      <trkpt lat="60.5243788" lon="22.1778864">
        <ele>39.5513</ele>
        <time>2013-10-12T13:31:46Z</time>
      </trkpt>
      <trkpt lat="60.5243696" lon="22.1780331">
        <ele>40.9934</ele>
        <time>2013-10-12T13:31:50Z</time>
      </trkpt>
      <trkpt lat="60.5243617" lon="22.1780603">
        <ele>41.474</ele>
        <time>2013-10-12T13:31:51Z</time>
      </trkpt>
      <trkpt lat="60.5243585" lon="22.178313">
        <ele>46.2806</ele>
        <time>2013-10-12T13:31:59Z</time>
      </trkpt>
      <trkpt lat="60.5243441" lon="22.178504">
        <ele>47.7225</ele>
        <time>2013-10-12T13:32:05Z</time>
      </trkpt>
      <trkpt lat="60.5243327" lon="22.1786808">
        <ele>49.1646</ele>
        <time>2013-10-12T13:32:13Z</time>
      </trkpt>
      <trkpt lat="60.5243089" lon="22.1787113">
        <ele>50.126</ele>
        <time>2013-10-12T13:32:16Z</time>
      </trkpt>
      <trkpt lat="60.5241735" lon="22.1788391">
        <ele>46.2806</ele>
        <time>2013-10-12T13:32:25Z</time>
      </trkpt>
      <trkpt lat="60.5240571" lon="22.1789288">
        <ele>41.474</ele>
        <time>2013-10-12T13:32:32Z</time>
      </trkpt>
      <trkpt lat="60.5239959" lon="22.1789801">
        <ele>40.9934</ele>
        <time>2013-10-12T13:32:36Z</time>
      </trkpt>
      <trkpt lat="60.5238858" lon="22.1790339">
        <ele>36.1868</ele>
        <time>2013-10-12T13:32:43Z</time>
      </trkpt>
      <trkpt lat="60.5237883" lon="22.1790801">
        <ele>33.7834</ele>
        <time>2013-10-12T13:32:49Z</time>
      </trkpt>
      <trkpt lat="60.523752" lon="22.1791044">
        <ele>31.8607</ele>
        <time>2013-10-12T13:32:52Z</time>
      </trkpt>
      <trkpt lat="60.5236539" lon="22.1791433">
        <ele>26.5736</ele>
        <time>2013-10-12T13:32:59Z</time>
      </trkpt>
      <trkpt lat="60.5235452" lon="22.1791702">
        <ele>29.9381</ele>
        <time>2013-10-12T13:33:05Z</time>
      </trkpt>
      <trkpt lat="60.5235317" lon="22.1791791">
        <ele>29.9381</ele>
        <time>2013-10-12T13:33:06Z</time>
      </trkpt>
      <trkpt lat="60.523441" lon="22.1792423">
        <ele>29.4575</ele>
        <time>2013-10-12T13:33:12Z</time>
      </trkpt>
      <trkpt lat="60.5233562" lon="22.1792873">
        <ele>28.4962</ele>
        <time>2013-10-12T13:33:17Z</time>
      </trkpt>
      <trkpt lat="60.523308" lon="22.179349">
        <ele>25.6123</ele>
        <time>2013-10-12T13:33:21Z</time>
      </trkpt>
      <trkpt lat="60.5232351" lon="22.1794461">
        <ele>25.1317</ele>
        <time>2013-10-12T13:33:27Z</time>
      </trkpt>
      <trkpt lat="60.5231737" lon="22.1795023">
        <ele>27.0543</ele>
        <time>2013-10-12T13:33:31Z</time>
      </trkpt>
      <trkpt lat="60.5231175" lon="22.1796598">
        <ele>27.5349</ele>
        <time>2013-10-12T13:33:36Z</time>
      </trkpt>
      <trkpt lat="60.5230979" lon="22.1797231">
        <ele>28.0155</ele>
        <time>2013-10-12T13:33:38Z</time>
      </trkpt>
      <trkpt lat="60.5230314" lon="22.179939">
        <ele>27.5349</ele>
        <time>2013-10-12T13:33:45Z</time>
      </trkpt>
      <trkpt lat="60.5230185" lon="22.180013">
        <ele>27.5349</ele>
        <time>2013-10-12T13:33:47Z</time>
      </trkpt>
      <trkpt lat="60.5229703" lon="22.1801854">
        <ele>31.3801</ele>
        <time>2013-10-12T13:33:53Z</time>
      </trkpt>
      <trkpt lat="60.5229557" lon="22.180246">
        <ele>32.3416</ele>
        <time>2013-10-12T13:33:55Z</time>
      </trkpt>
      <trkpt lat="60.5229036" lon="22.1803885">
        <ele>33.3029</ele>
        <time>2013-10-12T13:34:00Z</time>
      </trkpt>
      <trkpt lat="60.5228686" lon="22.1805704">
        <ele>33.7834</ele>
        <time>2013-10-12T13:34:06Z</time>
      </trkpt>
      <trkpt lat="60.5228206" lon="22.1807647">
        <ele>33.3029</ele>
        <time>2013-10-12T13:34:13Z</time>
      </trkpt>
      <trkpt lat="60.5227536" lon="22.1810028">
        <ele>37.1481</ele>
        <time>2013-10-12T13:34:21Z</time>
      </trkpt>
      <trkpt lat="60.5227496" lon="22.1811257">
        <ele>41.9547</ele>
        <time>2013-10-12T13:34:25Z</time>
      </trkpt>
      <trkpt lat="60.5227683" lon="22.1812739">
        <ele>47.2418</ele>
        <time>2013-10-12T13:34:30Z</time>
      </trkpt>
      <trkpt lat="60.5228279" lon="22.1815479">
        <ele>49.1646</ele>
        <time>2013-10-12T13:34:40Z</time>
      </trkpt>
      <trkpt lat="60.5228322" lon="22.1816008">
        <ele>48.684</ele>
        <time>2013-10-12T13:34:44Z</time>
      </trkpt>
      <trkpt lat="60.5228774" lon="22.181786">
        <ele>48.2034</ele>
        <time>2013-10-12T13:34:50Z</time>
      </trkpt>
      <trkpt lat="60.5229465" lon="22.1820271">
        <ele>47.7225</ele>
        <time>2013-10-12T13:34:58Z</time>
      </trkpt>
      <trkpt lat="60.5229572" lon="22.1820945">
        <ele>47.7225</ele>
        <time>2013-10-12T13:35:00Z</time>
      </trkpt>
      <trkpt lat="60.523032" lon="22.182261">
        <ele>46.2806</ele>
        <time>2013-10-12T13:35:06Z</time>
      </trkpt>
      <trkpt lat="60.5230838" lon="22.1824036">
        <ele>43.8773</ele>
        <time>2013-10-12T13:35:12Z</time>
      </trkpt>
      <trkpt lat="60.5231061" lon="22.1824358">
        <ele>42.916</ele>
        <time>2013-10-12T13:35:14Z</time>
      </trkpt>
      <trkpt lat="60.5231216" lon="22.1825794">
        <ele>42.4354</ele>
        <time>2013-10-12T13:35:19Z</time>
      </trkpt>
      <trkpt lat="60.5230932" lon="22.1827109">
        <ele>42.916</ele>
        <time>2013-10-12T13:35:23Z</time>
      </trkpt>
      <trkpt lat="60.5230595" lon="22.1827402">
        <ele>41.9547</ele>
        <time>2013-10-12T13:35:25Z</time>
      </trkpt>
      <trkpt lat="60.5229854" lon="22.182847">
        <ele>40.0321</ele>
        <time>2013-10-12T13:35:30Z</time>
      </trkpt>
      <trkpt lat="60.5229412" lon="22.1829051">
        <ele>38.5901</ele>
        <time>2013-10-12T13:35:34Z</time>
      </trkpt>
      <trkpt lat="60.522892" lon="22.1830178">
        <ele>37.1481</ele>
        <time>2013-10-12T13:35:39Z</time>
      </trkpt>
      <trkpt lat="60.5228104" lon="22.1831133">
        <ele>32.8223</ele>
        <time>2013-10-12T13:35:45Z</time>
      </trkpt>
      <trkpt lat="60.5227435" lon="22.1831749">
        <ele>29.9381</ele>
        <time>2013-10-12T13:35:50Z</time>
      </trkpt>
      <trkpt lat="60.5226698" lon="22.1832258">
        <ele>27.0543</ele>
        <time>2013-10-12T13:35:55Z</time>
      </trkpt>
      <trkpt lat="60.5225789" lon="22.1832831">
        <ele>24.651</ele>
        <time>2013-10-12T13:36:01Z</time>
      </trkpt>
      <trkpt lat="60.5225197" lon="22.1833164">
        <ele>22.2476</ele>
        <time>2013-10-12T13:36:05Z</time>
      </trkpt>
      <trkpt lat="60.5224332" lon="22.1833786">
        <ele>27.0543</ele>
        <time>2013-10-12T13:36:11Z</time>
      </trkpt>
      <trkpt lat="60.5223908" lon="22.1835002">
        <ele>28.4962</ele>
        <time>2013-10-12T13:36:16Z</time>
      </trkpt>
      <trkpt lat="60.5223244" lon="22.1836054">
        <ele>29.4575</ele>
        <time>2013-10-12T13:36:21Z</time>
      </trkpt>
      <trkpt lat="60.5222798" lon="22.1836486">
        <ele>29.4575</ele>
        <time>2013-10-12T13:36:24Z</time>
      </trkpt>
      <trkpt lat="60.5222192" lon="22.1837011">
        <ele>30.4188</ele>
        <time>2013-10-12T13:36:28Z</time>
      </trkpt>
      <trkpt lat="60.5221952" lon="22.1837893">
        <ele>34.7449</ele>
        <time>2013-10-12T13:36:33Z</time>
      </trkpt>
      <trkpt lat="60.5222332" lon="22.1839349">
        <ele>36.6675</ele>
        <time>2013-10-12T13:36:40Z</time>
      </trkpt>
      <trkpt lat="60.5222672" lon="22.1840549">
        <ele>39.0707</ele>
        <time>2013-10-12T13:36:45Z</time>
      </trkpt>
      <trkpt lat="60.5222664" lon="22.1841476">
        <ele>50.6066</ele>
        <time>2013-10-12T13:37:16Z</time>
      </trkpt>
      <trkpt lat="60.5222607" lon="22.1841588">
        <ele>50.6066</ele>
        <time>2013-10-12T13:37:17Z</time>
      </trkpt>
      <trkpt lat="60.5222808" lon="22.1842544">
        <ele>49.6453</ele>
        <time>2013-10-12T13:37:20Z</time>
      </trkpt>
      <trkpt lat="60.5223169" lon="22.1844261">
        <ele>48.684</ele>
        <time>2013-10-12T13:37:26Z</time>
      </trkpt>
      <trkpt lat="60.5223648" lon="22.1846405">
        <ele>47.7225</ele>
        <time>2013-10-12T13:37:33Z</time>
      </trkpt>
      <trkpt lat="60.5223725" lon="22.1846674">
        <ele>47.7225</ele>
        <time>2013-10-12T13:37:34Z</time>
      </trkpt>
      <trkpt lat="60.5223871" lon="22.184901">
        <ele>47.7225</ele>
        <time>2013-10-12T13:37:41Z</time>
      </trkpt>
      <trkpt lat="60.5223802" lon="22.1850534">
        <ele>47.7225</ele>
        <time>2013-10-12T13:37:46Z</time>
      </trkpt>
      <trkpt lat="60.5223831" lon="22.1850839">
        <ele>47.2418</ele>
        <time>2013-10-12T13:37:47Z</time>
      </trkpt>
      <trkpt lat="60.5223884" lon="22.1852143">
        <ele>48.2034</ele>
        <time>2013-10-12T13:37:51Z</time>
      </trkpt>
      <trkpt lat="60.5224006" lon="22.1853686">
        <ele>47.7225</ele>
        <time>2013-10-12T13:37:56Z</time>
      </trkpt>
      <trkpt lat="60.5224095" lon="22.1855122">
        <ele>47.7225</ele>
        <time>2013-10-12T13:38:00Z</time>
      </trkpt>
      <trkpt lat="60.5223895" lon="22.185693">
        <ele>43.8773</ele>
        <time>2013-10-12T13:38:05Z</time>
      </trkpt>
      <trkpt lat="60.5223911" lon="22.1857691">
        <ele>42.916</ele>
        <time>2013-10-12T13:38:07Z</time>
      </trkpt>
      <trkpt lat="60.5223933" lon="22.1859167">
        <ele>40.5128</ele>
        <time>2013-10-12T13:38:13Z</time>
      </trkpt>
      <trkpt lat="60.5224" lon="22.1859412">
        <ele>40.0321</ele>
        <time>2013-10-12T13:38:14Z</time>
      </trkpt>
      <trkpt lat="60.5224501" lon="22.1860774">
        <ele>40.9934</ele>
        <time>2013-10-12T13:38:20Z</time>
      </trkpt>
      <trkpt lat="60.5225031" lon="22.1863119">
        <ele>40.9934</ele>
        <time>2013-10-12T13:38:27Z</time>
      </trkpt>
      <trkpt lat="60.5225077" lon="22.1863675">
        <ele>40.5128</ele>
        <time>2013-10-12T13:38:29Z</time>
      </trkpt>
      <trkpt lat="60.5225301" lon="22.1864814">
        <ele>40.0321</ele>
        <time>2013-10-12T13:38:35Z</time>
      </trkpt>
      <trkpt lat="60.5225404" lon="22.1865268">
        <ele>40.5128</ele>
        <time>2013-10-12T13:38:37Z</time>
      </trkpt>
      <trkpt lat="60.5225283" lon="22.1866571">
        <ele>41.474</ele>
        <time>2013-10-12T13:38:42Z</time>
      </trkpt>
      <trkpt lat="60.5224861" lon="22.1868093">
        <ele>40.0321</ele>
        <time>2013-10-12T13:38:48Z</time>
      </trkpt>
      <trkpt lat="60.5224829" lon="22.1869513">
        <ele>41.474</ele>
        <time>2013-10-12T13:38:53Z</time>
      </trkpt>
      <trkpt lat="60.5224694" lon="22.1871203">
        <ele>42.4354</ele>
        <time>2013-10-12T13:38:59Z</time>
      </trkpt>
      <trkpt lat="60.5224639" lon="22.1873112">
        <ele>45.3192</ele>
        <time>2013-10-12T13:39:05Z</time>
      </trkpt>
      <trkpt lat="60.5224166" lon="22.1874404">
        <ele>41.9547</ele>
        <time>2013-10-12T13:39:10Z</time>
      </trkpt>
      <trkpt lat="60.5224067" lon="22.1875054">
        <ele>41.474</ele>
        <time>2013-10-12T13:39:13Z</time>
      </trkpt>
      <trkpt lat="60.5223952" lon="22.1876499">
        <ele>42.4354</ele>
        <time>2013-10-12T13:39:18Z</time>
      </trkpt>
      <trkpt lat="60.5223913" lon="22.1877552">
        <ele>42.4354</ele>
        <time>2013-10-12T13:39:21Z</time>
      </trkpt>
      <trkpt lat="60.5223941" lon="22.1878272">
        <ele>43.8773</ele>
        <time>2013-10-12T13:39:23Z</time>
      </trkpt>
      <trkpt lat="60.5223776" lon="22.1879299">
        <ele>46.2806</ele>
        <time>2013-10-12T13:39:26Z</time>
      </trkpt>
      <trkpt lat="60.5223898" lon="22.1881353">
        <ele>44.8386</ele>
        <time>2013-10-12T13:39:31Z</time>
      </trkpt>
      <trkpt lat="60.5223773" lon="22.1881749">
        <ele>43.3966</ele>
        <time>2013-10-12T13:39:32Z</time>
      </trkpt>
      <trkpt lat="60.5223767" lon="22.1883661">
        <ele>46.7612</ele>
        <time>2013-10-12T13:39:38Z</time>
      </trkpt>
      <trkpt lat="60.5223565" lon="22.1884556">
        <ele>40.9934</ele>
        <time>2013-10-12T13:39:42Z</time>
      </trkpt>
      <trkpt lat="60.5223221" lon="22.1886044">
        <ele>36.1868</ele>
        <time>2013-10-12T13:39:47Z</time>
      </trkpt>
      <trkpt lat="60.5223261" lon="22.1887892">
        <ele>38.1094</ele>
        <time>2013-10-12T13:39:52Z</time>
      </trkpt>
      <trkpt lat="60.5223284" lon="22.1888178">
        <ele>38.1094</ele>
        <time>2013-10-12T13:39:53Z</time>
      </trkpt>
      <trkpt lat="60.5223753" lon="22.1890446">
        <ele>38.1094</ele>
        <time>2013-10-12T13:39:59Z</time>
      </trkpt>
      <trkpt lat="60.5223833" lon="22.1890834">
        <ele>38.1094</ele>
        <time>2013-10-12T13:40:00Z</time>
      </trkpt>
      <trkpt lat="60.5223476" lon="22.1892441">
        <ele>38.5901</ele>
        <time>2013-10-12T13:40:04Z</time>
      </trkpt>
      <trkpt lat="60.5222849" lon="22.189489">
        <ele>37.6287</ele>
        <time>2013-10-12T13:40:11Z</time>
      </trkpt>
      <trkpt lat="60.5222672" lon="22.1895531">
        <ele>37.6287</ele>
        <time>2013-10-12T13:40:13Z</time>
      </trkpt>
      <trkpt lat="60.5222524" lon="22.1897193">
        <ele>38.5901</ele>
        <time>2013-10-12T13:40:19Z</time>
      </trkpt>
      <trkpt lat="60.5222743" lon="22.1898894">
        <ele>40.0321</ele>
        <time>2013-10-12T13:40:25Z</time>
      </trkpt>
      <trkpt lat="60.5222626" lon="22.1900294">
        <ele>38.5901</ele>
        <time>2013-10-12T13:40:30Z</time>
      </trkpt>
      <trkpt lat="60.5222839" lon="22.1901515">
        <ele>38.1094</ele>
        <time>2013-10-12T13:40:35Z</time>
      </trkpt>
      <trkpt lat="60.5222589" lon="22.1903634">
        <ele>37.1481</ele>
        <time>2013-10-12T13:40:42Z</time>
      </trkpt>
      <trkpt lat="60.5222533" lon="22.1903855">
        <ele>37.1481</ele>
        <time>2013-10-12T13:40:43Z</time>
      </trkpt>
      <trkpt lat="60.5222655" lon="22.1905124">
        <ele>35.7061</ele>
        <time>2013-10-12T13:40:47Z</time>
      </trkpt>
      <trkpt lat="60.522285" lon="22.1907224">
        <ele>33.7834</ele>
        <time>2013-10-12T13:40:52Z</time>
      </trkpt>
      <trkpt lat="60.5222762" lon="22.1908447">
        <ele>32.8223</ele>
        <time>2013-10-12T13:40:55Z</time>
      </trkpt>
      <trkpt lat="60.5222218" lon="22.190999">
        <ele>34.2642</ele>
        <time>2013-10-12T13:41:01Z</time>
      </trkpt>
      <trkpt lat="60.5222035" lon="22.1910929">
        <ele>32.8223</ele>
        <time>2013-10-12T13:41:04Z</time>
      </trkpt>
      <trkpt lat="60.5221761" lon="22.191293">
        <ele>30.8995</ele>
        <time>2013-10-12T13:41:10Z</time>
      </trkpt>
      <trkpt lat="60.5221747" lon="22.1913658">
        <ele>31.3801</ele>
        <time>2013-10-12T13:41:12Z</time>
      </trkpt>
      <trkpt lat="60.5221612" lon="22.1914918">
        <ele>31.3801</ele>
        <time>2013-10-12T13:41:16Z</time>
      </trkpt>
      <trkpt lat="60.5221327" lon="22.1916367">
        <ele>28.4962</ele>
        <time>2013-10-12T13:41:22Z</time>
      </trkpt>
      <trkpt lat="60.5221256" lon="22.1916666">
        <ele>28.0155</ele>
        <time>2013-10-12T13:41:23Z</time>
      </trkpt>
      <trkpt lat="60.5220838" lon="22.1918278">
        <ele>29.9381</ele>
        <time>2013-10-12T13:41:28Z</time>
      </trkpt>
      <trkpt lat="60.5220253" lon="22.1919755">
        <ele>26.0929</ele>
        <time>2013-10-12T13:41:33Z</time>
      </trkpt>
      <trkpt lat="60.5220191" lon="22.1921148">
        <ele>25.6123</ele>
        <time>2013-10-12T13:41:37Z</time>
      </trkpt>
      <trkpt lat="60.5219995" lon="22.1922914">
        <ele>22.2476</ele>
        <time>2013-10-12T13:41:43Z</time>
      </trkpt>
      <trkpt lat="60.5219818" lon="22.1923625">
        <ele>20.8057</ele>
        <time>2013-10-12T13:41:46Z</time>
      </trkpt>
      <trkpt lat="60.5219659" lon="22.192628">
        <ele>23.209</ele>
        <time>2013-10-12T13:41:54Z</time>
      </trkpt>
      <trkpt lat="60.5219666" lon="22.1927717">
        <ele>28.0155</ele>
        <time>2013-10-12T13:42:00Z</time>
      </trkpt>
      <trkpt lat="60.5219665" lon="22.1928173">
        <ele>28.9769</ele>
        <time>2013-10-12T13:42:02Z</time>
      </trkpt>
      <trkpt lat="60.5219785" lon="22.1929911">
        <ele>29.4575</ele>
        <time>2013-10-12T13:42:07Z</time>
      </trkpt>
      <trkpt lat="60.5219798" lon="22.1930208">
        <ele>29.4575</ele>
        <time>2013-10-12T13:42:08Z</time>
      </trkpt>
      <trkpt lat="60.5219934" lon="22.1930875">
        <ele>29.4575</ele>
        <time>2013-10-12T13:42:10Z</time>
      </trkpt>
      <trkpt lat="60.522026" lon="22.1932575">
        <ele>30.8995</ele>
        <time>2013-10-12T13:42:15Z</time>
      </trkpt>
      <trkpt lat="60.522024" lon="22.1933244">
        <ele>30.8995</ele>
        <time>2013-10-12T13:42:17Z</time>
      </trkpt>
      <trkpt lat="60.5220212" lon="22.1935581">
        <ele>29.9381</ele>
        <time>2013-10-12T13:42:24Z</time>
      </trkpt>
      <trkpt lat="60.5220344" lon="22.1937555">
        <ele>29.9381</ele>
        <time>2013-10-12T13:42:30Z</time>
      </trkpt>
      <trkpt lat="60.5220343" lon="22.1939083">
        <ele>28.9769</ele>
        <time>2013-10-12T13:42:35Z</time>
      </trkpt>
      <trkpt lat="60.5220462" lon="22.1940747">
        <ele>29.4575</ele>
        <time>2013-10-12T13:42:40Z</time>
      </trkpt>
      <trkpt lat="60.5220488" lon="22.1941084">
        <ele>29.4575</ele>
        <time>2013-10-12T13:42:41Z</time>
      </trkpt>
      <trkpt lat="60.5220519" lon="22.1941998">
        <ele>28.4962</ele>
        <time>2013-10-12T13:42:44Z</time>
      </trkpt>
      <trkpt lat="60.5220606" lon="22.1943973">
        <ele>28.4962</ele>
        <time>2013-10-12T13:42:50Z</time>
      </trkpt>
      <trkpt lat="60.5220591" lon="22.194569">
        <ele>28.0155</ele>
        <time>2013-10-12T13:42:55Z</time>
      </trkpt>
      <trkpt lat="60.5220571" lon="22.1947334">
        <ele>28.0155</ele>
        <time>2013-10-12T13:43:00Z</time>
      </trkpt>
      <trkpt lat="60.5220408" lon="22.1948747">
        <ele>24.1703</ele>
        <time>2013-10-12T13:43:05Z</time>
      </trkpt>
      <trkpt lat="60.5219925" lon="22.1950733">
        <ele>20.8057</ele>
        <time>2013-10-12T13:43:10Z</time>
      </trkpt>
      <trkpt lat="60.5219844" lon="22.1951479">
        <ele>20.325</ele>
        <time>2013-10-12T13:43:12Z</time>
      </trkpt>
      <trkpt lat="60.5219789" lon="22.1952177">
        <ele>20.325</ele>
        <time>2013-10-12T13:43:14Z</time>
      </trkpt>
      <trkpt lat="60.5219773" lon="22.1954582">
        <ele>21.2864</ele>
        <time>2013-10-12T13:43:20Z</time>
      </trkpt>
      <trkpt lat="60.521967" lon="22.1956844">
        <ele>23.6896</ele>
        <time>2013-10-12T13:43:26Z</time>
      </trkpt>
      <trkpt lat="60.5219633" lon="22.1959018">
        <ele>24.651</ele>
        <time>2013-10-12T13:43:32Z</time>
      </trkpt>
      <trkpt lat="60.5219533" lon="22.1959408">
        <ele>24.1703</ele>
        <time>2013-10-12T13:43:33Z</time>
      </trkpt>
      <trkpt lat="60.521914" lon="22.1960958">
        <ele>23.6896</ele>
        <time>2013-10-12T13:43:38Z</time>
      </trkpt>
      <trkpt lat="60.5218801" lon="22.1961355">
        <ele>21.2864</ele>
        <time>2013-10-12T13:43:41Z</time>
      </trkpt>
      <trkpt lat="60.5218559" lon="22.1961827">
        <ele>19.8444</ele>
        <time>2013-10-12T13:43:43Z</time>
      </trkpt>
      <trkpt lat="60.5218053" lon="22.1962132">
        <ele>20.8057</ele>
        <time>2013-10-12T13:43:47Z</time>
      </trkpt>
      <trkpt lat="60.5217789" lon="22.1962269">
        <ele>19.3638</ele>
        <time>2013-10-12T13:43:49Z</time>
      </trkpt>
      <trkpt lat="60.5217086" lon="22.1963128">
        <ele>19.3638</ele>
        <time>2013-10-12T13:43:55Z</time>
      </trkpt>
      <trkpt lat="60.5216379" lon="22.1963003">
        <ele>21.767</ele>
        <time>2013-10-12T13:44:00Z</time>
      </trkpt>
      <trkpt lat="60.5215653" lon="22.1962204">
        <ele>21.2864</ele>
        <time>2013-10-12T13:44:05Z</time>
      </trkpt>
      <trkpt lat="60.521541" lon="22.1962133">
        <ele>21.2864</ele>
        <time>2013-10-12T13:44:06Z</time>
      </trkpt>
      <trkpt lat="60.5214845" lon="22.1962319">
        <ele>20.325</ele>
        <time>2013-10-12T13:44:09Z</time>
      </trkpt>
      <trkpt lat="60.5214158" lon="22.1963666">
        <ele>23.209</ele>
        <time>2013-10-12T13:44:14Z</time>
      </trkpt>
      <trkpt lat="60.5213804" lon="22.1965582">
        <ele>25.6123</ele>
        <time>2013-10-12T13:44:20Z</time>
      </trkpt>
      <trkpt lat="60.5213661" lon="22.196683">
        <ele>27.0543</ele>
        <time>2013-10-12T13:44:24Z</time>
      </trkpt>
      <trkpt lat="60.5213586" lon="22.1968426">
        <ele>27.0543</ele>
        <time>2013-10-12T13:44:29Z</time>
      </trkpt>
      <trkpt lat="60.5213656" lon="22.1969697">
        <ele>26.5736</ele>
        <time>2013-10-12T13:44:33Z</time>
      </trkpt>
      <trkpt lat="60.521353" lon="22.197232">
        <ele>24.651</ele>
        <time>2013-10-12T13:44:41Z</time>
      </trkpt>
      <trkpt lat="60.5213439" lon="22.1974315">
        <ele>24.1703</ele>
        <time>2013-10-12T13:44:47Z</time>
      </trkpt>
      <trkpt lat="60.521307" lon="22.1976754">
        <ele>25.1317</ele>
        <time>2013-10-12T13:44:54Z</time>
      </trkpt>
      <trkpt lat="60.5213059" lon="22.197877">
        <ele>24.651</ele>
        <time>2013-10-12T13:45:00Z</time>
      </trkpt>
      <trkpt lat="60.5212822" lon="22.1980549">
        <ele>24.651</ele>
        <time>2013-10-12T13:45:05Z</time>
      </trkpt>
      <trkpt lat="60.5212588" lon="22.1983004">
        <ele>26.0929</ele>
        <time>2013-10-12T13:45:12Z</time>
      </trkpt>
      <trkpt lat="60.5212335" lon="22.1985349">
        <ele>27.0543</ele>
        <time>2013-10-12T13:45:19Z</time>
      </trkpt>
      <trkpt lat="60.5212066" lon="22.1987634">
        <ele>27.5349</ele>
        <time>2013-10-12T13:45:26Z</time>
      </trkpt>
      <trkpt lat="60.5211677" lon="22.1989753">
        <ele>28.9769</ele>
        <time>2013-10-12T13:45:32Z</time>
      </trkpt>
      <trkpt lat="60.5211514" lon="22.1990782">
        <ele>29.4575</ele>
        <time>2013-10-12T13:45:35Z</time>
      </trkpt>
      <trkpt lat="60.5211402" lon="22.1992571">
        <ele>29.9381</ele>
        <time>2013-10-12T13:45:40Z</time>
      </trkpt>
      <trkpt lat="60.5211051" lon="22.1995426">
        <ele>31.3801</ele>
        <time>2013-10-12T13:45:48Z</time>
      </trkpt>
      <trkpt lat="60.5210925" lon="22.1996388">
        <ele>31.8607</ele>
        <time>2013-10-12T13:45:51Z</time>
      </trkpt>
      <trkpt lat="60.5210867" lon="22.1998072">
        <ele>31.8607</ele>
        <time>2013-10-12T13:45:56Z</time>
      </trkpt>
      <trkpt lat="60.5210625" lon="22.2000332">
        <ele>32.3416</ele>
        <time>2013-10-12T13:46:03Z</time>
      </trkpt>
      <trkpt lat="60.5210266" lon="22.2001554">
        <ele>33.3029</ele>
        <time>2013-10-12T13:46:07Z</time>
      </trkpt>
      <trkpt lat="60.5209748" lon="22.200266">
        <ele>33.3029</ele>
        <time>2013-10-12T13:46:11Z</time>
      </trkpt>
      <trkpt lat="60.5208481" lon="22.2004314">
        <ele>31.8607</ele>
        <time>2013-10-12T13:46:19Z</time>
      </trkpt>
      <trkpt lat="60.5207449" lon="22.2005806">
        <ele>28.4962</ele>
        <time>2013-10-12T13:46:26Z</time>
      </trkpt>
      <trkpt lat="60.5207329" lon="22.2006039">
        <ele>28.0155</ele>
        <time>2013-10-12T13:46:27Z</time>
      </trkpt>
      <trkpt lat="60.5206273" lon="22.2007568">
        <ele>25.1317</ele>
        <time>2013-10-12T13:46:34Z</time>
      </trkpt>
      <trkpt lat="60.5205708" lon="22.2008571">
        <ele>23.209</ele>
        <time>2013-10-12T13:46:38Z</time>
      </trkpt>
      <trkpt lat="60.5205596" lon="22.2008827">
        <ele>22.7283</ele>
        <time>2013-10-12T13:46:39Z</time>
      </trkpt>
      <trkpt lat="60.5204848" lon="22.2010303">
        <ele>19.8444</ele>
        <time>2013-10-12T13:46:45Z</time>
      </trkpt>
      <trkpt lat="60.5204316" lon="22.2011219">
        <ele>17.4412</ele>
        <time>2013-10-12T13:46:50Z</time>
      </trkpt>
      <trkpt lat="60.5203689" lon="22.2011958">
        <ele>13.1151</ele>
        <time>2013-10-12T13:46:55Z</time>
      </trkpt>
      <trkpt lat="60.5203237" lon="22.2012706">
        <ele>10.7118</ele>
        <time>2013-10-12T13:46:59Z</time>
      </trkpt>
      <trkpt lat="60.5202586" lon="22.2013235">
        <ele>13.1151</ele>
        <time>2013-10-12T13:47:03Z</time>
      </trkpt>
      <trkpt lat="60.5201539" lon="22.2013947">
        <ele>16.9604</ele>
        <time>2013-10-12T13:47:08Z</time>
      </trkpt>
      <trkpt lat="60.5200789" lon="22.2014348">
        <ele>13.1151</ele>
        <time>2013-10-12T13:47:12Z</time>
      </trkpt>
      <trkpt lat="60.5199581" lon="22.2015399">
        <ele>5.90527</ele>
        <time>2013-10-12T13:47:18Z</time>
      </trkpt>
      <trkpt lat="60.5198782" lon="22.201602">
        <ele>4.94385</ele>
        <time>2013-10-12T13:47:23Z</time>
      </trkpt>
      <trkpt lat="60.5198245" lon="22.2016198">
        <ele>2.54065</ele>
        <time>2013-10-12T13:47:27Z</time>
      </trkpt>
      <trkpt lat="60.5197226" lon="22.2016949">
        <ele>0</ele>
        <time>2013-10-12T13:47:34Z</time>
      </trkpt>
      <trkpt lat="60.5196554" lon="22.2017499">
        <ele>0</ele>
        <time>2013-10-12T13:47:39Z</time>
      </trkpt>
      <trkpt lat="60.5195929" lon="22.2017927">
        <ele>0</ele>
        <time>2013-10-12T13:47:44Z</time>
      </trkpt>
      <trkpt lat="60.5195124" lon="22.2018886">
        <ele>0</ele>
        <time>2013-10-12T13:47:50Z</time>
      </trkpt>
      <trkpt lat="60.5194759" lon="22.2019863">
        <ele>0</ele>
        <time>2013-10-12T13:47:54Z</time>
      </trkpt>
      <trkpt lat="60.5194277" lon="22.2021096">
        <ele>0</ele>
        <time>2013-10-12T13:47:59Z</time>
      </trkpt>
      <trkpt lat="60.5194039" lon="22.2021712">
        <ele>0</ele>
        <time>2013-10-12T13:48:02Z</time>
      </trkpt>
      <trkpt lat="60.5193711" lon="22.2021894">
        <ele>0</ele>
        <time>2013-10-12T13:48:05Z</time>
      </trkpt>
      <trkpt lat="60.5193123" lon="22.2023211">
        <ele>0</ele>
        <time>2013-10-12T13:48:10Z</time>
      </trkpt>
      <trkpt lat="60.5192288" lon="22.202449">
        <ele>0</ele>
        <time>2013-10-12T13:48:15Z</time>
      </trkpt>
      <trkpt lat="60.5191236" lon="22.2026163">
        <ele>0</ele>
        <time>2013-10-12T13:48:21Z</time>
      </trkpt>
      <trkpt lat="60.5190747" lon="22.2027523">
        <ele>1.57935</ele>
        <time>2013-10-12T13:48:25Z</time>
      </trkpt>
      <trkpt lat="60.5190728" lon="22.2028438">
        <ele>8.78918</ele>
        <time>2013-10-12T13:48:30Z</time>
      </trkpt>
      <trkpt lat="60.5190728" lon="22.2029887">
        <ele>16.4797</ele>
        <time>2013-10-12T13:48:35Z</time>
      </trkpt>
      <trkpt lat="60.5190267" lon="22.2032271">
        <ele>16.4797</ele>
        <time>2013-10-12T13:48:42Z</time>
      </trkpt>
      <trkpt lat="60.5190112" lon="22.2032602">
        <ele>16.9604</ele>
        <time>2013-10-12T13:48:43Z</time>
      </trkpt>
      <trkpt lat="60.5189685" lon="22.2033717">
        <ele>17.4412</ele>
        <time>2013-10-12T13:48:46Z</time>
      </trkpt>
      <trkpt lat="60.5188625" lon="22.2034188">
        <ele>20.8057</ele>
        <time>2013-10-12T13:48:51Z</time>
      </trkpt>
      <trkpt lat="60.5188411" lon="22.2034048">
        <ele>20.325</ele>
        <time>2013-10-12T13:48:52Z</time>
      </trkpt>
      <trkpt lat="60.5187652" lon="22.2033601">
        <ele>22.2476</ele>
        <time>2013-10-12T13:48:55Z</time>
      </trkpt>
      <trkpt lat="60.5186662" lon="22.20331">
        <ele>24.1703</ele>
        <time>2013-10-12T13:49:00Z</time>
      </trkpt>
      <trkpt lat="60.5185538" lon="22.2032267">
        <ele>25.6123</ele>
        <time>2013-10-12T13:49:06Z</time>
      </trkpt>
      <trkpt lat="60.5184475" lon="22.2031873">
        <ele>26.0929</ele>
        <time>2013-10-12T13:49:11Z</time>
      </trkpt>
      <trkpt lat="60.5183159" lon="22.2031299">
        <ele>26.5736</ele>
        <time>2013-10-12T13:49:19Z</time>
      </trkpt>
      <trkpt lat="60.5182009" lon="22.2030733">
        <ele>26.5736</ele>
        <time>2013-10-12T13:49:25Z</time>
      </trkpt>
      <trkpt lat="60.5181834" lon="22.2030567">
        <ele>26.5736</ele>
        <time>2013-10-12T13:49:26Z</time>
      </trkpt>
      <trkpt lat="60.5180917" lon="22.2029894">
        <ele>25.6123</ele>
        <time>2013-10-12T13:49:32Z</time>
      </trkpt>
      <trkpt lat="60.5180628" lon="22.2029686">
        <ele>26.0929</ele>
        <time>2013-10-12T13:49:34Z</time>
      </trkpt>
      <trkpt lat="60.5179618" lon="22.2029443">
        <ele>24.651</ele>
        <time>2013-10-12T13:49:40Z</time>
      </trkpt>
      <trkpt lat="60.5179426" lon="22.2029433">
        <ele>24.651</ele>
        <time>2013-10-12T13:49:41Z</time>
      </trkpt>
      <trkpt lat="60.5178615" lon="22.2028873">
        <ele>25.1317</ele>
        <time>2013-10-12T13:49:46Z</time>
      </trkpt>
      <trkpt lat="60.5177947" lon="22.2028381">
        <ele>26.0929</ele>
        <time>2013-10-12T13:49:50Z</time>
      </trkpt>
      <trkpt lat="60.5177201" lon="22.2027925">
        <ele>25.6123</ele>
        <time>2013-10-12T13:49:55Z</time>
      </trkpt>
      <trkpt lat="60.5175904" lon="22.202678">
        <ele>26.0929</ele>
        <time>2013-10-12T13:50:03Z</time>
      </trkpt>
      <trkpt lat="60.517438" lon="22.2025673">
        <ele>26.5736</ele>
        <time>2013-10-12T13:50:12Z</time>
      </trkpt>
      <trkpt lat="60.5173138" lon="22.2024393">
        <ele>26.5736</ele>
        <time>2013-10-12T13:50:20Z</time>
      </trkpt>
      <trkpt lat="60.5172708" lon="22.2022956">
        <ele>28.0155</ele>
        <time>2013-10-12T13:50:26Z</time>
      </trkpt>
      <trkpt lat="60.5172717" lon="22.2023383">
        <ele>28.9769</ele>
        <time>2013-10-12T13:50:31Z</time>
      </trkpt>
      <trkpt lat="60.5172604" lon="22.2025996">
        <ele>28.4962</ele>
        <time>2013-10-12T13:50:38Z</time>
      </trkpt>
      <trkpt lat="60.51722" lon="22.2028764">
        <ele>28.4962</ele>
        <time>2013-10-12T13:50:46Z</time>
      </trkpt>
      <trkpt lat="60.5172012" lon="22.2030442">
        <ele>28.9769</ele>
        <time>2013-10-12T13:50:51Z</time>
      </trkpt>
      <trkpt lat="60.5171769" lon="22.2032368">
        <ele>28.9769</ele>
        <time>2013-10-12T13:50:57Z</time>
      </trkpt>
      <trkpt lat="60.5171499" lon="22.2034354">
        <ele>29.9381</ele>
        <time>2013-10-12T13:51:03Z</time>
      </trkpt>
      <trkpt lat="60.5170625" lon="22.2037149">
        <ele>29.4575</ele>
        <time>2013-10-12T13:51:13Z</time>
      </trkpt>
      <trkpt lat="60.5170413" lon="22.2037892">
        <ele>30.4188</ele>
        <time>2013-10-12T13:51:19Z</time>
      </trkpt>
      <trkpt lat="60.5170288" lon="22.2039099">
        <ele>30.8995</ele>
        <time>2013-10-12T13:51:26Z</time>
      </trkpt>
      <trkpt lat="60.517013" lon="22.2041591">
        <ele>30.8995</ele>
        <time>2013-10-12T13:51:33Z</time>
      </trkpt>
      <trkpt lat="60.5169902" lon="22.204301">
        <ele>29.4575</ele>
        <time>2013-10-12T13:51:37Z</time>
      </trkpt>
      <trkpt lat="60.5169989" lon="22.2045517">
        <ele>29.4575</ele>
        <time>2013-10-12T13:51:44Z</time>
      </trkpt>
      <trkpt lat="60.5170209" lon="22.2046982">
        <ele>28.4962</ele>
        <time>2013-10-12T13:51:48Z</time>
      </trkpt>
      <trkpt lat="60.5170003" lon="22.2048687">
        <ele>27.5349</ele>
        <time>2013-10-12T13:51:53Z</time>
      </trkpt>
      <trkpt lat="60.5169535" lon="22.2050437">
        <ele>28.4962</ele>
        <time>2013-10-12T13:51:59Z</time>
      </trkpt>
      <trkpt lat="60.5169426" lon="22.2050687">
        <ele>28.4962</ele>
        <time>2013-10-12T13:52:00Z</time>
      </trkpt>
      <trkpt lat="60.5168465" lon="22.2052468">
        <ele>27.5349</ele>
        <time>2013-10-12T13:52:07Z</time>
      </trkpt>
      <trkpt lat="60.5167858" lon="22.2053392">
        <ele>27.0543</ele>
        <time>2013-10-12T13:52:11Z</time>
      </trkpt>
      <trkpt lat="60.5167077" lon="22.2054478">
        <ele>29.9381</ele>
        <time>2013-10-12T13:52:17Z</time>
      </trkpt>
      <trkpt lat="60.5166351" lon="22.2054945">
        <ele>30.4188</ele>
        <time>2013-10-12T13:52:21Z</time>
      </trkpt>
      <trkpt lat="60.5166024" lon="22.2055221">
        <ele>30.4188</ele>
        <time>2013-10-12T13:52:23Z</time>
      </trkpt>
      <trkpt lat="60.5164795" lon="22.2056944">
        <ele>31.3801</ele>
        <time>2013-10-12T13:52:32Z</time>
      </trkpt>
      <trkpt lat="60.5164622" lon="22.2057108">
        <ele>31.3801</ele>
        <time>2013-10-12T13:52:33Z</time>
      </trkpt>
      <trkpt lat="60.5163482" lon="22.2058303">
        <ele>30.4188</ele>
        <time>2013-10-12T13:52:40Z</time>
      </trkpt>
      <trkpt lat="60.5163295" lon="22.205837">
        <ele>29.9381</ele>
        <time>2013-10-12T13:52:41Z</time>
      </trkpt>
      <trkpt lat="60.5162186" lon="22.2058264">
        <ele>28.0155</ele>
        <time>2013-10-12T13:52:47Z</time>
      </trkpt>
      <trkpt lat="60.5161688" lon="22.2057759">
        <ele>26.5736</ele>
        <time>2013-10-12T13:52:51Z</time>
      </trkpt>
      <trkpt lat="60.5160561" lon="22.2056512">
        <ele>24.1703</ele>
        <time>2013-10-12T13:52:58Z</time>
      </trkpt>
      <trkpt lat="60.5160176" lon="22.2056208">
        <ele>23.209</ele>
        <time>2013-10-12T13:53:00Z</time>
      </trkpt>
      <trkpt lat="60.515909" lon="22.2055199">
        <ele>22.7283</ele>
        <time>2013-10-12T13:53:06Z</time>
      </trkpt>
      <trkpt lat="60.5158706" lon="22.2055046">
        <ele>22.2476</ele>
        <time>2013-10-12T13:53:08Z</time>
      </trkpt>
      <trkpt lat="60.5157204" lon="22.2055254">
        <ele>19.3638</ele>
        <time>2013-10-12T13:53:17Z</time>
      </trkpt>
      <trkpt lat="60.515616" lon="22.2055509">
        <ele>20.325</ele>
        <time>2013-10-12T13:53:23Z</time>
      </trkpt>
      <trkpt lat="60.5155519" lon="22.2055578">
        <ele>21.2864</ele>
        <time>2013-10-12T13:53:27Z</time>
      </trkpt>
      <trkpt lat="60.5154219" lon="22.205609">
        <ele>22.2476</ele>
        <time>2013-10-12T13:53:35Z</time>
      </trkpt>
      <trkpt lat="60.5153249" lon="22.2056544">
        <ele>24.1703</ele>
        <time>2013-10-12T13:53:41Z</time>
      </trkpt>
      <trkpt lat="60.5152173" lon="22.2057531">
        <ele>26.5736</ele>
        <time>2013-10-12T13:53:48Z</time>
      </trkpt>
      <trkpt lat="60.5152055" lon="22.2057684">
        <ele>27.0543</ele>
        <time>2013-10-12T13:53:49Z</time>
      </trkpt>
      <trkpt lat="60.5151473" lon="22.205881">
        <ele>33.3029</ele>
        <time>2013-10-12T13:53:55Z</time>
      </trkpt>
      <trkpt lat="60.5151373" lon="22.2059023">
        <ele>34.2642</ele>
        <time>2013-10-12T13:53:56Z</time>
      </trkpt>
      <trkpt lat="60.5150995" lon="22.2060307">
        <ele>38.1094</ele>
        <time>2013-10-12T13:54:01Z</time>
      </trkpt>
      <trkpt lat="60.5150708" lon="22.2061833">
        <ele>41.474</ele>
        <time>2013-10-12T13:54:06Z</time>
      </trkpt>
      <trkpt lat="60.5149988" lon="22.2064145">
        <ele>43.3966</ele>
        <time>2013-10-12T13:54:14Z</time>
      </trkpt>
      <trkpt lat="60.5149493" lon="22.2066305">
        <ele>42.4354</ele>
        <time>2013-10-12T13:54:21Z</time>
      </trkpt>
      <trkpt lat="60.5149106" lon="22.2068019">
        <ele>41.474</ele>
        <time>2013-10-12T13:54:27Z</time>
      </trkpt>
      <trkpt lat="60.5148645" lon="22.2070269">
        <ele>40.9934</ele>
        <time>2013-10-12T13:54:34Z</time>
      </trkpt>
      <trkpt lat="60.5148344" lon="22.2071205">
        <ele>40.5128</ele>
        <time>2013-10-12T13:54:37Z</time>
      </trkpt>
      <trkpt lat="60.5147548" lon="22.2073622">
        <ele>38.5901</ele>
        <time>2013-10-12T13:54:45Z</time>
      </trkpt>
      <trkpt lat="60.5146967" lon="22.2074646">
        <ele>38.1094</ele>
        <time>2013-10-12T13:54:49Z</time>
      </trkpt>
      <trkpt lat="60.5145806" lon="22.2075861">
        <ele>40.0321</ele>
        <time>2013-10-12T13:54:57Z</time>
      </trkpt>
      <trkpt lat="60.5145064" lon="22.2075893">
        <ele>39.5513</ele>
        <time>2013-10-12T13:55:01Z</time>
      </trkpt>
      <trkpt lat="60.5144719" lon="22.2075536">
        <ele>40.0321</ele>
        <time>2013-10-12T13:55:03Z</time>
      </trkpt>
      <trkpt lat="60.5143886" lon="22.207392">
        <ele>39.0707</ele>
        <time>2013-10-12T13:55:08Z</time>
      </trkpt>
      <trkpt lat="60.5143149" lon="22.207439">
        <ele>38.1094</ele>
        <time>2013-10-12T13:55:13Z</time>
      </trkpt>
      <trkpt lat="60.5142596" lon="22.2075261">
        <ele>34.7449</ele>
        <time>2013-10-12T13:55:17Z</time>
      </trkpt>
      <trkpt lat="60.5142102" lon="22.2075813">
        <ele>30.8995</ele>
        <time>2013-10-12T13:55:21Z</time>
      </trkpt>
      <trkpt lat="60.5141476" lon="22.2076986">
        <ele>27.5349</ele>
        <time>2013-10-12T13:55:26Z</time>
      </trkpt>
      <trkpt lat="60.514107" lon="22.2077249">
        <ele>25.6123</ele>
        <time>2013-10-12T13:55:30Z</time>
      </trkpt>
      <trkpt lat="60.5140601" lon="22.2077143">
        <ele>22.7283</ele>
        <time>2013-10-12T13:55:33Z</time>
      </trkpt>
      <trkpt lat="60.5139793" lon="22.2076655">
        <ele>17.9218</ele>
        <time>2013-10-12T13:55:37Z</time>
      </trkpt>
      <trkpt lat="60.5139237" lon="22.2076779">
        <ele>13.5958</ele>
        <time>2013-10-12T13:55:41Z</time>
      </trkpt>
      <trkpt lat="60.5139016" lon="22.2076717">
        <ele>13.5958</ele>
        <time>2013-10-12T13:55:43Z</time>
      </trkpt>
      <trkpt lat="60.5138264" lon="22.2075576">
        <ele>13.5958</ele>
        <time>2013-10-12T13:55:49Z</time>
      </trkpt>
      <trkpt lat="60.5137477" lon="22.2074857">
        <ele>15.5184</ele>
        <time>2013-10-12T13:55:53Z</time>
      </trkpt>
      <trkpt lat="60.5136854" lon="22.2074112">
        <ele>12.1538</ele>
        <time>2013-10-12T13:55:57Z</time>
      </trkpt>
      <trkpt lat="60.5136571" lon="22.2073728">
        <ele>11.6732</ele>
        <time>2013-10-12T13:55:59Z</time>
      </trkpt>
      <trkpt lat="60.513599" lon="22.2072646">
        <ele>12.6344</ele>
        <time>2013-10-12T13:56:05Z</time>
      </trkpt>
      <trkpt lat="60.5135845" lon="22.2071576">
        <ele>17.9218</ele>
        <time>2013-10-12T13:56:09Z</time>
      </trkpt>
      <trkpt lat="60.5135913" lon="22.2070734">
        <ele>19.8444</ele>
        <time>2013-10-12T13:56:11Z</time>
      </trkpt>
      <trkpt lat="60.5135764" lon="22.2068764">
        <ele>28.9769</ele>
        <time>2013-10-12T13:56:18Z</time>
      </trkpt>
      <trkpt lat="60.513573" lon="22.2066691">
        <ele>31.8607</ele>
        <time>2013-10-12T13:56:23Z</time>
      </trkpt>
      <trkpt lat="60.5135643" lon="22.2065293">
        <ele>35.2255</ele>
        <time>2013-10-12T13:56:27Z</time>
      </trkpt>
      <trkpt lat="60.5135613" lon="22.2063544">
        <ele>34.7449</ele>
        <time>2013-10-12T13:56:32Z</time>
      </trkpt>
      <trkpt lat="60.5135183" lon="22.206205">
        <ele>32.3416</ele>
        <time>2013-10-12T13:56:37Z</time>
      </trkpt>
      <trkpt lat="60.5134647" lon="22.2061226">
        <ele>31.8607</ele>
        <time>2013-10-12T13:56:40Z</time>
      </trkpt>
      <trkpt lat="60.5134435" lon="22.2061053">
        <ele>31.8607</ele>
        <time>2013-10-12T13:56:41Z</time>
      </trkpt>
      <trkpt lat="60.5134026" lon="22.2060559">
        <ele>31.3801</ele>
        <time>2013-10-12T13:56:43Z</time>
      </trkpt>
      <trkpt lat="60.5133443" lon="22.205956">
        <ele>30.4188</ele>
        <time>2013-10-12T13:56:48Z</time>
      </trkpt>
      <trkpt lat="60.5133219" lon="22.205955">
        <ele>29.9381</ele>
        <time>2013-10-12T13:56:49Z</time>
      </trkpt>
      <trkpt lat="60.5132699" lon="22.2059356">
        <ele>30.4188</ele>
        <time>2013-10-12T13:56:51Z</time>
      </trkpt>
      <trkpt lat="60.5132062" lon="22.2058161">
        <ele>29.9381</ele>
        <time>2013-10-12T13:56:55Z</time>
      </trkpt>
      <trkpt lat="60.5130965" lon="22.2057359">
        <ele>31.3801</ele>
        <time>2013-10-12T13:57:01Z</time>
      </trkpt>
      <trkpt lat="60.5130767" lon="22.2057342">
        <ele>30.8995</ele>
        <time>2013-10-12T13:57:02Z</time>
      </trkpt>
      <trkpt lat="60.5130016" lon="22.2057497">
        <ele>30.4188</ele>
        <time>2013-10-12T13:57:07Z</time>
      </trkpt>
      <trkpt lat="60.5129261" lon="22.2056266">
        <ele>30.4188</ele>
        <time>2013-10-12T13:57:13Z</time>
      </trkpt>
      <trkpt lat="60.5129042" lon="22.2055171">
        <ele>32.3416</ele>
        <time>2013-10-12T13:57:17Z</time>
      </trkpt>
      <trkpt lat="60.5128635" lon="22.2053886">
        <ele>36.1868</ele>
        <time>2013-10-12T13:57:22Z</time>
      </trkpt>
      <trkpt lat="60.5128437" lon="22.2052676">
        <ele>37.1481</ele>
        <time>2013-10-12T13:57:26Z</time>
      </trkpt>
      <trkpt lat="60.5128337" lon="22.2051826">
        <ele>38.5901</ele>
        <time>2013-10-12T13:57:29Z</time>
      </trkpt>
      <trkpt lat="60.5128247" lon="22.2051278">
        <ele>38.5901</ele>
        <time>2013-10-12T13:57:31Z</time>
      </trkpt>
      <trkpt lat="60.5128189" lon="22.2049735">
        <ele>40.5128</ele>
        <time>2013-10-12T13:57:36Z</time>
      </trkpt>
      <trkpt lat="60.5128058" lon="22.2049063">
        <ele>40.5128</ele>
        <time>2013-10-12T13:57:38Z</time>
      </trkpt>
      <trkpt lat="60.5127236" lon="22.2047785">
        <ele>40.0321</ele>
        <time>2013-10-12T13:57:44Z</time>
      </trkpt>
      <trkpt lat="60.512664" lon="22.2047139">
        <ele>38.5901</ele>
        <time>2013-10-12T13:57:48Z</time>
      </trkpt>
      <trkpt lat="60.512582" lon="22.2046124">
        <ele>37.6287</ele>
        <time>2013-10-12T13:57:54Z</time>
      </trkpt>
      <trkpt lat="60.5125388" lon="22.2045544">
        <ele>38.1094</ele>
        <time>2013-10-12T13:57:58Z</time>
      </trkpt>
      <trkpt lat="60.5124641" lon="22.2045186">
        <ele>37.6287</ele>
        <time>2013-10-12T13:58:02Z</time>
      </trkpt>
      <trkpt lat="60.5124154" lon="22.2045023">
        <ele>36.1868</ele>
        <time>2013-10-12T13:58:06Z</time>
      </trkpt>
      <trkpt lat="60.5123631" lon="22.2045534">
        <ele>34.7449</ele>
        <time>2013-10-12T13:58:10Z</time>
      </trkpt>
      <trkpt lat="60.5123315" lon="22.2045589">
        <ele>34.2642</ele>
        <time>2013-10-12T13:58:13Z</time>
      </trkpt>
      <trkpt lat="60.51229" lon="22.2045537">
        <ele>34.2642</ele>
        <time>2013-10-12T13:58:15Z</time>
      </trkpt>
      <trkpt lat="60.5122325" lon="22.2044614">
        <ele>35.2255</ele>
        <time>2013-10-12T13:58:20Z</time>
      </trkpt>
      <trkpt lat="60.5122202" lon="22.2044093">
        <ele>36.1868</ele>
        <time>2013-10-12T13:58:24Z</time>
      </trkpt>
      <trkpt lat="60.5122389" lon="22.2043334">
        <ele>37.6287</ele>
        <time>2013-10-12T13:58:28Z</time>
      </trkpt>
      <trkpt lat="60.5122786" lon="22.2042165">
        <ele>39.5513</ele>
        <time>2013-10-12T13:58:33Z</time>
      </trkpt>
      <trkpt lat="60.5122697" lon="22.2040934">
        <ele>41.9547</ele>
        <time>2013-10-12T13:58:37Z</time>
      </trkpt>
      <trkpt lat="60.512302" lon="22.2039032">
        <ele>46.7612</ele>
        <time>2013-10-12T13:58:43Z</time>
      </trkpt>
      <trkpt lat="60.5123087" lon="22.2038638">
        <ele>46.7612</ele>
        <time>2013-10-12T13:58:44Z</time>
      </trkpt>
      <trkpt lat="60.5123242" lon="22.2036705">
        <ele>47.2418</ele>
        <time>2013-10-12T13:58:50Z</time>
      </trkpt>
      <trkpt lat="60.5123225" lon="22.2036281">
        <ele>47.7225</ele>
        <time>2013-10-12T13:58:52Z</time>
      </trkpt>
      <trkpt lat="60.5123283" lon="22.2034378">
        <ele>47.7225</ele>
        <time>2013-10-12T13:58:58Z</time>
      </trkpt>
      <trkpt lat="60.512333" lon="22.2034065">
        <ele>48.2034</ele>
        <time>2013-10-12T13:58:59Z</time>
      </trkpt>
      <trkpt lat="60.5123425" lon="22.203293">
        <ele>47.2418</ele>
        <time>2013-10-12T13:59:01Z</time>
      </trkpt>
      <trkpt lat="60.5123895" lon="22.2031879">
        <ele>47.2418</ele>
        <time>2013-10-12T13:59:05Z</time>
      </trkpt>
      <trkpt lat="60.512419" lon="22.2031395">
        <ele>46.7612</ele>
        <time>2013-10-12T13:59:07Z</time>
      </trkpt>
      <trkpt lat="60.5124884" lon="22.2030111">
        <ele>48.2034</ele>
        <time>2013-10-12T13:59:13Z</time>
      </trkpt>
      <trkpt lat="60.5124834" lon="22.2029087">
        <ele>49.1646</ele>
        <time>2013-10-12T13:59:16Z</time>
      </trkpt>
      <trkpt lat="60.512489" lon="22.2028061">
        <ele>53.0098</ele>
        <time>2013-10-12T13:59:20Z</time>
      </trkpt>
      <trkpt lat="60.5125119" lon="22.2025547">
        <ele>55.8938</ele>
        <time>2013-10-12T13:59:27Z</time>
      </trkpt>
      <trkpt lat="60.5125205" lon="22.202476">
        <ele>57.8165</ele>
        <time>2013-10-12T13:59:29Z</time>
      </trkpt>
      <trkpt lat="60.5125486" lon="22.2023842">
        <ele>59.7391</ele>
        <time>2013-10-12T13:59:33Z</time>
      </trkpt>
      <trkpt lat="60.5125895" lon="22.2021853">
        <ele>59.7391</ele>
        <time>2013-10-12T13:59:37Z</time>
      </trkpt>
      <trkpt lat="60.5126371" lon="22.2020294">
        <ele>58.7777</ele>
        <time>2013-10-12T13:59:40Z</time>
      </trkpt>
      <trkpt lat="60.5126563" lon="22.2020014">
        <ele>58.2971</ele>
        <time>2013-10-12T13:59:41Z</time>
      </trkpt>
      <trkpt lat="60.5126286" lon="22.2019197">
        <ele>56.3745</ele>
        <time>2013-10-12T13:59:45Z</time>
      </trkpt>
      <trkpt lat="60.5126048" lon="22.2019067">
        <ele>55.8938</ele>
        <time>2013-10-12T13:59:46Z</time>
      </trkpt>
      <trkpt lat="60.5124719" lon="22.201829">
        <ele>52.0486</ele>
        <time>2013-10-12T13:59:52Z</time>
      </trkpt>
      <trkpt lat="60.5124568" lon="22.2018078">
        <ele>52.0486</ele>
        <time>2013-10-12T13:59:53Z</time>
      </trkpt>
      <trkpt lat="60.5124231" lon="22.2016641">
        <ele>49.6453</ele>
        <time>2013-10-12T13:59:58Z</time>
      </trkpt>
      <trkpt lat="60.5123786" lon="22.2014856">
        <ele>47.7225</ele>
        <time>2013-10-12T14:00:04Z</time>
      </trkpt>
      <trkpt lat="60.5123704" lon="22.2013587">
        <ele>47.2418</ele>
        <time>2013-10-12T14:00:08Z</time>
      </trkpt>
      <trkpt lat="60.5123081" lon="22.2012621">
        <ele>43.8773</ele>
        <time>2013-10-12T14:00:13Z</time>
      </trkpt>
      <trkpt lat="60.5122402" lon="22.2012036">
        <ele>40.0321</ele>
        <time>2013-10-12T14:00:18Z</time>
      </trkpt>
      <trkpt lat="60.5121905" lon="22.2011583">
        <ele>37.1481</ele>
        <time>2013-10-12T14:00:21Z</time>
      </trkpt>
      <trkpt lat="60.5121294" lon="22.201023">
        <ele>32.3416</ele>
        <time>2013-10-12T14:00:27Z</time>
      </trkpt>
      <trkpt lat="60.5120999" lon="22.2009329">
        <ele>31.3801</ele>
        <time>2013-10-12T14:00:31Z</time>
      </trkpt>
      <trkpt lat="60.5120769" lon="22.2007899">
        <ele>31.8607</ele>
        <time>2013-10-12T14:00:37Z</time>
      </trkpt>
      <trkpt lat="60.512075" lon="22.2006507">
        <ele>31.3801</ele>
        <time>2013-10-12T14:00:40Z</time>
      </trkpt>
      <trkpt lat="60.5120505" lon="22.2005388">
        <ele>31.3801</ele>
        <time>2013-10-12T14:00:44Z</time>
      </trkpt>
      <trkpt lat="60.5120264" lon="22.2004086">
        <ele>31.3801</ele>
        <time>2013-10-12T14:00:47Z</time>
      </trkpt>
      <trkpt lat="60.511998" lon="22.2001679">
        <ele>33.7834</ele>
        <time>2013-10-12T14:00:54Z</time>
      </trkpt>
      <trkpt lat="60.511965" lon="22.2000947">
        <ele>35.2255</ele>
        <time>2013-10-12T14:00:57Z</time>
      </trkpt>
      <trkpt lat="60.5119513" lon="22.1999299">
        <ele>38.1094</ele>
        <time>2013-10-12T14:01:01Z</time>
      </trkpt>
      <trkpt lat="60.5119067" lon="22.1997389">
        <ele>38.5901</ele>
        <time>2013-10-12T14:01:06Z</time>
      </trkpt>
      <trkpt lat="60.5118788" lon="22.1996708">
        <ele>39.0707</ele>
        <time>2013-10-12T14:01:08Z</time>
      </trkpt>
      <trkpt lat="60.5118171" lon="22.1995006">
        <ele>38.1094</ele>
        <time>2013-10-12T14:01:14Z</time>
      </trkpt>
      <trkpt lat="60.511786" lon="22.1994171">
        <ele>37.6287</ele>
        <time>2013-10-12T14:01:18Z</time>
      </trkpt>
      <trkpt lat="60.5117611" lon="22.1993219">
        <ele>37.6287</ele>
        <time>2013-10-12T14:01:21Z</time>
      </trkpt>
      <trkpt lat="60.5117105" lon="22.1992298">
        <ele>38.1094</ele>
        <time>2013-10-12T14:01:26Z</time>
      </trkpt>
      <trkpt lat="60.5116551" lon="22.1990872">
        <ele>37.1481</ele>
        <time>2013-10-12T14:01:30Z</time>
      </trkpt>
      <trkpt lat="60.5116155" lon="22.1989707">
        <ele>36.6675</ele>
        <time>2013-10-12T14:01:34Z</time>
      </trkpt>
      <trkpt lat="60.5115385" lon="22.1986557">
        <ele>33.7834</ele>
        <time>2013-10-12T14:01:44Z</time>
      </trkpt>
      <trkpt lat="60.5114926" lon="22.1984706">
        <ele>32.8223</ele>
        <time>2013-10-12T14:01:50Z</time>
      </trkpt>
      <trkpt lat="60.5114833" lon="22.1984318">
        <ele>33.3029</ele>
        <time>2013-10-12T14:01:58Z</time>
      </trkpt>
      <trkpt lat="60.5114591" lon="22.1983895">
        <ele>33.7834</ele>
        <time>2013-10-12T14:02:09Z</time>
      </trkpt>
      <trkpt lat="60.5113522" lon="22.1981211">
        <ele>32.8223</ele>
        <time>2013-10-12T14:02:19Z</time>
      </trkpt>
      <trkpt lat="60.5112805" lon="22.1980011">
        <ele>31.8607</ele>
        <time>2013-10-12T14:02:24Z</time>
      </trkpt>
      <trkpt lat="60.5111934" lon="22.1979751">
        <ele>29.4575</ele>
        <time>2013-10-12T14:02:28Z</time>
      </trkpt>
      <trkpt lat="60.5111141" lon="22.1980002">
        <ele>26.5736</ele>
        <time>2013-10-12T14:02:33Z</time>
      </trkpt>
      <trkpt lat="60.5110881" lon="22.1979954">
        <ele>26.0929</ele>
        <time>2013-10-12T14:02:35Z</time>
      </trkpt>
      <trkpt lat="60.5109966" lon="22.1980101">
        <ele>25.6123</ele>
        <time>2013-10-12T14:02:41Z</time>
      </trkpt>
      <trkpt lat="60.5109067" lon="22.1980422">
        <ele>24.1703</ele>
        <time>2013-10-12T14:02:46Z</time>
      </trkpt>
      <trkpt lat="60.5108863" lon="22.1980445">
        <ele>23.6896</ele>
        <time>2013-10-12T14:02:47Z</time>
      </trkpt>
      <trkpt lat="60.5108003" lon="22.1980802">
        <ele>22.2476</ele>
        <time>2013-10-12T14:02:51Z</time>
      </trkpt>
      <trkpt lat="60.5107366" lon="22.1980869">
        <ele>21.767</ele>
        <time>2013-10-12T14:02:55Z</time>
      </trkpt>
      <trkpt lat="60.51066" lon="22.1980881">
        <ele>20.8057</ele>
        <time>2013-10-12T14:03:00Z</time>
      </trkpt>
      <trkpt lat="60.5105775" lon="22.1981066">
        <ele>20.8057</ele>
        <time>2013-10-12T14:03:05Z</time>
      </trkpt>
      <trkpt lat="60.5105442" lon="22.1981355">
        <ele>20.325</ele>
        <time>2013-10-12T14:03:07Z</time>
      </trkpt>
      <trkpt lat="60.510523" lon="22.1981575">
        <ele>20.325</ele>
        <time>2013-10-12T14:03:09Z</time>
      </trkpt>
      <trkpt lat="60.5104669" lon="22.1981672">
        <ele>19.8444</ele>
        <time>2013-10-12T14:03:14Z</time>
      </trkpt>
      <trkpt lat="60.5103613" lon="22.1982009">
        <ele>21.2864</ele>
        <time>2013-10-12T14:03:20Z</time>
      </trkpt>
      <trkpt lat="60.5102926" lon="22.1982532">
        <ele>21.2864</ele>
        <time>2013-10-12T14:03:25Z</time>
      </trkpt>
      <trkpt lat="60.5102692" lon="22.1982594">
        <ele>21.2864</ele>
        <time>2013-10-12T14:03:27Z</time>
      </trkpt>
      <trkpt lat="60.5102069" lon="22.1982698">
        <ele>21.2864</ele>
        <time>2013-10-12T14:03:32Z</time>
      </trkpt>
      <trkpt lat="60.5101894" lon="22.1982766">
        <ele>21.2864</ele>
        <time>2013-10-12T14:03:33Z</time>
      </trkpt>
      <trkpt lat="60.5101114" lon="22.1982956">
        <ele>23.6896</ele>
        <time>2013-10-12T14:03:37Z</time>
      </trkpt>
      <trkpt lat="60.5100139" lon="22.1983678">
        <ele>27.5349</ele>
        <time>2013-10-12T14:03:43Z</time>
      </trkpt>
      <trkpt lat="60.5099196" lon="22.1984507">
        <ele>29.9381</ele>
        <time>2013-10-12T14:03:49Z</time>
      </trkpt>
      <trkpt lat="60.5097916" lon="22.1984934">
        <ele>29.9381</ele>
        <time>2013-10-12T14:03:56Z</time>
      </trkpt>
      <trkpt lat="60.5097246" lon="22.1985455">
        <ele>27.5349</ele>
        <time>2013-10-12T14:04:00Z</time>
      </trkpt>
      <trkpt lat="60.5097092" lon="22.1985547">
        <ele>27.0543</ele>
        <time>2013-10-12T14:04:01Z</time>
      </trkpt>
      <trkpt lat="60.5096636" lon="22.1985783">
        <ele>25.6123</ele>
        <time>2013-10-12T14:04:04Z</time>
      </trkpt>
      <trkpt lat="60.5096108" lon="22.1986215">
        <ele>23.209</ele>
        <time>2013-10-12T14:04:08Z</time>
      </trkpt>
      <trkpt lat="60.5095321" lon="22.1986656">
        <ele>19.8444</ele>
        <time>2013-10-12T14:04:14Z</time>
      </trkpt>
      <trkpt lat="60.5094827" lon="22.1986649">
        <ele>20.325</ele>
        <time>2013-10-12T14:04:18Z</time>
      </trkpt>
      <trkpt lat="60.5093857" lon="22.1987026">
        <ele>21.2864</ele>
        <time>2013-10-12T14:04:24Z</time>
      </trkpt>
      <trkpt lat="60.5093644" lon="22.1987074">
        <ele>21.2864</ele>
        <time>2013-10-12T14:04:25Z</time>
      </trkpt>
      <trkpt lat="60.509259" lon="22.1987555">
        <ele>19.8444</ele>
        <time>2013-10-12T14:04:31Z</time>
      </trkpt>
      <trkpt lat="60.5092445" lon="22.1987517">
        <ele>19.3638</ele>
        <time>2013-10-12T14:04:32Z</time>
      </trkpt>
      <trkpt lat="60.509126" lon="22.1986486">
        <ele>15.5184</ele>
        <time>2013-10-12T14:04:38Z</time>
      </trkpt>
      <trkpt lat="60.5090863" lon="22.1986432">
        <ele>14.557</ele>
        <time>2013-10-12T14:04:41Z</time>
      </trkpt>
      <trkpt lat="60.5090272" lon="22.1986087">
        <ele>16.4797</ele>
        <time>2013-10-12T14:04:45Z</time>
      </trkpt>
      <trkpt lat="60.5088875" lon="22.1984584">
        <ele>17.4412</ele>
        <time>2013-10-12T14:04:53Z</time>
      </trkpt>
      <trkpt lat="60.5088681" lon="22.1984313">
        <ele>16.4797</ele>
        <time>2013-10-12T14:04:54Z</time>
      </trkpt>
      <trkpt lat="60.5087879" lon="22.1983242">
        <ele>15.0377</ele>
        <time>2013-10-12T14:05:00Z</time>
      </trkpt>
      <trkpt lat="60.5087162" lon="22.1982569">
        <ele>13.1151</ele>
        <time>2013-10-12T14:05:05Z</time>
      </trkpt>
      <trkpt lat="60.5086609" lon="22.1982284">
        <ele>12.1538</ele>
        <time>2013-10-12T14:05:09Z</time>
      </trkpt>
      <trkpt lat="60.5085914" lon="22.1981931">
        <ele>10.2312</ele>
        <time>2013-10-12T14:05:14Z</time>
      </trkpt>
      <trkpt lat="60.5085804" lon="22.1981916">
        <ele>9.75061</ele>
        <time>2013-10-12T14:05:15Z</time>
      </trkpt>
      <trkpt lat="60.5084816" lon="22.1982009">
        <ele>14.557</ele>
        <time>2013-10-12T14:05:21Z</time>
      </trkpt>
      <trkpt lat="60.5084198" lon="22.1981485">
        <ele>16.4797</ele>
        <time>2013-10-12T14:05:25Z</time>
      </trkpt>
      <trkpt lat="60.5083444" lon="22.1979642">
        <ele>17.4412</ele>
        <time>2013-10-12T14:05:32Z</time>
      </trkpt>
      <trkpt lat="60.5082618" lon="22.1978694">
        <ele>20.325</ele>
        <time>2013-10-12T14:05:37Z</time>
      </trkpt>
      <trkpt lat="60.508219" lon="22.1978715">
        <ele>21.2864</ele>
        <time>2013-10-12T14:05:39Z</time>
      </trkpt>
      <trkpt lat="60.5081354" lon="22.1978158">
        <ele>21.767</ele>
        <time>2013-10-12T14:05:44Z</time>
      </trkpt>
      <trkpt lat="60.5080797" lon="22.197791">
        <ele>20.8057</ele>
        <time>2013-10-12T14:05:47Z</time>
      </trkpt>
      <trkpt lat="60.5080222" lon="22.1978119">
        <ele>20.325</ele>
        <time>2013-10-12T14:05:51Z</time>
      </trkpt>
      <trkpt lat="60.5079702" lon="22.1977573">
        <ele>20.325</ele>
        <time>2013-10-12T14:05:54Z</time>
      </trkpt>
      <trkpt lat="60.5079046" lon="22.1977032">
        <ele>20.8057</ele>
        <time>2013-10-12T14:05:58Z</time>
      </trkpt>
      <trkpt lat="60.5078199" lon="22.1975478">
        <ele>22.2476</ele>
        <time>2013-10-12T14:06:05Z</time>
      </trkpt>
      <trkpt lat="60.5077492" lon="22.197473">
        <ele>20.8057</ele>
        <time>2013-10-12T14:06:10Z</time>
      </trkpt>
      <trkpt lat="60.507718" lon="22.1974454">
        <ele>20.8057</ele>
        <time>2013-10-12T14:06:13Z</time>
      </trkpt>
      <trkpt lat="60.5076445" lon="22.1974052">
        <ele>20.325</ele>
        <time>2013-10-12T14:06:17Z</time>
      </trkpt>
      <trkpt lat="60.5076338" lon="22.1972824">
        <ele>21.2864</ele>
        <time>2013-10-12T14:06:21Z</time>
      </trkpt>
      <trkpt lat="60.5076088" lon="22.1972638">
        <ele>22.2476</ele>
        <time>2013-10-12T14:06:23Z</time>
      </trkpt>
      <trkpt lat="60.5075413" lon="22.1971217">
        <ele>21.767</ele>
        <time>2013-10-12T14:06:29Z</time>
      </trkpt>
      <trkpt lat="60.5074853" lon="22.1971313">
        <ele>21.767</ele>
        <time>2013-10-12T14:06:32Z</time>
      </trkpt>
      <trkpt lat="60.5074192" lon="22.1971162">
        <ele>21.2864</ele>
        <time>2013-10-12T14:06:36Z</time>
      </trkpt>
      <trkpt lat="60.507356" lon="22.1970764">
        <ele>21.767</ele>
        <time>2013-10-12T14:06:40Z</time>
      </trkpt>
      <trkpt lat="60.5072862" lon="22.1970486">
        <ele>21.2864</ele>
        <time>2013-10-12T14:06:45Z</time>
      </trkpt>
      <trkpt lat="60.5072426" lon="22.1970167">
        <ele>20.325</ele>
        <time>2013-10-12T14:06:48Z</time>
      </trkpt>
      <trkpt lat="60.5071704" lon="22.1969805">
        <ele>19.8444</ele>
        <time>2013-10-12T14:06:52Z</time>
      </trkpt>
      <trkpt lat="60.5070581" lon="22.1969689">
        <ele>18.8831</ele>
        <time>2013-10-12T14:06:58Z</time>
      </trkpt>
      <trkpt lat="60.5069663" lon="22.1968904">
        <ele>16.4797</ele>
        <time>2013-10-12T14:07:04Z</time>
      </trkpt>
      <trkpt lat="60.5069494" lon="22.1968922">
        <ele>15.999</ele>
        <time>2013-10-12T14:07:05Z</time>
      </trkpt>
      <trkpt lat="60.5068541" lon="22.1968789">
        <ele>17.4412</ele>
        <time>2013-10-12T14:07:11Z</time>
      </trkpt>
      <trkpt lat="60.5067897" lon="22.1968618">
        <ele>18.8831</ele>
        <time>2013-10-12T14:07:15Z</time>
      </trkpt>
      <trkpt lat="60.5067112" lon="22.1968368">
        <ele>19.3638</ele>
        <time>2013-10-12T14:07:20Z</time>
      </trkpt>
      <trkpt lat="60.5066317" lon="22.1968225">
        <ele>19.8444</ele>
        <time>2013-10-12T14:07:25Z</time>
      </trkpt>
      <trkpt lat="60.5065219" lon="22.1968753">
        <ele>19.8444</ele>
        <time>2013-10-12T14:07:32Z</time>
      </trkpt>
      <trkpt lat="60.5064598" lon="22.1969172">
        <ele>18.8831</ele>
        <time>2013-10-12T14:07:36Z</time>
      </trkpt>
      <trkpt lat="60.5064537" lon="22.19701">
        <ele>18.4023</ele>
        <time>2013-10-12T14:07:40Z</time>
      </trkpt>
      <trkpt lat="60.5064598" lon="22.1970944">
        <ele>19.3638</ele>
        <time>2013-10-12T14:07:43Z</time>
      </trkpt>
      <trkpt lat="60.5064501" lon="22.1971696">
        <ele>20.8057</ele>
        <time>2013-10-12T14:07:46Z</time>
      </trkpt>
      <trkpt lat="60.5064459" lon="22.1972923">
        <ele>24.1703</ele>
        <time>2013-10-12T14:07:50Z</time>
      </trkpt>
      <trkpt lat="60.5063536" lon="22.1974335">
        <ele>28.0155</ele>
        <time>2013-10-12T14:07:58Z</time>
      </trkpt>
      <trkpt lat="60.5062852" lon="22.1975029">
        <ele>28.9769</ele>
        <time>2013-10-12T14:08:03Z</time>
      </trkpt>
      <trkpt lat="60.5062728" lon="22.1975166">
        <ele>29.4575</ele>
        <time>2013-10-12T14:08:04Z</time>
      </trkpt>
      <trkpt lat="60.5061348" lon="22.1976552">
        <ele>32.8223</ele>
        <time>2013-10-12T14:08:14Z</time>
      </trkpt>
      <trkpt lat="60.5060413" lon="22.1977568">
        <ele>34.2642</ele>
        <time>2013-10-12T14:08:21Z</time>
      </trkpt>
      <trkpt lat="60.5059613" lon="22.1978166">
        <ele>32.8223</ele>
        <time>2013-10-12T14:08:26Z</time>
      </trkpt>
      <trkpt lat="60.5059196" lon="22.1978415">
        <ele>31.8607</ele>
        <time>2013-10-12T14:08:28Z</time>
      </trkpt>
      <trkpt lat="60.505886" lon="22.1978242">
        <ele>31.8607</ele>
        <time>2013-10-12T14:08:30Z</time>
      </trkpt>
      <trkpt lat="60.5057979" lon="22.1977212">
        <ele>31.3801</ele>
        <time>2013-10-12T14:08:36Z</time>
      </trkpt>
      <trkpt lat="60.5057826" lon="22.1977218">
        <ele>30.8995</ele>
        <time>2013-10-12T14:08:37Z</time>
      </trkpt>
      <trkpt lat="60.5056826" lon="22.1977687">
        <ele>31.8607</ele>
        <time>2013-10-12T14:08:43Z</time>
      </trkpt>
      <trkpt lat="60.5055999" lon="22.1978138">
        <ele>32.8223</ele>
        <time>2013-10-12T14:08:49Z</time>
      </trkpt>
      <trkpt lat="60.5054978" lon="22.1978352">
        <ele>30.8995</ele>
        <time>2013-10-12T14:08:55Z</time>
      </trkpt>
      <trkpt lat="60.5054207" lon="22.1978441">
        <ele>29.9381</ele>
        <time>2013-10-12T14:09:00Z</time>
      </trkpt>
      <trkpt lat="60.5053394" lon="22.1978855">
        <ele>30.4188</ele>
        <time>2013-10-12T14:09:05Z</time>
      </trkpt>
      <trkpt lat="60.5053087" lon="22.1978834">
        <ele>28.9769</ele>
        <time>2013-10-12T14:09:07Z</time>
      </trkpt>
      <trkpt lat="60.5052372" lon="22.1978355">
        <ele>29.4575</ele>
        <time>2013-10-12T14:09:12Z</time>
      </trkpt>
      <trkpt lat="60.5051446" lon="22.1978469">
        <ele>31.8607</ele>
        <time>2013-10-12T14:09:18Z</time>
      </trkpt>
      <trkpt lat="60.5050556" lon="22.1978752">
        <ele>31.8607</ele>
        <time>2013-10-12T14:09:23Z</time>
      </trkpt>
      <trkpt lat="60.5049757" lon="22.1979077">
        <ele>30.8995</ele>
        <time>2013-10-12T14:09:28Z</time>
      </trkpt>
      <trkpt lat="60.5048996" lon="22.1979422">
        <ele>30.8995</ele>
        <time>2013-10-12T14:09:34Z</time>
      </trkpt>
      <trkpt lat="60.5047994" lon="22.1979591">
        <ele>33.7834</ele>
        <time>2013-10-12T14:09:41Z</time>
      </trkpt>
      <trkpt lat="60.5047205" lon="22.1979673">
        <ele>36.1868</ele>
        <time>2013-10-12T14:09:46Z</time>
      </trkpt>
      <trkpt lat="60.5046327" lon="22.1979704">
        <ele>38.1094</ele>
        <time>2013-10-12T14:09:52Z</time>
      </trkpt>
      <trkpt lat="60.5045297" lon="22.1979719">
        <ele>40.0321</ele>
        <time>2013-10-12T14:09:59Z</time>
      </trkpt>
      <trkpt lat="60.5045106" lon="22.1979792">
        <ele>40.0321</ele>
        <time>2013-10-12T14:10:00Z</time>
      </trkpt>
      <trkpt lat="60.5044272" lon="22.1980109">
        <ele>41.474</ele>
        <time>2013-10-12T14:10:05Z</time>
      </trkpt>
      <trkpt lat="60.5044021" lon="22.198006">
        <ele>40.5128</ele>
        <time>2013-10-12T14:10:06Z</time>
      </trkpt>
      <trkpt lat="60.5043044" lon="22.1980323">
        <ele>38.1094</ele>
        <time>2013-10-12T14:10:11Z</time>
      </trkpt>
      <trkpt lat="60.5042884" lon="22.198037">
        <ele>37.6287</ele>
        <time>2013-10-12T14:10:12Z</time>
      </trkpt>
      <trkpt lat="60.5042227" lon="22.1980807">
        <ele>36.6675</ele>
        <time>2013-10-12T14:10:17Z</time>
      </trkpt>
      <trkpt lat="60.5041897" lon="22.1980849">
        <ele>35.7061</ele>
        <time>2013-10-12T14:10:19Z</time>
      </trkpt>
      <trkpt lat="60.5040507" lon="22.1981046">
        <ele>36.6675</ele>
        <time>2013-10-12T14:10:27Z</time>
      </trkpt>
      <trkpt lat="60.5039526" lon="22.198116">
        <ele>37.1481</ele>
        <time>2013-10-12T14:10:33Z</time>
      </trkpt>
      <trkpt lat="60.5038257" lon="22.1981088">
        <ele>35.2255</ele>
        <time>2013-10-12T14:10:39Z</time>
      </trkpt>
      <trkpt lat="60.5036922" lon="22.1980957">
        <ele>35.2255</ele>
        <time>2013-10-12T14:10:47Z</time>
      </trkpt>
      <trkpt lat="60.5036019" lon="22.1980999">
        <ele>36.6675</ele>
        <time>2013-10-12T14:10:53Z</time>
      </trkpt>
      <trkpt lat="60.5035491" lon="22.198101">
        <ele>37.6287</ele>
        <time>2013-10-12T14:10:56Z</time>
      </trkpt>
      <trkpt lat="60.5034688" lon="22.1980963">
        <ele>37.1481</ele>
        <time>2013-10-12T14:11:01Z</time>
      </trkpt>
      <trkpt lat="60.5034015" lon="22.1981185">
        <ele>36.1868</ele>
        <time>2013-10-12T14:11:04Z</time>
      </trkpt>
      <trkpt lat="60.5033772" lon="22.1981683">
        <ele>36.6675</ele>
        <time>2013-10-12T14:11:08Z</time>
      </trkpt>
      <trkpt lat="60.5033677" lon="22.1983377">
        <ele>34.7449</ele>
        <time>2013-10-12T14:11:14Z</time>
      </trkpt>
      <trkpt lat="60.5033747" lon="22.1984625">
        <ele>33.7834</ele>
        <time>2013-10-12T14:11:18Z</time>
      </trkpt>
      <trkpt lat="60.5033891" lon="22.1985791">
        <ele>34.2642</ele>
        <time>2013-10-12T14:11:22Z</time>
      </trkpt>
      <trkpt lat="60.5034232" lon="22.1987204">
        <ele>33.7834</ele>
        <time>2013-10-12T14:11:27Z</time>
      </trkpt>
      <trkpt lat="60.5034277" lon="22.1988645">
        <ele>32.8223</ele>
        <time>2013-10-12T14:11:32Z</time>
      </trkpt>
      <trkpt lat="60.5034275" lon="22.199029">
        <ele>31.8607</ele>
        <time>2013-10-12T14:11:37Z</time>
      </trkpt>
      <trkpt lat="60.5034291" lon="22.1990565">
        <ele>32.3416</ele>
        <time>2013-10-12T14:11:38Z</time>
      </trkpt>
      <trkpt lat="60.5034833" lon="22.1991815">
        <ele>32.3416</ele>
        <time>2013-10-12T14:11:44Z</time>
      </trkpt>
      <trkpt lat="60.5035334" lon="22.1992609">
        <ele>32.3416</ele>
        <time>2013-10-12T14:11:50Z</time>
      </trkpt>
      <trkpt lat="60.5035952" lon="22.1993188">
        <ele>31.8607</ele>
        <time>2013-10-12T14:11:55Z</time>
      </trkpt>
      <trkpt lat="60.5036419" lon="22.1994141">
        <ele>30.4188</ele>
        <time>2013-10-12T14:12:01Z</time>
      </trkpt>
      <trkpt lat="60.503659" lon="22.1994659">
        <ele>30.4188</ele>
        <time>2013-10-12T14:12:03Z</time>
      </trkpt>
      <trkpt lat="60.5036772" lon="22.1995561">
        <ele>29.4575</ele>
        <time>2013-10-12T14:12:06Z</time>
      </trkpt>
      <trkpt lat="60.503634" lon="22.1996551">
        <ele>30.8995</ele>
        <time>2013-10-12T14:12:11Z</time>
      </trkpt>
      <trkpt lat="60.503592" lon="22.1996539">
        <ele>31.3801</ele>
        <time>2013-10-12T14:12:14Z</time>
      </trkpt>
      <trkpt lat="60.5035466" lon="22.1996544">
        <ele>32.3416</ele>
        <time>2013-10-12T14:12:17Z</time>
      </trkpt>
      <trkpt lat="60.5034541" lon="22.1995814">
        <ele>31.8607</ele>
        <time>2013-10-12T14:12:23Z</time>
      </trkpt>
      <trkpt lat="60.5033373" lon="22.1994551">
        <ele>33.3029</ele>
        <time>2013-10-12T14:12:31Z</time>
      </trkpt>
      <trkpt lat="60.5031713" lon="22.1993302">
        <ele>34.2642</ele>
        <time>2013-10-12T14:12:42Z</time>
      </trkpt>
      <trkpt lat="60.5030259" lon="22.1992069">
        <ele>33.7834</ele>
        <time>2013-10-12T14:12:52Z</time>
      </trkpt>
      <trkpt lat="60.5029121" lon="22.199123">
        <ele>34.2642</ele>
        <time>2013-10-12T14:13:00Z</time>
      </trkpt>
      <trkpt lat="60.5028968" lon="22.1991556">
        <ele>35.7061</ele>
        <time>2013-10-12T14:13:06Z</time>
      </trkpt>
      <trkpt lat="60.5028887" lon="22.199135">
        <ele>35.7061</ele>
        <time>2013-10-12T14:13:10Z</time>
      </trkpt>
      <trkpt lat="60.5027695" lon="22.1990256">
        <ele>34.7449</ele>
        <time>2013-10-12T14:13:18Z</time>
      </trkpt>
      <trkpt lat="60.5026871" lon="22.1988939">
        <ele>34.2642</ele>
        <time>2013-10-12T14:13:24Z</time>
      </trkpt>
      <trkpt lat="60.5026571" lon="22.1988811">
        <ele>33.7834</ele>
        <time>2013-10-12T14:13:26Z</time>
      </trkpt>
      <trkpt lat="60.5025167" lon="22.19884">
        <ele>31.8607</ele>
        <time>2013-10-12T14:13:35Z</time>
      </trkpt>
      <trkpt lat="60.5024478" lon="22.1988272">
        <ele>29.4575</ele>
        <time>2013-10-12T14:13:39Z</time>
      </trkpt>
      <trkpt lat="60.5023188" lon="22.1988738">
        <ele>28.9769</ele>
        <time>2013-10-12T14:13:44Z</time>
      </trkpt>
      <trkpt lat="60.5022915" lon="22.1988738">
        <ele>28.4962</ele>
        <time>2013-10-12T14:13:45Z</time>
      </trkpt>
      <trkpt lat="60.5021986" lon="22.1988588">
        <ele>28.0155</ele>
        <time>2013-10-12T14:13:51Z</time>
      </trkpt>
      <trkpt lat="60.5021379" lon="22.1988363">
        <ele>25.6123</ele>
        <time>2013-10-12T14:13:56Z</time>
      </trkpt>
      <trkpt lat="60.5020755" lon="22.1988576">
        <ele>25.1317</ele>
        <time>2013-10-12T14:14:02Z</time>
      </trkpt>
      <trkpt lat="60.5020666" lon="22.1988577">
        <ele>25.1317</ele>
        <time>2013-10-12T14:14:03Z</time>
      </trkpt>
      <trkpt lat="60.5019848" lon="22.1988612">
        <ele>26.5736</ele>
        <time>2013-10-12T14:14:09Z</time>
      </trkpt>
      <trkpt lat="60.5019068" lon="22.198837">
        <ele>28.9769</ele>
        <time>2013-10-12T14:14:14Z</time>
      </trkpt>
      <trkpt lat="60.5018918" lon="22.1988334">
        <ele>28.4962</ele>
        <time>2013-10-12T14:14:15Z</time>
      </trkpt>
      <trkpt lat="60.5018367" lon="22.198897">
        <ele>28.9769</ele>
        <time>2013-10-12T14:14:20Z</time>
      </trkpt>
      <trkpt lat="60.5018263" lon="22.1989599">
        <ele>28.9769</ele>
        <time>2013-10-12T14:14:24Z</time>
      </trkpt>
      <trkpt lat="60.5017427" lon="22.1991561">
        <ele>31.3801</ele>
        <time>2013-10-12T14:14:31Z</time>
      </trkpt>
      <trkpt lat="60.5017262" lon="22.1992093">
        <ele>30.8995</ele>
        <time>2013-10-12T14:14:33Z</time>
      </trkpt>
      <trkpt lat="60.501647" lon="22.1993313">
        <ele>31.8607</ele>
        <time>2013-10-12T14:14:38Z</time>
      </trkpt>
      <trkpt lat="60.5016293" lon="22.1993502">
        <ele>31.8607</ele>
        <time>2013-10-12T14:14:39Z</time>
      </trkpt>
      <trkpt lat="60.5015672" lon="22.1994748">
        <ele>35.7061</ele>
        <time>2013-10-12T14:14:45Z</time>
      </trkpt>
      <trkpt lat="60.5015629" lon="22.1995042">
        <ele>35.7061</ele>
        <time>2013-10-12T14:14:46Z</time>
      </trkpt>
      <trkpt lat="60.5015155" lon="22.1996473">
        <ele>35.2255</ele>
        <time>2013-10-12T14:14:51Z</time>
      </trkpt>
      <trkpt lat="60.50149" lon="22.1996803">
        <ele>34.7449</ele>
        <time>2013-10-12T14:14:53Z</time>
      </trkpt>
      <trkpt lat="60.5014407" lon="22.1997804">
        <ele>33.7834</ele>
        <time>2013-10-12T14:14:58Z</time>
      </trkpt>
      <trkpt lat="60.5014238" lon="22.1998238">
        <ele>33.7834</ele>
        <time>2013-10-12T14:15:00Z</time>
      </trkpt>
      <trkpt lat="60.5013759" lon="22.1999248">
        <ele>33.7834</ele>
        <time>2013-10-12T14:15:04Z</time>
      </trkpt>
      <trkpt lat="60.5013308" lon="22.2000122">
        <ele>32.8223</ele>
        <time>2013-10-12T14:15:09Z</time>
      </trkpt>
      <trkpt lat="60.5012884" lon="22.2001253">
        <ele>32.3416</ele>
        <time>2013-10-12T14:15:14Z</time>
      </trkpt>
      <trkpt lat="60.5012648" lon="22.2002502">
        <ele>32.3416</ele>
        <time>2013-10-12T14:15:18Z</time>
      </trkpt>
      <trkpt lat="60.5012511" lon="22.2003556">
        <ele>34.2642</ele>
        <time>2013-10-12T14:15:22Z</time>
      </trkpt>
      <trkpt lat="60.5012393" lon="22.2004111">
        <ele>35.2255</ele>
        <time>2013-10-12T14:15:24Z</time>
      </trkpt>
      <trkpt lat="60.5011853" lon="22.2006159">
        <ele>35.7061</ele>
        <time>2013-10-12T14:15:31Z</time>
      </trkpt>
      <trkpt lat="60.5011808" lon="22.200645">
        <ele>35.2255</ele>
        <time>2013-10-12T14:15:32Z</time>
      </trkpt>
      <trkpt lat="60.5011438" lon="22.200812">
        <ele>35.7061</ele>
        <time>2013-10-12T14:15:38Z</time>
      </trkpt>
      <trkpt lat="60.5010995" lon="22.2009648">
        <ele>37.1481</ele>
        <time>2013-10-12T14:15:44Z</time>
      </trkpt>
      <trkpt lat="60.5010544" lon="22.2010867">
        <ele>40.0321</ele>
        <time>2013-10-12T14:15:49Z</time>
      </trkpt>
      <trkpt lat="60.5009861" lon="22.2011758">
        <ele>42.916</ele>
        <time>2013-10-12T14:15:54Z</time>
      </trkpt>
      <trkpt lat="60.5009631" lon="22.2012176">
        <ele>43.8773</ele>
        <time>2013-10-12T14:15:56Z</time>
      </trkpt>
      <trkpt lat="60.5009093" lon="22.2012901">
        <ele>44.358</ele>
        <time>2013-10-12T14:16:00Z</time>
      </trkpt>
      <trkpt lat="60.5008599" lon="22.2014173">
        <ele>43.3966</ele>
        <time>2013-10-12T14:16:05Z</time>
      </trkpt>
      <trkpt lat="60.5008033" lon="22.2015934">
        <ele>44.8386</ele>
        <time>2013-10-12T14:16:11Z</time>
      </trkpt>
      <trkpt lat="60.5007979" lon="22.2016266">
        <ele>45.3192</ele>
        <time>2013-10-12T14:16:12Z</time>
      </trkpt>
      <trkpt lat="60.5007468" lon="22.201826">
        <ele>43.8773</ele>
        <time>2013-10-12T14:16:18Z</time>
      </trkpt>
      <trkpt lat="60.5007358" lon="22.2018658">
        <ele>42.916</ele>
        <time>2013-10-12T14:16:20Z</time>
      </trkpt>
      <trkpt lat="60.5006623" lon="22.2019868">
        <ele>41.474</ele>
        <time>2013-10-12T14:16:25Z</time>
      </trkpt>
      <trkpt lat="60.5006211" lon="22.2020497">
        <ele>41.474</ele>
        <time>2013-10-12T14:16:27Z</time>
      </trkpt>
      <trkpt lat="60.5005557" lon="22.2022014">
        <ele>40.5128</ele>
        <time>2013-10-12T14:16:33Z</time>
      </trkpt>
      <trkpt lat="60.5005482" lon="22.2022325">
        <ele>40.5128</ele>
        <time>2013-10-12T14:16:34Z</time>
      </trkpt>
      <trkpt lat="60.5005089" lon="22.2023757">
        <ele>40.0321</ele>
        <time>2013-10-12T14:16:39Z</time>
      </trkpt>
      <trkpt lat="60.5004732" lon="22.2025293">
        <ele>40.0321</ele>
        <time>2013-10-12T14:16:44Z</time>
      </trkpt>
      <trkpt lat="60.5004664" lon="22.2025594">
        <ele>39.5513</ele>
        <time>2013-10-12T14:16:45Z</time>
      </trkpt>
      <trkpt lat="60.5003951" lon="22.202811">
        <ele>39.5513</ele>
        <time>2013-10-12T14:16:53Z</time>
      </trkpt>
      <trkpt lat="60.5003512" lon="22.2030241">
        <ele>39.0707</ele>
        <time>2013-10-12T14:17:00Z</time>
      </trkpt>
      <trkpt lat="60.5003287" lon="22.2031114">
        <ele>39.0707</ele>
        <time>2013-10-12T14:17:03Z</time>
      </trkpt>
      <trkpt lat="60.5003249" lon="22.2031461">
        <ele>39.0707</ele>
        <time>2013-10-12T14:17:06Z</time>
      </trkpt>
      <trkpt lat="60.5003007" lon="22.2032723">
        <ele>39.0707</ele>
        <time>2013-10-12T14:17:10Z</time>
      </trkpt>
      <trkpt lat="60.5002757" lon="22.20345">
        <ele>40.9934</ele>
        <time>2013-10-12T14:17:16Z</time>
      </trkpt>
      <trkpt lat="60.5002503" lon="22.2035995">
        <ele>41.474</ele>
        <time>2013-10-12T14:17:21Z</time>
      </trkpt>
      <trkpt lat="60.5002197" lon="22.2037623">
        <ele>41.474</ele>
        <time>2013-10-12T14:17:27Z</time>
      </trkpt>
      <trkpt lat="60.5001861" lon="22.2038944">
        <ele>42.4354</ele>
        <time>2013-10-12T14:17:32Z</time>
      </trkpt>
      <trkpt lat="60.5001489" lon="22.2039906">
        <ele>40.5128</ele>
        <time>2013-10-12T14:17:36Z</time>
      </trkpt>
      <trkpt lat="60.5001286" lon="22.2040766">
        <ele>40.9934</ele>
        <time>2013-10-12T14:17:39Z</time>
      </trkpt>
      <trkpt lat="60.5000969" lon="22.2041754">
        <ele>41.9547</ele>
        <time>2013-10-12T14:17:43Z</time>
      </trkpt>
      <trkpt lat="60.500051" lon="22.2042585">
        <ele>42.4354</ele>
        <time>2013-10-12T14:17:47Z</time>
      </trkpt>
      <trkpt lat="60.5000167" lon="22.2043298">
        <ele>41.9547</ele>
        <time>2013-10-12T14:17:50Z</time>
      </trkpt>
      <trkpt lat="60.4999769" lon="22.2044645">
        <ele>41.9547</ele>
        <time>2013-10-12T14:17:55Z</time>
      </trkpt>
      <trkpt lat="60.4999386" lon="22.2045584">
        <ele>42.4354</ele>
        <time>2013-10-12T14:17:58Z</time>
      </trkpt>
      <trkpt lat="60.4998766" lon="22.2047672">
        <ele>42.4354</ele>
        <time>2013-10-12T14:18:05Z</time>
      </trkpt>
      <trkpt lat="60.499864" lon="22.2048294">
        <ele>42.4354</ele>
        <time>2013-10-12T14:18:07Z</time>
      </trkpt>
      <trkpt lat="60.4998288" lon="22.2050126">
        <ele>40.9934</ele>
        <time>2013-10-12T14:18:13Z</time>
      </trkpt>
      <trkpt lat="60.4998229" lon="22.2050474">
        <ele>40.9934</ele>
        <time>2013-10-12T14:18:14Z</time>
      </trkpt>
      <trkpt lat="60.4998205" lon="22.2052272">
        <ele>41.9547</ele>
        <time>2013-10-12T14:18:20Z</time>
      </trkpt>
      <trkpt lat="60.4998146" lon="22.2052904">
        <ele>42.4354</ele>
        <time>2013-10-12T14:18:22Z</time>
      </trkpt>
      <trkpt lat="60.4997738" lon="22.2054234">
        <ele>41.9547</ele>
        <time>2013-10-12T14:18:27Z</time>
      </trkpt>
      <trkpt lat="60.4997256" lon="22.2054638">
        <ele>40.0321</ele>
        <time>2013-10-12T14:18:30Z</time>
      </trkpt>
      <trkpt lat="60.4996696" lon="22.2055131">
        <ele>38.1094</ele>
        <time>2013-10-12T14:18:34Z</time>
      </trkpt>
      <trkpt lat="60.4996267" lon="22.2056596">
        <ele>38.5901</ele>
        <time>2013-10-12T14:18:40Z</time>
      </trkpt>
      <trkpt lat="60.4996153" lon="22.2058276">
        <ele>36.1868</ele>
        <time>2013-10-12T14:18:46Z</time>
      </trkpt>
      <trkpt lat="60.4995774" lon="22.2059197">
        <ele>34.2642</ele>
        <time>2013-10-12T14:18:49Z</time>
      </trkpt>
      <trkpt lat="60.4995501" lon="22.2060118">
        <ele>34.2642</ele>
        <time>2013-10-12T14:18:52Z</time>
      </trkpt>
      <trkpt lat="60.4994917" lon="22.2061513">
        <ele>32.8223</ele>
        <time>2013-10-12T14:18:57Z</time>
      </trkpt>
      <trkpt lat="60.4994681" lon="22.2063231">
        <ele>32.3416</ele>
        <time>2013-10-12T14:19:02Z</time>
      </trkpt>
      <trkpt lat="60.4994056" lon="22.2064239">
        <ele>32.8223</ele>
        <time>2013-10-12T14:19:06Z</time>
      </trkpt>
      <trkpt lat="60.4993578" lon="22.2065787">
        <ele>33.3029</ele>
        <time>2013-10-12T14:19:11Z</time>
      </trkpt>
      <trkpt lat="60.499349" lon="22.2066688">
        <ele>34.7449</ele>
        <time>2013-10-12T14:19:14Z</time>
      </trkpt>
      <trkpt lat="60.4993228" lon="22.2068126">
        <ele>35.2255</ele>
        <time>2013-10-12T14:19:19Z</time>
      </trkpt>
      <trkpt lat="60.4992922" lon="22.2069911">
        <ele>35.2255</ele>
        <time>2013-10-12T14:19:25Z</time>
      </trkpt>
      <trkpt lat="60.4992655" lon="22.2072998">
        <ele>32.8223</ele>
        <time>2013-10-12T14:19:35Z</time>
      </trkpt>
      <trkpt lat="60.4992643" lon="22.2073359">
        <ele>32.3416</ele>
        <time>2013-10-12T14:19:36Z</time>
      </trkpt>
      <trkpt lat="60.499275" lon="22.2075032">
        <ele>31.8607</ele>
        <time>2013-10-12T14:19:42Z</time>
      </trkpt>
      <trkpt lat="60.4992678" lon="22.2076618">
        <ele>33.3029</ele>
        <time>2013-10-12T14:19:47Z</time>
      </trkpt>
      <trkpt lat="60.4992844" lon="22.2078052">
        <ele>32.8223</ele>
        <time>2013-10-12T14:19:52Z</time>
      </trkpt>
      <trkpt lat="60.4992844" lon="22.2078433">
        <ele>32.8223</ele>
        <time>2013-10-12T14:19:53Z</time>
      </trkpt>
      <trkpt lat="60.4992785" lon="22.2080115">
        <ele>32.3416</ele>
        <time>2013-10-12T14:19:59Z</time>
      </trkpt>
      <trkpt lat="60.4992377" lon="22.2081949">
        <ele>29.4575</ele>
        <time>2013-10-12T14:20:05Z</time>
      </trkpt>
      <trkpt lat="60.4992016" lon="22.2083366">
        <ele>27.5349</ele>
        <time>2013-10-12T14:20:10Z</time>
      </trkpt>
      <trkpt lat="60.4991593" lon="22.2085352">
        <ele>28.0155</ele>
        <time>2013-10-12T14:20:16Z</time>
      </trkpt>
      <trkpt lat="60.4991247" lon="22.2086569">
        <ele>28.9769</ele>
        <time>2013-10-12T14:20:20Z</time>
      </trkpt>
      <trkpt lat="60.4990946" lon="22.2087139">
        <ele>29.4575</ele>
        <time>2013-10-12T14:20:23Z</time>
      </trkpt>
      <trkpt lat="60.4990345" lon="22.2088472">
        <ele>30.4188</ele>
        <time>2013-10-12T14:20:29Z</time>
      </trkpt>
      <trkpt lat="60.4989487" lon="22.2089106">
        <ele>27.5349</ele>
        <time>2013-10-12T14:20:34Z</time>
      </trkpt>
      <trkpt lat="60.4989138" lon="22.208945">
        <ele>26.0929</ele>
        <time>2013-10-12T14:20:36Z</time>
      </trkpt>
      <trkpt lat="60.4988319" lon="22.2090397">
        <ele>24.1703</ele>
        <time>2013-10-12T14:20:43Z</time>
      </trkpt>
      <trkpt lat="60.4987783" lon="22.2090945">
        <ele>24.651</ele>
        <time>2013-10-12T14:20:48Z</time>
      </trkpt>
      <trkpt lat="60.4987033" lon="22.209152">
        <ele>23.209</ele>
        <time>2013-10-12T14:20:54Z</time>
      </trkpt>
      <trkpt lat="60.4986344" lon="22.2091728">
        <ele>23.6896</ele>
        <time>2013-10-12T14:21:00Z</time>
      </trkpt>
      <trkpt lat="60.498568" lon="22.2092178">
        <ele>22.7283</ele>
        <time>2013-10-12T14:21:05Z</time>
      </trkpt>
      <trkpt lat="60.498556" lon="22.2092269">
        <ele>22.2476</ele>
        <time>2013-10-12T14:21:06Z</time>
      </trkpt>
      <trkpt lat="60.4984555" lon="22.2092703">
        <ele>23.209</ele>
        <time>2013-10-12T14:21:14Z</time>
      </trkpt>
      <trkpt lat="60.4984054" lon="22.2093025">
        <ele>23.209</ele>
        <time>2013-10-12T14:21:18Z</time>
      </trkpt>
      <trkpt lat="60.4983323" lon="22.2093557">
        <ele>25.1317</ele>
        <time>2013-10-12T14:21:23Z</time>
      </trkpt>
      <trkpt lat="60.4982661" lon="22.2093589">
        <ele>24.651</ele>
        <time>2013-10-12T14:21:28Z</time>
      </trkpt>
      <trkpt lat="60.4982337" lon="22.2093614">
        <ele>24.651</ele>
        <time>2013-10-12T14:21:30Z</time>
      </trkpt>
      <trkpt lat="60.4981448" lon="22.2093483">
        <ele>22.7283</ele>
        <time>2013-10-12T14:21:35Z</time>
      </trkpt>
      <trkpt lat="60.4981343" lon="22.2093589">
        <ele>22.2476</ele>
        <time>2013-10-12T14:21:36Z</time>
      </trkpt>
      <trkpt lat="60.4980498" lon="22.2094143">
        <ele>22.2476</ele>
        <time>2013-10-12T14:21:42Z</time>
      </trkpt>
      <trkpt lat="60.4980006" lon="22.2094753">
        <ele>22.7283</ele>
        <time>2013-10-12T14:21:47Z</time>
      </trkpt>
      <trkpt lat="60.497982" lon="22.2094824">
        <ele>23.6896</ele>
        <time>2013-10-12T14:21:48Z</time>
      </trkpt>
      <trkpt lat="60.4979114" lon="22.2095039">
        <ele>24.1703</ele>
        <time>2013-10-12T14:21:53Z</time>
      </trkpt>
      <trkpt lat="60.4977824" lon="22.2095452">
        <ele>24.1703</ele>
        <time>2013-10-12T14:22:00Z</time>
      </trkpt>
      <trkpt lat="60.4976427" lon="22.209492">
        <ele>28.0155</ele>
        <time>2013-10-12T14:22:06Z</time>
      </trkpt>
      <trkpt lat="60.4975775" lon="22.2094885">
        <ele>26.5736</ele>
        <time>2013-10-12T14:22:11Z</time>
      </trkpt>
      <trkpt lat="60.4975649" lon="22.20949">
        <ele>26.5736</ele>
        <time>2013-10-12T14:22:12Z</time>
      </trkpt>
      <trkpt lat="60.4974557" lon="22.2094338">
        <ele>26.0929</ele>
        <time>2013-10-12T14:22:18Z</time>
      </trkpt>
      <trkpt lat="60.4974035" lon="22.209435">
        <ele>27.5349</ele>
        <time>2013-10-12T14:22:21Z</time>
      </trkpt>
      <trkpt lat="60.4973478" lon="22.2094389">
        <ele>24.651</ele>
        <time>2013-10-12T14:22:25Z</time>
      </trkpt>
      <trkpt lat="60.4973105" lon="22.2094836">
        <ele>24.1703</ele>
        <time>2013-10-12T14:22:30Z</time>
      </trkpt>
      <trkpt lat="60.4973041" lon="22.2095013">
        <ele>24.1703</ele>
        <time>2013-10-12T14:22:31Z</time>
      </trkpt>
      <trkpt lat="60.4972189" lon="22.209641">
        <ele>30.4188</ele>
        <time>2013-10-12T14:22:36Z</time>
      </trkpt>
      <trkpt lat="60.4971482" lon="22.2097676">
        <ele>35.2255</ele>
        <time>2013-10-12T14:22:42Z</time>
      </trkpt>
      <trkpt lat="60.4971101" lon="22.2098235">
        <ele>32.8223</ele>
        <time>2013-10-12T14:22:45Z</time>
      </trkpt>
      <trkpt lat="60.497048" lon="22.2099312">
        <ele>32.3416</ele>
        <time>2013-10-12T14:22:51Z</time>
      </trkpt>
      <trkpt lat="60.4969904" lon="22.2100437">
        <ele>29.4575</ele>
        <time>2013-10-12T14:22:57Z</time>
      </trkpt>
      <trkpt lat="60.4969663" lon="22.2101127">
        <ele>28.0155</ele>
        <time>2013-10-12T14:23:00Z</time>
      </trkpt>
      <trkpt lat="60.4969448" lon="22.210186">
        <ele>27.0543</ele>
        <time>2013-10-12T14:23:04Z</time>
      </trkpt>
      <trkpt lat="60.496875" lon="22.2103111">
        <ele>25.6123</ele>
        <time>2013-10-12T14:23:11Z</time>
      </trkpt>
      <trkpt lat="60.4968248" lon="22.2105068">
        <ele>30.4188</ele>
        <time>2013-10-12T14:23:17Z</time>
      </trkpt>
      <trkpt lat="60.4967514" lon="22.2107056">
        <ele>30.8995</ele>
        <time>2013-10-12T14:23:24Z</time>
      </trkpt>
      <trkpt lat="60.4966525" lon="22.21086">
        <ele>29.4575</ele>
        <time>2013-10-12T14:23:31Z</time>
      </trkpt>
      <trkpt lat="60.4966197" lon="22.2108827">
        <ele>29.4575</ele>
        <time>2013-10-12T14:23:33Z</time>
      </trkpt>
      <trkpt lat="60.4965528" lon="22.2109337">
        <ele>29.4575</ele>
        <time>2013-10-12T14:23:38Z</time>
      </trkpt>
      <trkpt lat="60.4964296" lon="22.2110526">
        <ele>30.8995</ele>
        <time>2013-10-12T14:23:45Z</time>
      </trkpt>
      <trkpt lat="60.496328" lon="22.2111364">
        <ele>29.9381</ele>
        <time>2013-10-12T14:23:50Z</time>
      </trkpt>
      <trkpt lat="60.4962706" lon="22.2112613">
        <ele>27.0543</ele>
        <time>2013-10-12T14:23:55Z</time>
      </trkpt>
      <trkpt lat="60.4962088" lon="22.2112822">
        <ele>28.4962</ele>
        <time>2013-10-12T14:23:59Z</time>
      </trkpt>
      <trkpt lat="60.4961535" lon="22.2113281">
        <ele>28.4962</ele>
        <time>2013-10-12T14:24:03Z</time>
      </trkpt>
      <trkpt lat="60.4960525" lon="22.2113833">
        <ele>29.4575</ele>
        <time>2013-10-12T14:24:09Z</time>
      </trkpt>
      <trkpt lat="60.4960106" lon="22.2113801">
        <ele>28.4962</ele>
        <time>2013-10-12T14:24:12Z</time>
      </trkpt>
      <trkpt lat="60.4959037" lon="22.211392">
        <ele>23.6896</ele>
        <time>2013-10-12T14:24:19Z</time>
      </trkpt>
      <trkpt lat="60.495884" lon="22.2114982">
        <ele>22.7283</ele>
        <time>2013-10-12T14:24:24Z</time>
      </trkpt>
      <trkpt lat="60.4958789" lon="22.2116166">
        <ele>25.1317</ele>
        <time>2013-10-12T14:24:28Z</time>
      </trkpt>
      <trkpt lat="60.4958556" lon="22.2117609">
        <ele>26.5736</ele>
        <time>2013-10-12T14:24:33Z</time>
      </trkpt>
      <trkpt lat="60.4958323" lon="22.2118028">
        <ele>25.1317</ele>
        <time>2013-10-12T14:24:35Z</time>
      </trkpt>
      <trkpt lat="60.4957519" lon="22.2119028">
        <ele>23.209</ele>
        <time>2013-10-12T14:24:40Z</time>
      </trkpt>
      <trkpt lat="60.4957174" lon="22.2120417">
        <ele>24.1703</ele>
        <time>2013-10-12T14:24:45Z</time>
      </trkpt>
      <trkpt lat="60.495677" lon="22.2121654">
        <ele>24.1703</ele>
        <time>2013-10-12T14:24:49Z</time>
      </trkpt>
      <trkpt lat="60.4956406" lon="22.2123326">
        <ele>28.0155</ele>
        <time>2013-10-12T14:24:55Z</time>
      </trkpt>
      <trkpt lat="60.4956236" lon="22.2124356">
        <ele>29.4575</ele>
        <time>2013-10-12T14:24:59Z</time>
      </trkpt>
      <trkpt lat="60.4956021" lon="22.2125825">
        <ele>28.4962</ele>
        <time>2013-10-12T14:25:05Z</time>
      </trkpt>
      <trkpt lat="60.4955895" lon="22.212616">
        <ele>28.4962</ele>
        <time>2013-10-12T14:25:06Z</time>
      </trkpt>
      <trkpt lat="60.4955703" lon="22.2126848">
        <ele>29.4575</ele>
        <time>2013-10-12T14:25:08Z</time>
      </trkpt>
      <trkpt lat="60.4955423" lon="22.2128155">
        <ele>31.3801</ele>
        <time>2013-10-12T14:25:12Z</time>
      </trkpt>
      <trkpt lat="60.4955229" lon="22.2128711">
        <ele>32.8223</ele>
        <time>2013-10-12T14:25:14Z</time>
      </trkpt>
      <trkpt lat="60.4954566" lon="22.21306">
        <ele>32.8223</ele>
        <time>2013-10-12T14:25:21Z</time>
      </trkpt>
      <trkpt lat="60.4954261" lon="22.2131523">
        <ele>33.3029</ele>
        <time>2013-10-12T14:25:24Z</time>
      </trkpt>
      <trkpt lat="60.495334" lon="22.2133314">
        <ele>30.8995</ele>
        <time>2013-10-12T14:25:31Z</time>
      </trkpt>
      <trkpt lat="60.4952877" lon="22.2134345">
        <ele>30.8995</ele>
        <time>2013-10-12T14:25:35Z</time>
      </trkpt>
      <trkpt lat="60.495253" lon="22.2135184">
        <ele>28.9769</ele>
        <time>2013-10-12T14:25:39Z</time>
      </trkpt>
      <trkpt lat="60.4952373" lon="22.2136702">
        <ele>29.4575</ele>
        <time>2013-10-12T14:25:43Z</time>
      </trkpt>
      <trkpt lat="60.4952184" lon="22.2137645">
        <ele>28.9769</ele>
        <time>2013-10-12T14:25:45Z</time>
      </trkpt>
      <trkpt lat="60.4951355" lon="22.2139027">
        <ele>31.3801</ele>
        <time>2013-10-12T14:25:50Z</time>
      </trkpt>
      <trkpt lat="60.4949828" lon="22.2139157">
        <ele>32.8223</ele>
        <time>2013-10-12T14:25:55Z</time>
      </trkpt>
      <trkpt lat="60.4948704" lon="22.2138511">
        <ele>33.7834</ele>
        <time>2013-10-12T14:26:00Z</time>
      </trkpt>
      <trkpt lat="60.4948094" lon="22.2137231">
        <ele>33.3029</ele>
        <time>2013-10-12T14:26:04Z</time>
      </trkpt>
      <trkpt lat="60.4948052" lon="22.2136498">
        <ele>34.2642</ele>
        <time>2013-10-12T14:26:06Z</time>
      </trkpt>
      <trkpt lat="60.4948153" lon="22.2134898">
        <ele>34.7449</ele>
        <time>2013-10-12T14:26:11Z</time>
      </trkpt>
      <trkpt lat="60.4948435" lon="22.2132862">
        <ele>34.7449</ele>
        <time>2013-10-12T14:26:17Z</time>
      </trkpt>
      <trkpt lat="60.4948596" lon="22.2131262">
        <ele>35.7061</ele>
        <time>2013-10-12T14:26:21Z</time>
      </trkpt>
      <trkpt lat="60.4948502" lon="22.2129474">
        <ele>37.1481</ele>
        <time>2013-10-12T14:26:27Z</time>
      </trkpt>
      <trkpt lat="60.4948233" lon="22.2128534">
        <ele>37.1481</ele>
        <time>2013-10-12T14:26:31Z</time>
      </trkpt>
      <trkpt lat="60.494816" lon="22.2127991">
        <ele>37.1481</ele>
        <time>2013-10-12T14:26:33Z</time>
      </trkpt>
      <trkpt lat="60.4947523" lon="22.2125788">
        <ele>37.1481</ele>
        <time>2013-10-12T14:26:41Z</time>
      </trkpt>
      <trkpt lat="60.4947224" lon="22.2124379">
        <ele>38.5901</ele>
        <time>2013-10-12T14:26:46Z</time>
      </trkpt>
      <trkpt lat="60.4947501" lon="22.2123581">
        <ele>39.0707</ele>
        <time>2013-10-12T14:26:50Z</time>
      </trkpt>
      <trkpt lat="60.4948352" lon="22.2122913">
        <ele>40.0321</ele>
        <time>2013-10-12T14:26:57Z</time>
      </trkpt>
      <trkpt lat="60.4948916" lon="22.2121566">
        <ele>40.5128</ele>
        <time>2013-10-12T14:27:04Z</time>
      </trkpt>
      <trkpt lat="60.4948352" lon="22.212039">
        <ele>39.0707</ele>
        <time>2013-10-12T14:27:10Z</time>
      </trkpt>
      <trkpt lat="60.4947827" lon="22.2120271">
        <ele>39.0707</ele>
        <time>2013-10-12T14:27:14Z</time>
      </trkpt>
      <trkpt lat="60.494683" lon="22.2120349">
        <ele>38.5901</ele>
        <time>2013-10-12T14:27:22Z</time>
      </trkpt>
      <trkpt lat="60.4945559" lon="22.2120067">
        <ele>34.7449</ele>
        <time>2013-10-12T14:27:31Z</time>
      </trkpt>
      <trkpt lat="60.4944753" lon="22.2120002">
        <ele>30.4188</ele>
        <time>2013-10-12T14:27:35Z</time>
      </trkpt>
      <trkpt lat="60.4944421" lon="22.2120321">
        <ele>28.9769</ele>
        <time>2013-10-12T14:27:37Z</time>
      </trkpt>
      <trkpt lat="60.4943506" lon="22.2120461">
        <ele>27.0543</ele>
        <time>2013-10-12T14:27:42Z</time>
      </trkpt>
      <trkpt lat="60.4943171" lon="22.2120452">
        <ele>27.0543</ele>
        <time>2013-10-12T14:27:44Z</time>
      </trkpt>
      <trkpt lat="60.4942064" lon="22.2121022">
        <ele>23.209</ele>
        <time>2013-10-12T14:27:50Z</time>
      </trkpt>
      <trkpt lat="60.4941253" lon="22.2121965">
        <ele>20.325</ele>
        <time>2013-10-12T14:27:55Z</time>
      </trkpt>
      <trkpt lat="60.4941126" lon="22.2122182">
        <ele>19.8444</ele>
        <time>2013-10-12T14:27:56Z</time>
      </trkpt>
      <trkpt lat="60.4940395" lon="22.212242">
        <ele>16.4797</ele>
        <time>2013-10-12T14:28:01Z</time>
      </trkpt>
      <trkpt lat="60.4939432" lon="22.2122434">
        <ele>17.9218</ele>
        <time>2013-10-12T14:28:06Z</time>
      </trkpt>
      <trkpt lat="60.4938519" lon="22.2122142">
        <ele>14.557</ele>
        <time>2013-10-12T14:28:10Z</time>
      </trkpt>
      <trkpt lat="60.49374" lon="22.2122805">
        <ele>15.0377</ele>
        <time>2013-10-12T14:28:16Z</time>
      </trkpt>
      <trkpt lat="60.4936219" lon="22.2123427">
        <ele>16.9604</ele>
        <time>2013-10-12T14:28:22Z</time>
      </trkpt>
      <trkpt lat="60.4935661" lon="22.2123686">
        <ele>17.4412</ele>
        <time>2013-10-12T14:28:26Z</time>
      </trkpt>
      <trkpt lat="60.4934177" lon="22.2123685">
        <ele>15.999</ele>
        <time>2013-10-12T14:28:32Z</time>
      </trkpt>
      <trkpt lat="60.4933367" lon="22.2123913">
        <ele>9.75061</ele>
        <time>2013-10-12T14:28:37Z</time>
      </trkpt>
      <trkpt lat="60.4933324" lon="22.2124099">
        <ele>9.2699</ele>
        <time>2013-10-12T14:28:38Z</time>
      </trkpt>
      <trkpt lat="60.4932941" lon="22.212501">
        <ele>9.2699</ele>
        <time>2013-10-12T14:28:42Z</time>
      </trkpt>
      <trkpt lat="60.4931832" lon="22.2125734">
        <ele>10.7118</ele>
        <time>2013-10-12T14:28:48Z</time>
      </trkpt>
      <trkpt lat="60.4931317" lon="22.212653">
        <ele>11.1925</ele>
        <time>2013-10-12T14:28:51Z</time>
      </trkpt>
      <trkpt lat="60.4930496" lon="22.2126771">
        <ele>15.0377</ele>
        <time>2013-10-12T14:28:56Z</time>
      </trkpt>
      <trkpt lat="60.4929305" lon="22.2127177">
        <ele>18.8831</ele>
        <time>2013-10-12T14:29:01Z</time>
      </trkpt>
      <trkpt lat="60.4928811" lon="22.2127622">
        <ele>20.8057</ele>
        <time>2013-10-12T14:29:05Z</time>
      </trkpt>
      <trkpt lat="60.4927631" lon="22.2127814">
        <ele>22.7283</ele>
        <time>2013-10-12T14:29:12Z</time>
      </trkpt>
      <trkpt lat="60.492669" lon="22.2127783">
        <ele>23.209</ele>
        <time>2013-10-12T14:29:17Z</time>
      </trkpt>
      <trkpt lat="60.4925601" lon="22.2127896">
        <ele>22.2476</ele>
        <time>2013-10-12T14:29:23Z</time>
      </trkpt>
      <trkpt lat="60.492442" lon="22.2127186">
        <ele>17.4412</ele>
        <time>2013-10-12T14:29:31Z</time>
      </trkpt>
      <trkpt lat="60.4924188" lon="22.2126937">
        <ele>15.999</ele>
        <time>2013-10-12T14:29:33Z</time>
      </trkpt>
      <trkpt lat="60.4923689" lon="22.2126895">
        <ele>15.0377</ele>
        <time>2013-10-12T14:29:37Z</time>
      </trkpt>
      <trkpt lat="60.4922902" lon="22.2125757">
        <ele>21.2864</ele>
        <time>2013-10-12T14:29:42Z</time>
      </trkpt>
      <trkpt lat="60.4922237" lon="22.2125498">
        <ele>21.767</ele>
        <time>2013-10-12T14:29:47Z</time>
      </trkpt>
      <trkpt lat="60.4921457" lon="22.2125088">
        <ele>25.1317</ele>
        <time>2013-10-12T14:29:52Z</time>
      </trkpt>
      <trkpt lat="60.4921301" lon="22.2125121">
        <ele>26.0929</ele>
        <time>2013-10-12T14:29:53Z</time>
      </trkpt>
      <trkpt lat="60.492043" lon="22.2125801">
        <ele>28.0155</ele>
        <time>2013-10-12T14:29:59Z</time>
      </trkpt>
      <trkpt lat="60.4919881" lon="22.2126692">
        <ele>29.4575</ele>
        <time>2013-10-12T14:30:04Z</time>
      </trkpt>
      <trkpt lat="60.4919581" lon="22.2127008">
        <ele>28.4962</ele>
        <time>2013-10-12T14:30:06Z</time>
      </trkpt>
      <trkpt lat="60.4918426" lon="22.2128482">
        <ele>27.0543</ele>
        <time>2013-10-12T14:30:13Z</time>
      </trkpt>
      <trkpt lat="60.4918124" lon="22.2129042">
        <ele>27.0543</ele>
        <time>2013-10-12T14:30:15Z</time>
      </trkpt>
      <trkpt lat="60.4917815" lon="22.213008">
        <ele>26.0929</ele>
        <time>2013-10-12T14:30:20Z</time>
      </trkpt>
      <trkpt lat="60.4916586" lon="22.2131517">
        <ele>24.651</ele>
        <time>2013-10-12T14:30:28Z</time>
      </trkpt>
      <trkpt lat="60.4915531" lon="22.2131326">
        <ele>22.7283</ele>
        <time>2013-10-12T14:30:33Z</time>
      </trkpt>
      <trkpt lat="60.49144" lon="22.2130745">
        <ele>21.767</ele>
        <time>2013-10-12T14:30:38Z</time>
      </trkpt>
      <trkpt lat="60.491321" lon="22.2129198">
        <ele>19.8444</ele>
        <time>2013-10-12T14:30:45Z</time>
      </trkpt>
      <trkpt lat="60.4912656" lon="22.2128081">
        <ele>20.325</ele>
        <time>2013-10-12T14:30:50Z</time>
      </trkpt>
      <trkpt lat="60.491207" lon="22.2127143">
        <ele>22.7283</ele>
        <time>2013-10-12T14:30:54Z</time>
      </trkpt>
      <trkpt lat="60.4911968" lon="22.2126855">
        <ele>22.7283</ele>
        <time>2013-10-12T14:30:55Z</time>
      </trkpt>
      <trkpt lat="60.4910857" lon="22.2125959">
        <ele>23.209</ele>
        <time>2013-10-12T14:31:01Z</time>
      </trkpt>
      <trkpt lat="60.491022" lon="22.2125455">
        <ele>22.2476</ele>
        <time>2013-10-12T14:31:05Z</time>
      </trkpt>
      <trkpt lat="60.4909827" lon="22.2124769">
        <ele>22.2476</ele>
        <time>2013-10-12T14:31:09Z</time>
      </trkpt>
      <trkpt lat="60.4909759" lon="22.2124512">
        <ele>21.767</ele>
        <time>2013-10-12T14:31:10Z</time>
      </trkpt>
      <trkpt lat="60.4909183" lon="22.2122947">
        <ele>19.8444</ele>
        <time>2013-10-12T14:31:16Z</time>
      </trkpt>
      <trkpt lat="60.4908486" lon="22.2121249">
        <ele>20.325</ele>
        <time>2013-10-12T14:31:24Z</time>
      </trkpt>
      <trkpt lat="60.4907416" lon="22.2120111">
        <ele>21.767</ele>
        <time>2013-10-12T14:31:33Z</time>
      </trkpt>
      <trkpt lat="60.4906274" lon="22.2119148">
        <ele>21.2864</ele>
        <time>2013-10-12T14:31:41Z</time>
      </trkpt>
      <trkpt lat="60.4905554" lon="22.2118726">
        <ele>20.8057</ele>
        <time>2013-10-12T14:31:46Z</time>
      </trkpt>
      <trkpt lat="60.4904538" lon="22.2118583">
        <ele>22.2476</ele>
        <time>2013-10-12T14:31:51Z</time>
      </trkpt>
      <trkpt lat="60.490402" lon="22.2117562">
        <ele>21.2864</ele>
        <time>2013-10-12T14:31:55Z</time>
      </trkpt>
      <trkpt lat="60.4903407" lon="22.21175">
        <ele>21.2864</ele>
        <time>2013-10-12T14:31:58Z</time>
      </trkpt>
      <trkpt lat="60.4902441" lon="22.2117475">
        <ele>19.8444</ele>
        <time>2013-10-12T14:32:03Z</time>
      </trkpt>
      <trkpt lat="60.4902052" lon="22.2117785">
        <ele>18.8831</ele>
        <time>2013-10-12T14:32:07Z</time>
      </trkpt>
      <trkpt lat="60.4901627" lon="22.2117122">
        <ele>19.3638</ele>
        <time>2013-10-12T14:32:11Z</time>
      </trkpt>
      <trkpt lat="60.4901369" lon="22.2116655">
        <ele>19.8444</ele>
        <time>2013-10-12T14:32:13Z</time>
      </trkpt>
      <trkpt lat="60.490106" lon="22.2115776">
        <ele>20.8057</ele>
        <time>2013-10-12T14:32:17Z</time>
      </trkpt>
      <trkpt lat="60.4900752" lon="22.2114209">
        <ele>21.2864</ele>
        <time>2013-10-12T14:32:23Z</time>
      </trkpt>
      <trkpt lat="60.4900618" lon="22.2113743">
        <ele>21.767</ele>
        <time>2013-10-12T14:32:25Z</time>
      </trkpt>
      <trkpt lat="60.4900612" lon="22.2112252">
        <ele>21.767</ele>
        <time>2013-10-12T14:32:30Z</time>
      </trkpt>
      <trkpt lat="60.4899807" lon="22.2111771">
        <ele>20.325</ele>
        <time>2013-10-12T14:32:34Z</time>
      </trkpt>
      <trkpt lat="60.4899431" lon="22.2111763">
        <ele>19.3638</ele>
        <time>2013-10-12T14:32:37Z</time>
      </trkpt>
      <trkpt lat="60.4899017" lon="22.2111791">
        <ele>19.3638</ele>
        <time>2013-10-12T14:32:40Z</time>
      </trkpt>
      <trkpt lat="60.4898211" lon="22.2112336">
        <ele>17.9218</ele>
        <time>2013-10-12T14:32:45Z</time>
      </trkpt>
      <trkpt lat="60.4897313" lon="22.2112248">
        <ele>15.0377</ele>
        <time>2013-10-12T14:32:51Z</time>
      </trkpt>
      <trkpt lat="60.4895965" lon="22.2111418">
        <ele>11.6732</ele>
        <time>2013-10-12T14:33:00Z</time>
      </trkpt>
      <trkpt lat="60.4894964" lon="22.2111292">
        <ele>10.2312</ele>
        <time>2013-10-12T14:33:04Z</time>
      </trkpt>
      <trkpt lat="60.4894814" lon="22.2111304">
        <ele>9.2699</ele>
        <time>2013-10-12T14:33:05Z</time>
      </trkpt>
      <trkpt lat="60.4894276" lon="22.2111486">
        <ele>7.34717</ele>
        <time>2013-10-12T14:33:09Z</time>
      </trkpt>
      <trkpt lat="60.4893581" lon="22.2110042">
        <ele>6.38586</ele>
        <time>2013-10-12T14:33:13Z</time>
      </trkpt>
      <trkpt lat="60.4893211" lon="22.2108093">
        <ele>5.42456</ele>
        <time>2013-10-12T14:33:16Z</time>
      </trkpt>
      <trkpt lat="60.4892785" lon="22.2106775">
        <ele>6.38586</ele>
        <time>2013-10-12T14:33:20Z</time>
      </trkpt>
      <trkpt lat="60.4892066" lon="22.2105441">
        <ele>7.34717</ele>
        <time>2013-10-12T14:33:25Z</time>
      </trkpt>
      <trkpt lat="60.4891884" lon="22.2105167">
        <ele>7.34717</ele>
        <time>2013-10-12T14:33:26Z</time>
      </trkpt>
      <trkpt lat="60.4891128" lon="22.2104219">
        <ele>7.34717</ele>
        <time>2013-10-12T14:33:31Z</time>
      </trkpt>
      <trkpt lat="60.4889992" lon="22.2103485">
        <ele>3.50195</ele>
        <time>2013-10-12T14:33:38Z</time>
      </trkpt>
      <trkpt lat="60.4889615" lon="22.2103302">
        <ele>2.06006</ele>
        <time>2013-10-12T14:33:41Z</time>
      </trkpt>
      <trkpt lat="60.4889159" lon="22.2103131">
        <ele>0.618042</ele>
        <time>2013-10-12T14:33:46Z</time>
      </trkpt>
      <trkpt lat="60.4888755" lon="22.210324">
        <ele>0</ele>
        <time>2013-10-12T14:33:49Z</time>
      </trkpt>
      <trkpt lat="60.4887859" lon="22.2103051">
        <ele>0.137451</ele>
        <time>2013-10-12T14:33:56Z</time>
      </trkpt>
      <trkpt lat="60.4887216" lon="22.2103296">
        <ele>1.09863</ele>
        <time>2013-10-12T14:34:00Z</time>
      </trkpt>
      <trkpt lat="60.488637" lon="22.2102984">
        <ele>3.50195</ele>
        <time>2013-10-12T14:34:06Z</time>
      </trkpt>
      <trkpt lat="60.4885527" lon="22.2103104">
        <ele>5.90527</ele>
        <time>2013-10-12T14:34:11Z</time>
      </trkpt>
      <trkpt lat="60.4884969" lon="22.210353">
        <ele>7.34717</ele>
        <time>2013-10-12T14:34:15Z</time>
      </trkpt>
      <trkpt lat="60.4884766" lon="22.2103548">
        <ele>8.30859</ele>
        <time>2013-10-12T14:34:16Z</time>
      </trkpt>
      <trkpt lat="60.4883901" lon="22.21034">
        <ele>12.6344</ele>
        <time>2013-10-12T14:34:20Z</time>
      </trkpt>
      <trkpt lat="60.4883034" lon="22.2104072">
        <ele>12.6344</ele>
        <time>2013-10-12T14:34:25Z</time>
      </trkpt>
      <trkpt lat="60.4882051" lon="22.2104917">
        <ele>14.0764</ele>
        <time>2013-10-12T14:34:30Z</time>
      </trkpt>
      <trkpt lat="60.4881548" lon="22.2105129">
        <ele>15.0377</ele>
        <time>2013-10-12T14:34:33Z</time>
      </trkpt>
      <trkpt lat="60.4880879" lon="22.2105234">
        <ele>15.0377</ele>
        <time>2013-10-12T14:34:37Z</time>
      </trkpt>
      <trkpt lat="60.4880544" lon="22.2104943">
        <ele>15.999</ele>
        <time>2013-10-12T14:34:39Z</time>
      </trkpt>
      <trkpt lat="60.4880114" lon="22.2104715">
        <ele>14.557</ele>
        <time>2013-10-12T14:34:42Z</time>
      </trkpt>
      <trkpt lat="60.4879203" lon="22.2104718">
        <ele>13.5958</ele>
        <time>2013-10-12T14:34:48Z</time>
      </trkpt>
      <trkpt lat="60.4878275" lon="22.2104848">
        <ele>11.6732</ele>
        <time>2013-10-12T14:34:53Z</time>
      </trkpt>
      <trkpt lat="60.4877715" lon="22.210446">
        <ele>12.1538</ele>
        <time>2013-10-12T14:34:56Z</time>
      </trkpt>
      <trkpt lat="60.4877431" lon="22.2104658">
        <ele>11.6732</ele>
        <time>2013-10-12T14:35:00Z</time>
      </trkpt>
      <trkpt lat="60.4877348" lon="22.2104762">
        <ele>12.1538</ele>
        <time>2013-10-12T14:35:01Z</time>
      </trkpt>
    </trkseg>
  </trk>
</gpx>